<?xml version="1.0" encoding="utf-8"?>
<gpx xmlns:xsi="http://www.w3.org/2001/XMLSchema-instance" xmlns:xsd="http://www.w3.org/2001/XMLSchema" version="1.1" creator="Shapelink.com" xmlns="http://www.topografix.com/GPX/1/1" xmlns:gpxtpx="http://www.garmin.com/xmlschemas/TrackPointExtension/v1">
  <metadata>
    <name>Løping 4.87 km, 2014-06-11</name>
    <desc></desc>
    <author><name>Mikael Blom</name></author> 
    <time>2014-06-11T20:09:51Z</time>
  </metadata>
  <trk>
    <name>Løping 4.87 km, 2014-06-11</name>
    <trkseg>
      <trkpt lat="59.9551139" lon="17.7142799">
        <ele>45.3192</ele>
        <time>2014-06-11T20:09:51Z</time>
      </trkpt>
      <trkpt lat="59.9551013" lon="17.7143026">
        <ele>45.7999</ele>
        <time>2014-06-11T20:09:52Z</time>
      </trkpt>
      <trkpt lat="59.9550842" lon="17.7143444">
        <ele>46.2806</ele>
        <time>2014-06-11T20:09:53Z</time>
      </trkpt>
      <trkpt lat="59.9550601" lon="17.7143852">
        <ele>46.2806</ele>
        <time>2014-06-11T20:09:54Z</time>
      </trkpt>
      <trkpt lat="59.9550359" lon="17.7144318">
        <ele>46.2806</ele>
        <time>2014-06-11T20:09:55Z</time>
      </trkpt>
      <trkpt lat="59.9550126" lon="17.7144701">
        <ele>46.2806</ele>
        <time>2014-06-11T20:09:56Z</time>
      </trkpt>
      <trkpt lat="59.9549895" lon="17.7145018">
        <ele>45.7999</ele>
        <time>2014-06-11T20:09:57Z</time>
      </trkpt>
      <trkpt lat="59.9549653" lon="17.7145385">
        <ele>46.2806</ele>
        <time>2014-06-11T20:09:58Z</time>
      </trkpt>
      <trkpt lat="59.9549451" lon="17.7145809">
        <ele>46.7612</ele>
        <time>2014-06-11T20:09:59Z</time>
      </trkpt>
      <trkpt lat="59.9549261" lon="17.7146328">
        <ele>47.7225</ele>
        <time>2014-06-11T20:10:00Z</time>
      </trkpt>
      <trkpt lat="59.9549047" lon="17.71468">
        <ele>48.2034</ele>
        <time>2014-06-11T20:10:01Z</time>
      </trkpt>
      <trkpt lat="59.9548873" lon="17.7147241">
        <ele>48.2034</ele>
        <time>2014-06-11T20:10:02Z</time>
      </trkpt>
      <trkpt lat="59.9548689" lon="17.7147535">
        <ele>48.2034</ele>
        <time>2014-06-11T20:10:03Z</time>
      </trkpt>
      <trkpt lat="59.9548456" lon="17.7147928">
        <ele>49.1646</ele>
        <time>2014-06-11T20:10:04Z</time>
      </trkpt>
      <trkpt lat="59.9548165" lon="17.7148245">
        <ele>50.126</ele>
        <time>2014-06-11T20:10:05Z</time>
      </trkpt>
      <trkpt lat="59.9547884" lon="17.7148374">
        <ele>50.6066</ele>
        <time>2014-06-11T20:10:06Z</time>
      </trkpt>
      <trkpt lat="59.9547656" lon="17.7148504">
        <ele>51.0872</ele>
        <time>2014-06-11T20:10:07Z</time>
      </trkpt>
      <trkpt lat="59.9547405" lon="17.7148612">
        <ele>51.5679</ele>
        <time>2014-06-11T20:10:08Z</time>
      </trkpt>
      <trkpt lat="59.9547067" lon="17.7148628">
        <ele>51.5679</ele>
        <time>2014-06-11T20:10:09Z</time>
      </trkpt>
      <trkpt lat="59.9546729" lon="17.7148664">
        <ele>52.0486</ele>
        <time>2014-06-11T20:10:10Z</time>
      </trkpt>
      <trkpt lat="59.9546374" lon="17.714869">
        <ele>52.0486</ele>
        <time>2014-06-11T20:10:11Z</time>
      </trkpt>
      <trkpt lat="59.9546055" lon="17.7148738">
        <ele>51.5679</ele>
        <time>2014-06-11T20:10:12Z</time>
      </trkpt>
      <trkpt lat="59.9545828" lon="17.7148824">
        <ele>51.5679</ele>
        <time>2014-06-11T20:10:13Z</time>
      </trkpt>
      <trkpt lat="59.9545532" lon="17.714883">
        <ele>51.5679</ele>
        <time>2014-06-11T20:10:14Z</time>
      </trkpt>
      <trkpt lat="59.9545156" lon="17.7148756">
        <ele>51.0872</ele>
        <time>2014-06-11T20:10:15Z</time>
      </trkpt>
      <trkpt lat="59.9544767" lon="17.7148814">
        <ele>50.6066</ele>
        <time>2014-06-11T20:10:16Z</time>
      </trkpt>
      <trkpt lat="59.9544449" lon="17.7148784">
        <ele>51.0872</ele>
        <time>2014-06-11T20:10:17Z</time>
      </trkpt>
      <trkpt lat="59.954413" lon="17.714854">
        <ele>51.0872</ele>
        <time>2014-06-11T20:10:18Z</time>
      </trkpt>
      <trkpt lat="59.9543802" lon="17.7148403">
        <ele>51.5679</ele>
        <time>2014-06-11T20:10:19Z</time>
      </trkpt>
      <trkpt lat="59.9543441" lon="17.7148363">
        <ele>51.0872</ele>
        <time>2014-06-11T20:10:20Z</time>
      </trkpt>
      <trkpt lat="59.9543151" lon="17.7148334">
        <ele>51.5679</ele>
        <time>2014-06-11T20:10:21Z</time>
      </trkpt>
      <trkpt lat="59.9542825" lon="17.7148348">
        <ele>51.0872</ele>
        <time>2014-06-11T20:10:22Z</time>
      </trkpt>
      <trkpt lat="59.9542571" lon="17.714839">
        <ele>50.6066</ele>
        <time>2014-06-11T20:10:23Z</time>
      </trkpt>
      <trkpt lat="59.9542317" lon="17.7148364">
        <ele>50.126</ele>
        <time>2014-06-11T20:10:24Z</time>
      </trkpt>
      <trkpt lat="59.9542016" lon="17.7148364">
        <ele>49.6453</ele>
        <time>2014-06-11T20:10:25Z</time>
      </trkpt>
      <trkpt lat="59.9541688" lon="17.7148222">
        <ele>49.6453</ele>
        <time>2014-06-11T20:10:26Z</time>
      </trkpt>
      <trkpt lat="59.9541393" lon="17.7148196">
        <ele>49.6453</ele>
        <time>2014-06-11T20:10:27Z</time>
      </trkpt>
      <trkpt lat="59.9541139" lon="17.7148255">
        <ele>49.1646</ele>
        <time>2014-06-11T20:10:28Z</time>
      </trkpt>
      <trkpt lat="59.9540898" lon="17.7148296">
        <ele>48.684</ele>
        <time>2014-06-11T20:10:29Z</time>
      </trkpt>
      <trkpt lat="59.9540711" lon="17.7148373">
        <ele>48.2034</ele>
        <time>2014-06-11T20:10:30Z</time>
      </trkpt>
      <trkpt lat="59.954051" lon="17.7148478">
        <ele>48.2034</ele>
        <time>2014-06-11T20:10:31Z</time>
      </trkpt>
      <trkpt lat="59.9540266" lon="17.7148486">
        <ele>47.7225</ele>
        <time>2014-06-11T20:10:32Z</time>
      </trkpt>
      <trkpt lat="59.9539944" lon="17.7148471">
        <ele>47.2418</ele>
        <time>2014-06-11T20:10:33Z</time>
      </trkpt>
      <trkpt lat="59.9539592" lon="17.7148461">
        <ele>46.7612</ele>
        <time>2014-06-11T20:10:34Z</time>
      </trkpt>
      <trkpt lat="59.953927" lon="17.7148505">
        <ele>45.7999</ele>
        <time>2014-06-11T20:10:35Z</time>
      </trkpt>
      <trkpt lat="59.9539025" lon="17.7148623">
        <ele>44.8386</ele>
        <time>2014-06-11T20:10:36Z</time>
      </trkpt>
      <trkpt lat="59.9538733" lon="17.7148716">
        <ele>44.358</ele>
        <time>2014-06-11T20:10:37Z</time>
      </trkpt>
      <trkpt lat="59.9538425" lon="17.7148825">
        <ele>44.8386</ele>
        <time>2014-06-11T20:10:38Z</time>
      </trkpt>
      <trkpt lat="59.9538098" lon="17.7148864">
        <ele>44.358</ele>
        <time>2014-06-11T20:10:39Z</time>
      </trkpt>
      <trkpt lat="59.9537797" lon="17.7149043">
        <ele>44.358</ele>
        <time>2014-06-11T20:10:40Z</time>
      </trkpt>
      <trkpt lat="59.953758" lon="17.7149331">
        <ele>44.8386</ele>
        <time>2014-06-11T20:10:41Z</time>
      </trkpt>
      <trkpt lat="59.9537339" lon="17.7149452">
        <ele>44.358</ele>
        <time>2014-06-11T20:10:42Z</time>
      </trkpt>
      <trkpt lat="59.9537093" lon="17.7149545">
        <ele>43.8773</ele>
        <time>2014-06-11T20:10:43Z</time>
      </trkpt>
      <trkpt lat="59.9536836" lon="17.7149652">
        <ele>43.3966</ele>
        <time>2014-06-11T20:10:44Z</time>
      </trkpt>
      <trkpt lat="59.9536613" lon="17.714986">
        <ele>43.3966</ele>
        <time>2014-06-11T20:10:45Z</time>
      </trkpt>
      <trkpt lat="59.9536381" lon="17.7150037">
        <ele>42.916</ele>
        <time>2014-06-11T20:10:46Z</time>
      </trkpt>
      <trkpt lat="59.953613" lon="17.7150261">
        <ele>42.4354</ele>
        <time>2014-06-11T20:10:47Z</time>
      </trkpt>
      <trkpt lat="59.9535892" lon="17.7150465">
        <ele>42.4354</ele>
        <time>2014-06-11T20:10:48Z</time>
      </trkpt>
      <trkpt lat="59.9535656" lon="17.7150695">
        <ele>42.4354</ele>
        <time>2014-06-11T20:10:49Z</time>
      </trkpt>
      <trkpt lat="59.9535422" lon="17.7150902">
        <ele>42.4354</ele>
        <time>2014-06-11T20:10:50Z</time>
      </trkpt>
      <trkpt lat="59.9535225" lon="17.7151166">
        <ele>42.4354</ele>
        <time>2014-06-11T20:10:51Z</time>
      </trkpt>
      <trkpt lat="59.9535032" lon="17.7151425">
        <ele>42.4354</ele>
        <time>2014-06-11T20:10:52Z</time>
      </trkpt>
      <trkpt lat="59.9534832" lon="17.7151704">
        <ele>42.4354</ele>
        <time>2014-06-11T20:10:53Z</time>
      </trkpt>
      <trkpt lat="59.9534646" lon="17.7151954">
        <ele>42.916</ele>
        <time>2014-06-11T20:10:54Z</time>
      </trkpt>
      <trkpt lat="59.9534448" lon="17.7152162">
        <ele>42.916</ele>
        <time>2014-06-11T20:10:55Z</time>
      </trkpt>
      <trkpt lat="59.9534251" lon="17.7152493">
        <ele>43.3966</ele>
        <time>2014-06-11T20:10:56Z</time>
      </trkpt>
      <trkpt lat="59.953409" lon="17.7152995">
        <ele>44.358</ele>
        <time>2014-06-11T20:10:57Z</time>
      </trkpt>
      <trkpt lat="59.9533925" lon="17.715345">
        <ele>44.8386</ele>
        <time>2014-06-11T20:10:58Z</time>
      </trkpt>
      <trkpt lat="59.9533688" lon="17.715384">
        <ele>45.7999</ele>
        <time>2014-06-11T20:10:59Z</time>
      </trkpt>
      <trkpt lat="59.9533522" lon="17.7154377">
        <ele>47.2418</ele>
        <time>2014-06-11T20:11:00Z</time>
      </trkpt>
      <trkpt lat="59.9533375" lon="17.715462">
        <ele>47.7225</ele>
        <time>2014-06-11T20:11:01Z</time>
      </trkpt>
      <trkpt lat="59.9533177" lon="17.7154741">
        <ele>47.7225</ele>
        <time>2014-06-11T20:11:02Z</time>
      </trkpt>
      <trkpt lat="59.9532916" lon="17.7155003">
        <ele>48.2034</ele>
        <time>2014-06-11T20:11:03Z</time>
      </trkpt>
      <trkpt lat="59.9532677" lon="17.7155331">
        <ele>49.6453</ele>
        <time>2014-06-11T20:11:04Z</time>
      </trkpt>
      <trkpt lat="59.9532452" lon="17.7155466">
        <ele>50.126</ele>
        <time>2014-06-11T20:11:05Z</time>
      </trkpt>
      <trkpt lat="59.9532174" lon="17.7155547">
        <ele>49.6453</ele>
        <time>2014-06-11T20:11:06Z</time>
      </trkpt>
      <trkpt lat="59.953194" lon="17.7155796">
        <ele>49.6453</ele>
        <time>2014-06-11T20:11:07Z</time>
      </trkpt>
      <trkpt lat="59.9531728" lon="17.7156107">
        <ele>49.6453</ele>
        <time>2014-06-11T20:11:08Z</time>
      </trkpt>
      <trkpt lat="59.9531542" lon="17.7156489">
        <ele>50.6066</ele>
        <time>2014-06-11T20:11:09Z</time>
      </trkpt>
      <trkpt lat="59.9531339" lon="17.7156847">
        <ele>52.0486</ele>
        <time>2014-06-11T20:11:10Z</time>
      </trkpt>
      <trkpt lat="59.9531146" lon="17.7157051">
        <ele>52.0486</ele>
        <time>2014-06-11T20:11:11Z</time>
      </trkpt>
      <trkpt lat="59.9530961" lon="17.715734">
        <ele>51.5679</ele>
        <time>2014-06-11T20:11:12Z</time>
      </trkpt>
      <trkpt lat="59.9530817" lon="17.7157802">
        <ele>51.5679</ele>
        <time>2014-06-11T20:11:13Z</time>
      </trkpt>
      <trkpt lat="59.9530688" lon="17.715833">
        <ele>52.5292</ele>
        <time>2014-06-11T20:11:14Z</time>
      </trkpt>
      <trkpt lat="59.9530564" lon="17.7158859">
        <ele>53.0098</ele>
        <time>2014-06-11T20:11:15Z</time>
      </trkpt>
      <trkpt lat="59.9530427" lon="17.7159388">
        <ele>53.4905</ele>
        <time>2014-06-11T20:11:16Z</time>
      </trkpt>
      <trkpt lat="59.9530315" lon="17.7159817">
        <ele>53.4905</ele>
        <time>2014-06-11T20:11:17Z</time>
      </trkpt>
      <trkpt lat="59.953018" lon="17.7160392">
        <ele>53.9712</ele>
        <time>2014-06-11T20:11:18Z</time>
      </trkpt>
      <trkpt lat="59.953001" lon="17.7160931">
        <ele>53.9712</ele>
        <time>2014-06-11T20:11:19Z</time>
      </trkpt>
      <trkpt lat="59.9529846" lon="17.7161333">
        <ele>52.5292</ele>
        <time>2014-06-11T20:11:20Z</time>
      </trkpt>
      <trkpt lat="59.9529723" lon="17.7161848">
        <ele>53.0098</ele>
        <time>2014-06-11T20:11:21Z</time>
      </trkpt>
      <trkpt lat="59.9529629" lon="17.7162314">
        <ele>52.5292</ele>
        <time>2014-06-11T20:11:22Z</time>
      </trkpt>
      <trkpt lat="59.9529526" lon="17.7162651">
        <ele>51.5679</ele>
        <time>2014-06-11T20:11:23Z</time>
      </trkpt>
      <trkpt lat="59.9529406" lon="17.7163127">
        <ele>52.0486</ele>
        <time>2014-06-11T20:11:24Z</time>
      </trkpt>
      <trkpt lat="59.9529309" lon="17.7163567">
        <ele>52.0486</ele>
        <time>2014-06-11T20:11:25Z</time>
      </trkpt>
      <trkpt lat="59.9529243" lon="17.716405">
        <ele>51.5679</ele>
        <time>2014-06-11T20:11:26Z</time>
      </trkpt>
      <trkpt lat="59.9529206" lon="17.7164489">
        <ele>50.6066</ele>
        <time>2014-06-11T20:11:27Z</time>
      </trkpt>
      <trkpt lat="59.9529216" lon="17.7164924">
        <ele>49.6453</ele>
        <time>2014-06-11T20:11:28Z</time>
      </trkpt>
      <trkpt lat="59.9529153" lon="17.7165386">
        <ele>49.1646</ele>
        <time>2014-06-11T20:11:29Z</time>
      </trkpt>
      <trkpt lat="59.95291" lon="17.7165856">
        <ele>49.1646</ele>
        <time>2014-06-11T20:11:30Z</time>
      </trkpt>
      <trkpt lat="59.9529055" lon="17.7166255">
        <ele>48.684</ele>
        <time>2014-06-11T20:11:31Z</time>
      </trkpt>
      <trkpt lat="59.9529059" lon="17.7166734">
        <ele>48.2034</ele>
        <time>2014-06-11T20:11:32Z</time>
      </trkpt>
      <trkpt lat="59.9529067" lon="17.7167352">
        <ele>48.2034</ele>
        <time>2014-06-11T20:11:33Z</time>
      </trkpt>
      <trkpt lat="59.9529114" lon="17.7167912">
        <ele>48.2034</ele>
        <time>2014-06-11T20:11:34Z</time>
      </trkpt>
      <trkpt lat="59.9529106" lon="17.7168504">
        <ele>48.2034</ele>
        <time>2014-06-11T20:11:35Z</time>
      </trkpt>
      <trkpt lat="59.9529102" lon="17.7169013">
        <ele>47.7225</ele>
        <time>2014-06-11T20:11:36Z</time>
      </trkpt>
      <trkpt lat="59.9529123" lon="17.7169507">
        <ele>47.7225</ele>
        <time>2014-06-11T20:11:37Z</time>
      </trkpt>
      <trkpt lat="59.9529114" lon="17.7170027">
        <ele>48.2034</ele>
        <time>2014-06-11T20:11:38Z</time>
      </trkpt>
      <trkpt lat="59.9529092" lon="17.7170582">
        <ele>48.2034</ele>
        <time>2014-06-11T20:11:39Z</time>
      </trkpt>
      <trkpt lat="59.9529114" lon="17.7171052">
        <ele>47.7225</ele>
        <time>2014-06-11T20:11:40Z</time>
      </trkpt>
      <trkpt lat="59.9529129" lon="17.7171512">
        <ele>47.2418</ele>
        <time>2014-06-11T20:11:41Z</time>
      </trkpt>
      <trkpt lat="59.9529137" lon="17.7172031">
        <ele>46.7612</ele>
        <time>2014-06-11T20:11:42Z</time>
      </trkpt>
      <trkpt lat="59.9529035" lon="17.7172378">
        <ele>46.2806</ele>
        <time>2014-06-11T20:11:43Z</time>
      </trkpt>
      <trkpt lat="59.9528896" lon="17.7172767">
        <ele>46.2806</ele>
        <time>2014-06-11T20:11:44Z</time>
      </trkpt>
      <trkpt lat="59.9528683" lon="17.7173147">
        <ele>46.2806</ele>
        <time>2014-06-11T20:11:45Z</time>
      </trkpt>
      <trkpt lat="59.9528511" lon="17.7173597">
        <ele>46.2806</ele>
        <time>2014-06-11T20:11:46Z</time>
      </trkpt>
      <trkpt lat="59.9528408" lon="17.7174035">
        <ele>46.7612</ele>
        <time>2014-06-11T20:11:47Z</time>
      </trkpt>
      <trkpt lat="59.9528304" lon="17.7174471">
        <ele>45.7999</ele>
        <time>2014-06-11T20:11:48Z</time>
      </trkpt>
      <trkpt lat="59.9528171" lon="17.7174859">
        <ele>45.7999</ele>
        <time>2014-06-11T20:11:49Z</time>
      </trkpt>
      <trkpt lat="59.9528061" lon="17.7175284">
        <ele>45.7999</ele>
        <time>2014-06-11T20:11:50Z</time>
      </trkpt>
      <trkpt lat="59.9527994" lon="17.7175873">
        <ele>46.7612</ele>
        <time>2014-06-11T20:11:51Z</time>
      </trkpt>
      <trkpt lat="59.9527881" lon="17.7176384">
        <ele>47.2418</ele>
        <time>2014-06-11T20:11:52Z</time>
      </trkpt>
      <trkpt lat="59.952778" lon="17.7176854">
        <ele>48.2034</ele>
        <time>2014-06-11T20:11:53Z</time>
      </trkpt>
      <trkpt lat="59.9527611" lon="17.7177253">
        <ele>47.7225</ele>
        <time>2014-06-11T20:11:54Z</time>
      </trkpt>
      <trkpt lat="59.9527429" lon="17.7177554">
        <ele>46.7612</ele>
        <time>2014-06-11T20:11:55Z</time>
      </trkpt>
      <trkpt lat="59.9527278" lon="17.7177906">
        <ele>46.7612</ele>
        <time>2014-06-11T20:11:56Z</time>
      </trkpt>
      <trkpt lat="59.952717" lon="17.7178263">
        <ele>46.7612</ele>
        <time>2014-06-11T20:11:57Z</time>
      </trkpt>
      <trkpt lat="59.9527046" lon="17.7178577">
        <ele>46.2806</ele>
        <time>2014-06-11T20:11:58Z</time>
      </trkpt>
      <trkpt lat="59.9526905" lon="17.7178947">
        <ele>46.2806</ele>
        <time>2014-06-11T20:11:59Z</time>
      </trkpt>
      <trkpt lat="59.9526753" lon="17.717932">
        <ele>45.3192</ele>
        <time>2014-06-11T20:12:00Z</time>
      </trkpt>
      <trkpt lat="59.9526642" lon="17.7179776">
        <ele>45.3192</ele>
        <time>2014-06-11T20:12:01Z</time>
      </trkpt>
      <trkpt lat="59.9526513" lon="17.7180166">
        <ele>44.8386</ele>
        <time>2014-06-11T20:12:02Z</time>
      </trkpt>
      <trkpt lat="59.9526367" lon="17.7180536">
        <ele>45.3192</ele>
        <time>2014-06-11T20:12:03Z</time>
      </trkpt>
      <trkpt lat="59.9526278" lon="17.7181019">
        <ele>46.2806</ele>
        <time>2014-06-11T20:12:04Z</time>
      </trkpt>
      <trkpt lat="59.9526227" lon="17.7181468">
        <ele>45.7999</ele>
        <time>2014-06-11T20:12:05Z</time>
      </trkpt>
      <trkpt lat="59.9526143" lon="17.7181823">
        <ele>45.3192</ele>
        <time>2014-06-11T20:12:06Z</time>
      </trkpt>
      <trkpt lat="59.9526031" lon="17.7182277">
        <ele>46.2806</ele>
        <time>2014-06-11T20:12:07Z</time>
      </trkpt>
      <trkpt lat="59.9525906" lon="17.718276">
        <ele>46.7612</ele>
        <time>2014-06-11T20:12:08Z</time>
      </trkpt>
      <trkpt lat="59.9525823" lon="17.7183242">
        <ele>46.7612</ele>
        <time>2014-06-11T20:12:09Z</time>
      </trkpt>
      <trkpt lat="59.9525712" lon="17.7183697">
        <ele>47.2418</ele>
        <time>2014-06-11T20:12:10Z</time>
      </trkpt>
      <trkpt lat="59.9525637" lon="17.7184162">
        <ele>47.2418</ele>
        <time>2014-06-11T20:12:11Z</time>
      </trkpt>
      <trkpt lat="59.95256" lon="17.7184638">
        <ele>47.2418</ele>
        <time>2014-06-11T20:12:12Z</time>
      </trkpt>
      <trkpt lat="59.9525611" lon="17.7185167">
        <ele>47.7225</ele>
        <time>2014-06-11T20:12:13Z</time>
      </trkpt>
      <trkpt lat="59.9525547" lon="17.7185604">
        <ele>47.2418</ele>
        <time>2014-06-11T20:12:14Z</time>
      </trkpt>
      <trkpt lat="59.9525384" lon="17.718592">
        <ele>47.7225</ele>
        <time>2014-06-11T20:12:15Z</time>
      </trkpt>
      <trkpt lat="59.9525215" lon="17.7186163">
        <ele>47.7225</ele>
        <time>2014-06-11T20:12:16Z</time>
      </trkpt>
      <trkpt lat="59.9525067" lon="17.7186386">
        <ele>47.2418</ele>
        <time>2014-06-11T20:12:17Z</time>
      </trkpt>
      <trkpt lat="59.9524887" lon="17.7186682">
        <ele>48.2034</ele>
        <time>2014-06-11T20:12:18Z</time>
      </trkpt>
      <trkpt lat="59.9524734" lon="17.7187122">
        <ele>47.2418</ele>
        <time>2014-06-11T20:12:19Z</time>
      </trkpt>
      <trkpt lat="59.9524487" lon="17.7187514">
        <ele>46.2806</ele>
        <time>2014-06-11T20:12:20Z</time>
      </trkpt>
      <trkpt lat="59.9524337" lon="17.7187918">
        <ele>45.3192</ele>
        <time>2014-06-11T20:12:21Z</time>
      </trkpt>
      <trkpt lat="59.9524233" lon="17.7188396">
        <ele>45.3192</ele>
        <time>2014-06-11T20:12:22Z</time>
      </trkpt>
      <trkpt lat="59.9524124" lon="17.7188782">
        <ele>43.8773</ele>
        <time>2014-06-11T20:12:23Z</time>
      </trkpt>
      <trkpt lat="59.9524001" lon="17.718927">
        <ele>43.8773</ele>
        <time>2014-06-11T20:12:24Z</time>
      </trkpt>
      <trkpt lat="59.9523907" lon="17.7189773">
        <ele>42.916</ele>
        <time>2014-06-11T20:12:25Z</time>
      </trkpt>
      <trkpt lat="59.9523798" lon="17.7190255">
        <ele>41.9547</ele>
        <time>2014-06-11T20:12:26Z</time>
      </trkpt>
      <trkpt lat="59.9523684" lon="17.7190721">
        <ele>41.474</ele>
        <time>2014-06-11T20:12:27Z</time>
      </trkpt>
      <trkpt lat="59.9523632" lon="17.7191256">
        <ele>41.474</ele>
        <time>2014-06-11T20:12:28Z</time>
      </trkpt>
      <trkpt lat="59.9523596" lon="17.7191916">
        <ele>42.4354</ele>
        <time>2014-06-11T20:12:29Z</time>
      </trkpt>
      <trkpt lat="59.9523584" lon="17.7192504">
        <ele>43.8773</ele>
        <time>2014-06-11T20:12:30Z</time>
      </trkpt>
      <trkpt lat="59.952357" lon="17.7193057">
        <ele>44.358</ele>
        <time>2014-06-11T20:12:31Z</time>
      </trkpt>
      <trkpt lat="59.9523568" lon="17.7193598">
        <ele>44.8386</ele>
        <time>2014-06-11T20:12:32Z</time>
      </trkpt>
      <trkpt lat="59.9523539" lon="17.719413">
        <ele>45.3192</ele>
        <time>2014-06-11T20:12:33Z</time>
      </trkpt>
      <trkpt lat="59.9523588" lon="17.7194695">
        <ele>47.2418</ele>
        <time>2014-06-11T20:12:34Z</time>
      </trkpt>
      <trkpt lat="59.9523711" lon="17.7195275">
        <ele>48.2034</ele>
        <time>2014-06-11T20:12:35Z</time>
      </trkpt>
      <trkpt lat="59.9523837" lon="17.7195838">
        <ele>48.684</ele>
        <time>2014-06-11T20:12:36Z</time>
      </trkpt>
      <trkpt lat="59.9523958" lon="17.7196363">
        <ele>49.6453</ele>
        <time>2014-06-11T20:12:37Z</time>
      </trkpt>
      <trkpt lat="59.952406" lon="17.7196882">
        <ele>50.126</ele>
        <time>2014-06-11T20:12:38Z</time>
      </trkpt>
      <trkpt lat="59.952416" lon="17.7197374">
        <ele>50.6066</ele>
        <time>2014-06-11T20:12:39Z</time>
      </trkpt>
      <trkpt lat="59.9524279" lon="17.7197856">
        <ele>51.0872</ele>
        <time>2014-06-11T20:12:40Z</time>
      </trkpt>
      <trkpt lat="59.95244" lon="17.7198336">
        <ele>51.0872</ele>
        <time>2014-06-11T20:12:41Z</time>
      </trkpt>
      <trkpt lat="59.9524467" lon="17.7198762">
        <ele>50.126</ele>
        <time>2014-06-11T20:12:42Z</time>
      </trkpt>
      <trkpt lat="59.9524586" lon="17.7199173">
        <ele>49.6453</ele>
        <time>2014-06-11T20:12:43Z</time>
      </trkpt>
      <trkpt lat="59.9524637" lon="17.7199662">
        <ele>49.6453</ele>
        <time>2014-06-11T20:12:44Z</time>
      </trkpt>
      <trkpt lat="59.9524707" lon="17.7200243">
        <ele>51.0872</ele>
        <time>2014-06-11T20:12:45Z</time>
      </trkpt>
      <trkpt lat="59.9524828" lon="17.7200879">
        <ele>52.0486</ele>
        <time>2014-06-11T20:12:46Z</time>
      </trkpt>
      <trkpt lat="59.9524881" lon="17.7201546">
        <ele>53.0098</ele>
        <time>2014-06-11T20:12:47Z</time>
      </trkpt>
      <trkpt lat="59.952486" lon="17.7202138">
        <ele>53.4905</ele>
        <time>2014-06-11T20:12:48Z</time>
      </trkpt>
      <trkpt lat="59.9524842" lon="17.7202541">
        <ele>54.4518</ele>
        <time>2014-06-11T20:12:49Z</time>
      </trkpt>
      <trkpt lat="59.9524868" lon="17.7202932">
        <ele>54.9324</ele>
        <time>2014-06-11T20:12:50Z</time>
      </trkpt>
      <trkpt lat="59.9524911" lon="17.7203454">
        <ele>54.9324</ele>
        <time>2014-06-11T20:12:51Z</time>
      </trkpt>
      <trkpt lat="59.9524904" lon="17.7203821">
        <ele>54.4518</ele>
        <time>2014-06-11T20:12:52Z</time>
      </trkpt>
      <trkpt lat="59.9524917" lon="17.7204269">
        <ele>53.9712</ele>
        <time>2014-06-11T20:12:53Z</time>
      </trkpt>
      <trkpt lat="59.9524926" lon="17.720473">
        <ele>53.9712</ele>
        <time>2014-06-11T20:12:54Z</time>
      </trkpt>
      <trkpt lat="59.952492" lon="17.7205267">
        <ele>53.4905</ele>
        <time>2014-06-11T20:12:55Z</time>
      </trkpt>
      <trkpt lat="59.9524938" lon="17.7205909">
        <ele>53.9712</ele>
        <time>2014-06-11T20:12:56Z</time>
      </trkpt>
      <trkpt lat="59.9525015" lon="17.7206448">
        <ele>53.4905</ele>
        <time>2014-06-11T20:12:57Z</time>
      </trkpt>
      <trkpt lat="59.9525077" lon="17.7207008">
        <ele>53.4905</ele>
        <time>2014-06-11T20:12:58Z</time>
      </trkpt>
      <trkpt lat="59.9525099" lon="17.7207544">
        <ele>53.0098</ele>
        <time>2014-06-11T20:12:59Z</time>
      </trkpt>
      <trkpt lat="59.9525108" lon="17.7208039">
        <ele>53.4905</ele>
        <time>2014-06-11T20:13:00Z</time>
      </trkpt>
      <trkpt lat="59.9525129" lon="17.7208608">
        <ele>53.4905</ele>
        <time>2014-06-11T20:13:01Z</time>
      </trkpt>
      <trkpt lat="59.9525134" lon="17.7209176">
        <ele>53.9712</ele>
        <time>2014-06-11T20:13:02Z</time>
      </trkpt>
      <trkpt lat="59.952519" lon="17.7209841">
        <ele>54.4518</ele>
        <time>2014-06-11T20:13:03Z</time>
      </trkpt>
      <trkpt lat="59.9525182" lon="17.7210508">
        <ele>54.9324</ele>
        <time>2014-06-11T20:13:04Z</time>
      </trkpt>
      <trkpt lat="59.9525211" lon="17.7210976">
        <ele>54.4518</ele>
        <time>2014-06-11T20:13:05Z</time>
      </trkpt>
      <trkpt lat="59.952517" lon="17.7211365">
        <ele>53.4905</ele>
        <time>2014-06-11T20:13:06Z</time>
      </trkpt>
      <trkpt lat="59.9525181" lon="17.7211992">
        <ele>53.4905</ele>
        <time>2014-06-11T20:13:07Z</time>
      </trkpt>
      <trkpt lat="59.9525181" lon="17.7212593">
        <ele>53.9712</ele>
        <time>2014-06-11T20:13:08Z</time>
      </trkpt>
      <trkpt lat="59.9525231" lon="17.721315">
        <ele>53.9712</ele>
        <time>2014-06-11T20:13:09Z</time>
      </trkpt>
      <trkpt lat="59.9525254" lon="17.7213655">
        <ele>53.9712</ele>
        <time>2014-06-11T20:13:10Z</time>
      </trkpt>
      <trkpt lat="59.9525213" lon="17.721429">
        <ele>54.4518</ele>
        <time>2014-06-11T20:13:11Z</time>
      </trkpt>
      <trkpt lat="59.9525177" lon="17.721485">
        <ele>54.9324</ele>
        <time>2014-06-11T20:13:12Z</time>
      </trkpt>
      <trkpt lat="59.952517" lon="17.7215346">
        <ele>55.8938</ele>
        <time>2014-06-11T20:13:13Z</time>
      </trkpt>
      <trkpt lat="59.9525207" lon="17.7215831">
        <ele>56.8551</ele>
        <time>2014-06-11T20:13:14Z</time>
      </trkpt>
      <trkpt lat="59.9525233" lon="17.7216333">
        <ele>57.8165</ele>
        <time>2014-06-11T20:13:15Z</time>
      </trkpt>
      <trkpt lat="59.952529" lon="17.7216752">
        <ele>58.2971</ele>
        <time>2014-06-11T20:13:16Z</time>
      </trkpt>
      <trkpt lat="59.9525372" lon="17.7217185">
        <ele>58.2971</ele>
        <time>2014-06-11T20:13:17Z</time>
      </trkpt>
      <trkpt lat="59.9525393" lon="17.7217716">
        <ele>57.8165</ele>
        <time>2014-06-11T20:13:18Z</time>
      </trkpt>
      <trkpt lat="59.9525438" lon="17.7218215">
        <ele>56.8551</ele>
        <time>2014-06-11T20:13:19Z</time>
      </trkpt>
      <trkpt lat="59.9525569" lon="17.7218818">
        <ele>57.8165</ele>
        <time>2014-06-11T20:13:20Z</time>
      </trkpt>
      <trkpt lat="59.9525619" lon="17.7219324">
        <ele>56.8551</ele>
        <time>2014-06-11T20:13:21Z</time>
      </trkpt>
      <trkpt lat="59.9525621" lon="17.7219859">
        <ele>56.8551</ele>
        <time>2014-06-11T20:13:22Z</time>
      </trkpt>
      <trkpt lat="59.9525602" lon="17.7220405">
        <ele>56.8551</ele>
        <time>2014-06-11T20:13:23Z</time>
      </trkpt>
      <trkpt lat="59.9525564" lon="17.7220865">
        <ele>56.3745</ele>
        <time>2014-06-11T20:13:24Z</time>
      </trkpt>
      <trkpt lat="59.9525526" lon="17.7221365">
        <ele>56.3745</ele>
        <time>2014-06-11T20:13:25Z</time>
      </trkpt>
      <trkpt lat="59.9525487" lon="17.7221848">
        <ele>55.4131</ele>
        <time>2014-06-11T20:13:26Z</time>
      </trkpt>
      <trkpt lat="59.9525433" lon="17.7222411">
        <ele>54.9324</ele>
        <time>2014-06-11T20:13:27Z</time>
      </trkpt>
      <trkpt lat="59.9525325" lon="17.7222826">
        <ele>53.4905</ele>
        <time>2014-06-11T20:13:28Z</time>
      </trkpt>
      <trkpt lat="59.9525191" lon="17.7223279">
        <ele>52.5292</ele>
        <time>2014-06-11T20:13:29Z</time>
      </trkpt>
      <trkpt lat="59.9525029" lon="17.7223745">
        <ele>52.0486</ele>
        <time>2014-06-11T20:13:30Z</time>
      </trkpt>
      <trkpt lat="59.952486" lon="17.7224231">
        <ele>52.0486</ele>
        <time>2014-06-11T20:13:31Z</time>
      </trkpt>
      <trkpt lat="59.9524731" lon="17.7224641">
        <ele>51.0872</ele>
        <time>2014-06-11T20:13:32Z</time>
      </trkpt>
      <trkpt lat="59.952457" lon="17.7225044">
        <ele>50.6066</ele>
        <time>2014-06-11T20:13:33Z</time>
      </trkpt>
      <trkpt lat="59.9524431" lon="17.7225506">
        <ele>50.126</ele>
        <time>2014-06-11T20:13:34Z</time>
      </trkpt>
      <trkpt lat="59.9524353" lon="17.7225989">
        <ele>50.6066</ele>
        <time>2014-06-11T20:13:35Z</time>
      </trkpt>
      <trkpt lat="59.9524326" lon="17.7226496">
        <ele>50.6066</ele>
        <time>2014-06-11T20:13:36Z</time>
      </trkpt>
      <trkpt lat="59.9524332" lon="17.7226994">
        <ele>50.126</ele>
        <time>2014-06-11T20:13:37Z</time>
      </trkpt>
      <trkpt lat="59.9524353" lon="17.722752">
        <ele>49.6453</ele>
        <time>2014-06-11T20:13:38Z</time>
      </trkpt>
      <trkpt lat="59.9524392" lon="17.7227905">
        <ele>48.684</ele>
        <time>2014-06-11T20:13:39Z</time>
      </trkpt>
      <trkpt lat="59.9524466" lon="17.7228319">
        <ele>48.684</ele>
        <time>2014-06-11T20:13:40Z</time>
      </trkpt>
      <trkpt lat="59.9524571" lon="17.7228876">
        <ele>49.6453</ele>
        <time>2014-06-11T20:13:41Z</time>
      </trkpt>
      <trkpt lat="59.9524666" lon="17.7229447">
        <ele>50.126</ele>
        <time>2014-06-11T20:13:42Z</time>
      </trkpt>
      <trkpt lat="59.952475" lon="17.7230044">
        <ele>51.0872</ele>
        <time>2014-06-11T20:13:43Z</time>
      </trkpt>
      <trkpt lat="59.9524881" lon="17.7230654">
        <ele>51.5679</ele>
        <time>2014-06-11T20:13:44Z</time>
      </trkpt>
      <trkpt lat="59.9525046" lon="17.7231243">
        <ele>52.0486</ele>
        <time>2014-06-11T20:13:45Z</time>
      </trkpt>
      <trkpt lat="59.9525236" lon="17.7231777">
        <ele>52.5292</ele>
        <time>2014-06-11T20:13:46Z</time>
      </trkpt>
      <trkpt lat="59.9525357" lon="17.7232235">
        <ele>53.0098</ele>
        <time>2014-06-11T20:13:47Z</time>
      </trkpt>
      <trkpt lat="59.9525436" lon="17.7232768">
        <ele>53.4905</ele>
        <time>2014-06-11T20:13:48Z</time>
      </trkpt>
      <trkpt lat="59.9525526" lon="17.7233248">
        <ele>53.9712</ele>
        <time>2014-06-11T20:13:49Z</time>
      </trkpt>
      <trkpt lat="59.9525677" lon="17.7233652">
        <ele>53.9712</ele>
        <time>2014-06-11T20:13:50Z</time>
      </trkpt>
      <trkpt lat="59.9525796" lon="17.723407">
        <ele>53.9712</ele>
        <time>2014-06-11T20:13:51Z</time>
      </trkpt>
      <trkpt lat="59.9525938" lon="17.723466">
        <ele>55.4131</ele>
        <time>2014-06-11T20:13:52Z</time>
      </trkpt>
      <trkpt lat="59.9526116" lon="17.7235239">
        <ele>56.3745</ele>
        <time>2014-06-11T20:13:53Z</time>
      </trkpt>
      <trkpt lat="59.9526227" lon="17.7235773">
        <ele>56.3745</ele>
        <time>2014-06-11T20:13:54Z</time>
      </trkpt>
      <trkpt lat="59.9526341" lon="17.7236201">
        <ele>56.3745</ele>
        <time>2014-06-11T20:13:55Z</time>
      </trkpt>
      <trkpt lat="59.9526481" lon="17.7236598">
        <ele>55.4131</ele>
        <time>2014-06-11T20:13:56Z</time>
      </trkpt>
      <trkpt lat="59.9526612" lon="17.7237037">
        <ele>54.9324</ele>
        <time>2014-06-11T20:13:57Z</time>
      </trkpt>
      <trkpt lat="59.9526731" lon="17.7237504">
        <ele>53.9712</ele>
        <time>2014-06-11T20:13:58Z</time>
      </trkpt>
      <trkpt lat="59.9526864" lon="17.7238037">
        <ele>53.9712</ele>
        <time>2014-06-11T20:13:59Z</time>
      </trkpt>
      <trkpt lat="59.9526956" lon="17.7238523">
        <ele>53.0098</ele>
        <time>2014-06-11T20:14:00Z</time>
      </trkpt>
      <trkpt lat="59.9527015" lon="17.7238948">
        <ele>52.5292</ele>
        <time>2014-06-11T20:14:01Z</time>
      </trkpt>
      <trkpt lat="59.9527015" lon="17.7239435">
        <ele>51.5679</ele>
        <time>2014-06-11T20:14:02Z</time>
      </trkpt>
      <trkpt lat="59.9526968" lon="17.7239968">
        <ele>50.6066</ele>
        <time>2014-06-11T20:14:03Z</time>
      </trkpt>
      <trkpt lat="59.952689" lon="17.7240456">
        <ele>49.6453</ele>
        <time>2014-06-11T20:14:04Z</time>
      </trkpt>
      <trkpt lat="59.9526864" lon="17.7240974">
        <ele>49.1646</ele>
        <time>2014-06-11T20:14:05Z</time>
      </trkpt>
      <trkpt lat="59.9526831" lon="17.7241519">
        <ele>48.684</ele>
        <time>2014-06-11T20:14:06Z</time>
      </trkpt>
      <trkpt lat="59.9526736" lon="17.7242028">
        <ele>48.2034</ele>
        <time>2014-06-11T20:14:07Z</time>
      </trkpt>
      <trkpt lat="59.9526595" lon="17.7242475">
        <ele>47.7225</ele>
        <time>2014-06-11T20:14:08Z</time>
      </trkpt>
      <trkpt lat="59.9526417" lon="17.7242816">
        <ele>47.2418</ele>
        <time>2014-06-11T20:14:09Z</time>
      </trkpt>
      <trkpt lat="59.9526238" lon="17.7243128">
        <ele>46.2806</ele>
        <time>2014-06-11T20:14:10Z</time>
      </trkpt>
      <trkpt lat="59.9526063" lon="17.7243419">
        <ele>45.7999</ele>
        <time>2014-06-11T20:14:11Z</time>
      </trkpt>
      <trkpt lat="59.9525828" lon="17.7243729">
        <ele>45.3192</ele>
        <time>2014-06-11T20:14:12Z</time>
      </trkpt>
      <trkpt lat="59.9525606" lon="17.7244143">
        <ele>45.7999</ele>
        <time>2014-06-11T20:14:13Z</time>
      </trkpt>
      <trkpt lat="59.9525388" lon="17.7244558">
        <ele>45.7999</ele>
        <time>2014-06-11T20:14:14Z</time>
      </trkpt>
      <trkpt lat="59.9525207" lon="17.7244901">
        <ele>45.3192</ele>
        <time>2014-06-11T20:14:15Z</time>
      </trkpt>
      <trkpt lat="59.9525013" lon="17.7245284">
        <ele>45.7999</ele>
        <time>2014-06-11T20:14:16Z</time>
      </trkpt>
      <trkpt lat="59.9524783" lon="17.724563">
        <ele>45.7999</ele>
        <time>2014-06-11T20:14:17Z</time>
      </trkpt>
      <trkpt lat="59.9524518" lon="17.7245999">
        <ele>45.3192</ele>
        <time>2014-06-11T20:14:18Z</time>
      </trkpt>
      <trkpt lat="59.9524233" lon="17.7246338">
        <ele>45.3192</ele>
        <time>2014-06-11T20:14:19Z</time>
      </trkpt>
      <trkpt lat="59.9523975" lon="17.7246692">
        <ele>45.3192</ele>
        <time>2014-06-11T20:14:20Z</time>
      </trkpt>
      <trkpt lat="59.9523741" lon="17.7246989">
        <ele>46.2806</ele>
        <time>2014-06-11T20:14:21Z</time>
      </trkpt>
      <trkpt lat="59.9523526" lon="17.7247241">
        <ele>46.2806</ele>
        <time>2014-06-11T20:14:22Z</time>
      </trkpt>
      <trkpt lat="59.9523383" lon="17.7247562">
        <ele>47.2418</ele>
        <time>2014-06-11T20:14:23Z</time>
      </trkpt>
      <trkpt lat="59.9523201" lon="17.7247924">
        <ele>47.7225</ele>
        <time>2014-06-11T20:14:24Z</time>
      </trkpt>
      <trkpt lat="59.9522975" lon="17.7248341">
        <ele>48.684</ele>
        <time>2014-06-11T20:14:25Z</time>
      </trkpt>
      <trkpt lat="59.9522773" lon="17.7248796">
        <ele>49.6453</ele>
        <time>2014-06-11T20:14:26Z</time>
      </trkpt>
      <trkpt lat="59.9522539" lon="17.7249219">
        <ele>50.126</ele>
        <time>2014-06-11T20:14:27Z</time>
      </trkpt>
      <trkpt lat="59.952229" lon="17.7249713">
        <ele>50.126</ele>
        <time>2014-06-11T20:14:28Z</time>
      </trkpt>
      <trkpt lat="59.952214" lon="17.7250214">
        <ele>49.1646</ele>
        <time>2014-06-11T20:14:29Z</time>
      </trkpt>
      <trkpt lat="59.952211" lon="17.72508">
        <ele>48.684</ele>
        <time>2014-06-11T20:14:30Z</time>
      </trkpt>
      <trkpt lat="59.952196" lon="17.7251323">
        <ele>48.2034</ele>
        <time>2014-06-11T20:14:31Z</time>
      </trkpt>
      <trkpt lat="59.9521727" lon="17.7251755">
        <ele>48.2034</ele>
        <time>2014-06-11T20:14:32Z</time>
      </trkpt>
      <trkpt lat="59.952152" lon="17.7252135">
        <ele>48.2034</ele>
        <time>2014-06-11T20:14:33Z</time>
      </trkpt>
      <trkpt lat="59.9521255" lon="17.7252552">
        <ele>48.2034</ele>
        <time>2014-06-11T20:14:34Z</time>
      </trkpt>
      <trkpt lat="59.9521057" lon="17.725301">
        <ele>48.2034</ele>
        <time>2014-06-11T20:14:35Z</time>
      </trkpt>
      <trkpt lat="59.9520874" lon="17.7253385">
        <ele>48.2034</ele>
        <time>2014-06-11T20:14:36Z</time>
      </trkpt>
      <trkpt lat="59.9520634" lon="17.7253665">
        <ele>48.2034</ele>
        <time>2014-06-11T20:14:37Z</time>
      </trkpt>
      <trkpt lat="59.9520369" lon="17.7253959">
        <ele>47.7225</ele>
        <time>2014-06-11T20:14:38Z</time>
      </trkpt>
      <trkpt lat="59.952012" lon="17.7254219">
        <ele>46.7612</ele>
        <time>2014-06-11T20:14:39Z</time>
      </trkpt>
      <trkpt lat="59.9519908" lon="17.7254575">
        <ele>46.7612</ele>
        <time>2014-06-11T20:14:40Z</time>
      </trkpt>
      <trkpt lat="59.9519677" lon="17.7254935">
        <ele>46.7612</ele>
        <time>2014-06-11T20:14:41Z</time>
      </trkpt>
      <trkpt lat="59.9519461" lon="17.7255248">
        <ele>46.7612</ele>
        <time>2014-06-11T20:14:42Z</time>
      </trkpt>
      <trkpt lat="59.9519304" lon="17.7255579">
        <ele>46.2806</ele>
        <time>2014-06-11T20:14:43Z</time>
      </trkpt>
      <trkpt lat="59.9519147" lon="17.7255907">
        <ele>45.7999</ele>
        <time>2014-06-11T20:14:44Z</time>
      </trkpt>
      <trkpt lat="59.9519004" lon="17.7256302">
        <ele>45.7999</ele>
        <time>2014-06-11T20:14:45Z</time>
      </trkpt>
      <trkpt lat="59.9518851" lon="17.7256702">
        <ele>46.2806</ele>
        <time>2014-06-11T20:14:46Z</time>
      </trkpt>
      <trkpt lat="59.9518643" lon="17.7257099">
        <ele>46.2806</ele>
        <time>2014-06-11T20:14:47Z</time>
      </trkpt>
      <trkpt lat="59.9518426" lon="17.7257358">
        <ele>45.3192</ele>
        <time>2014-06-11T20:14:48Z</time>
      </trkpt>
      <trkpt lat="59.9518182" lon="17.7257622">
        <ele>45.3192</ele>
        <time>2014-06-11T20:14:49Z</time>
      </trkpt>
      <trkpt lat="59.9517918" lon="17.7257913">
        <ele>45.3192</ele>
        <time>2014-06-11T20:14:50Z</time>
      </trkpt>
      <trkpt lat="59.9517675" lon="17.7258177">
        <ele>45.3192</ele>
        <time>2014-06-11T20:14:51Z</time>
      </trkpt>
      <trkpt lat="59.9517464" lon="17.7258499">
        <ele>44.8386</ele>
        <time>2014-06-11T20:14:52Z</time>
      </trkpt>
      <trkpt lat="59.9517199" lon="17.7258804">
        <ele>44.8386</ele>
        <time>2014-06-11T20:14:53Z</time>
      </trkpt>
      <trkpt lat="59.9516959" lon="17.7259062">
        <ele>44.8386</ele>
        <time>2014-06-11T20:14:54Z</time>
      </trkpt>
      <trkpt lat="59.951678" lon="17.7259368">
        <ele>44.8386</ele>
        <time>2014-06-11T20:14:55Z</time>
      </trkpt>
      <trkpt lat="59.9516598" lon="17.7259689">
        <ele>44.358</ele>
        <time>2014-06-11T20:14:56Z</time>
      </trkpt>
      <trkpt lat="59.9516338" lon="17.7260078">
        <ele>43.8773</ele>
        <time>2014-06-11T20:14:57Z</time>
      </trkpt>
      <trkpt lat="59.9516086" lon="17.7260451">
        <ele>43.3966</ele>
        <time>2014-06-11T20:14:58Z</time>
      </trkpt>
      <trkpt lat="59.9515898" lon="17.7260829">
        <ele>43.3966</ele>
        <time>2014-06-11T20:14:59Z</time>
      </trkpt>
      <trkpt lat="59.9515732" lon="17.7261226">
        <ele>43.8773</ele>
        <time>2014-06-11T20:15:00Z</time>
      </trkpt>
      <trkpt lat="59.9515627" lon="17.7261653">
        <ele>43.8773</ele>
        <time>2014-06-11T20:15:01Z</time>
      </trkpt>
      <trkpt lat="59.9515515" lon="17.7262093">
        <ele>44.358</ele>
        <time>2014-06-11T20:15:02Z</time>
      </trkpt>
      <trkpt lat="59.9515332" lon="17.7262549">
        <ele>44.358</ele>
        <time>2014-06-11T20:15:03Z</time>
      </trkpt>
      <trkpt lat="59.9515072" lon="17.726298">
        <ele>44.8386</ele>
        <time>2014-06-11T20:15:04Z</time>
      </trkpt>
      <trkpt lat="59.9514827" lon="17.7263371">
        <ele>44.8386</ele>
        <time>2014-06-11T20:15:05Z</time>
      </trkpt>
      <trkpt lat="59.9514589" lon="17.7263783">
        <ele>44.8386</ele>
        <time>2014-06-11T20:15:06Z</time>
      </trkpt>
      <trkpt lat="59.9514399" lon="17.7264232">
        <ele>44.8386</ele>
        <time>2014-06-11T20:15:07Z</time>
      </trkpt>
      <trkpt lat="59.9514262" lon="17.7264691">
        <ele>44.8386</ele>
        <time>2014-06-11T20:15:08Z</time>
      </trkpt>
      <trkpt lat="59.9514096" lon="17.7265101">
        <ele>44.8386</ele>
        <time>2014-06-11T20:15:09Z</time>
      </trkpt>
      <trkpt lat="59.9513966" lon="17.7265605">
        <ele>45.3192</ele>
        <time>2014-06-11T20:15:10Z</time>
      </trkpt>
      <trkpt lat="59.9513868" lon="17.7266086">
        <ele>44.8386</ele>
        <time>2014-06-11T20:15:11Z</time>
      </trkpt>
      <trkpt lat="59.9513795" lon="17.7266646">
        <ele>45.3192</ele>
        <time>2014-06-11T20:15:12Z</time>
      </trkpt>
      <trkpt lat="59.9513805" lon="17.7267268">
        <ele>45.7999</ele>
        <time>2014-06-11T20:15:13Z</time>
      </trkpt>
      <trkpt lat="59.9513873" lon="17.7267764">
        <ele>46.2806</ele>
        <time>2014-06-11T20:15:14Z</time>
      </trkpt>
      <trkpt lat="59.9513957" lon="17.7268185">
        <ele>46.7612</ele>
        <time>2014-06-11T20:15:15Z</time>
      </trkpt>
      <trkpt lat="59.9514083" lon="17.7268712">
        <ele>47.2418</ele>
        <time>2014-06-11T20:15:16Z</time>
      </trkpt>
      <trkpt lat="59.9514214" lon="17.7269247">
        <ele>48.2034</ele>
        <time>2014-06-11T20:15:17Z</time>
      </trkpt>
      <trkpt lat="59.9514333" lon="17.7269837">
        <ele>49.6453</ele>
        <time>2014-06-11T20:15:18Z</time>
      </trkpt>
      <trkpt lat="59.9514381" lon="17.7270372">
        <ele>49.1646</ele>
        <time>2014-06-11T20:15:19Z</time>
      </trkpt>
      <trkpt lat="59.9514427" lon="17.7270909">
        <ele>48.684</ele>
        <time>2014-06-11T20:15:20Z</time>
      </trkpt>
      <trkpt lat="59.951443" lon="17.7271254">
        <ele>48.2034</ele>
        <time>2014-06-11T20:15:21Z</time>
      </trkpt>
      <trkpt lat="59.9514452" lon="17.7271583">
        <ele>48.2034</ele>
        <time>2014-06-11T20:15:22Z</time>
      </trkpt>
      <trkpt lat="59.9514426" lon="17.7272023">
        <ele>48.2034</ele>
        <time>2014-06-11T20:15:23Z</time>
      </trkpt>
      <trkpt lat="59.9514436" lon="17.7272577">
        <ele>48.684</ele>
        <time>2014-06-11T20:15:24Z</time>
      </trkpt>
      <trkpt lat="59.9514515" lon="17.7273065">
        <ele>48.684</ele>
        <time>2014-06-11T20:15:25Z</time>
      </trkpt>
      <trkpt lat="59.9514567" lon="17.7273536">
        <ele>48.2034</ele>
        <time>2014-06-11T20:15:26Z</time>
      </trkpt>
      <trkpt lat="59.9514628" lon="17.7274095">
        <ele>48.2034</ele>
        <time>2014-06-11T20:15:27Z</time>
      </trkpt>
      <trkpt lat="59.9514746" lon="17.7274795">
        <ele>48.2034</ele>
        <time>2014-06-11T20:15:28Z</time>
      </trkpt>
      <trkpt lat="59.9514848" lon="17.7275379">
        <ele>47.7225</ele>
        <time>2014-06-11T20:15:29Z</time>
      </trkpt>
      <trkpt lat="59.9514898" lon="17.7275903">
        <ele>47.2418</ele>
        <time>2014-06-11T20:15:30Z</time>
      </trkpt>
      <trkpt lat="59.9515038" lon="17.7276431">
        <ele>47.2418</ele>
        <time>2014-06-11T20:15:31Z</time>
      </trkpt>
      <trkpt lat="59.9515204" lon="17.7276927">
        <ele>46.7612</ele>
        <time>2014-06-11T20:15:32Z</time>
      </trkpt>
      <trkpt lat="59.9515409" lon="17.7277379">
        <ele>46.7612</ele>
        <time>2014-06-11T20:15:33Z</time>
      </trkpt>
      <trkpt lat="59.9515603" lon="17.727774">
        <ele>46.7612</ele>
        <time>2014-06-11T20:15:34Z</time>
      </trkpt>
      <trkpt lat="59.9515852" lon="17.7277989">
        <ele>46.7612</ele>
        <time>2014-06-11T20:15:35Z</time>
      </trkpt>
      <trkpt lat="59.95161" lon="17.7278201">
        <ele>46.7612</ele>
        <time>2014-06-11T20:15:36Z</time>
      </trkpt>
      <trkpt lat="59.9516293" lon="17.727836">
        <ele>46.2806</ele>
        <time>2014-06-11T20:15:37Z</time>
      </trkpt>
      <trkpt lat="59.9516585" lon="17.7278492">
        <ele>46.7612</ele>
        <time>2014-06-11T20:15:38Z</time>
      </trkpt>
      <trkpt lat="59.9516919" lon="17.727867">
        <ele>47.7225</ele>
        <time>2014-06-11T20:15:39Z</time>
      </trkpt>
      <trkpt lat="59.9517182" lon="17.7278783">
        <ele>47.2418</ele>
        <time>2014-06-11T20:15:40Z</time>
      </trkpt>
      <trkpt lat="59.9517426" lon="17.7278787">
        <ele>47.2418</ele>
        <time>2014-06-11T20:15:41Z</time>
      </trkpt>
      <trkpt lat="59.9517635" lon="17.7278784">
        <ele>47.7225</ele>
        <time>2014-06-11T20:15:42Z</time>
      </trkpt>
      <trkpt lat="59.9517841" lon="17.7278777">
        <ele>49.6453</ele>
        <time>2014-06-11T20:15:43Z</time>
      </trkpt>
      <trkpt lat="59.9518059" lon="17.7278696">
        <ele>50.126</ele>
        <time>2014-06-11T20:15:44Z</time>
      </trkpt>
      <trkpt lat="59.951831" lon="17.7278571">
        <ele>49.6453</ele>
        <time>2014-06-11T20:15:45Z</time>
      </trkpt>
      <trkpt lat="59.9518572" lon="17.7278432">
        <ele>50.126</ele>
        <time>2014-06-11T20:15:46Z</time>
      </trkpt>
      <trkpt lat="59.9518835" lon="17.7278181">
        <ele>49.1646</ele>
        <time>2014-06-11T20:15:47Z</time>
      </trkpt>
      <trkpt lat="59.9519087" lon="17.7277943">
        <ele>49.6453</ele>
        <time>2014-06-11T20:15:48Z</time>
      </trkpt>
      <trkpt lat="59.9519286" lon="17.7277583">
        <ele>49.1646</ele>
        <time>2014-06-11T20:15:49Z</time>
      </trkpt>
      <trkpt lat="59.9519452" lon="17.7277129">
        <ele>50.126</ele>
        <time>2014-06-11T20:15:50Z</time>
      </trkpt>
      <trkpt lat="59.951953" lon="17.727664">
        <ele>50.126</ele>
        <time>2014-06-11T20:15:51Z</time>
      </trkpt>
      <trkpt lat="59.9519633" lon="17.7276116">
        <ele>50.6066</ele>
        <time>2014-06-11T20:15:52Z</time>
      </trkpt>
      <trkpt lat="59.951983" lon="17.7275587">
        <ele>50.6066</ele>
        <time>2014-06-11T20:15:53Z</time>
      </trkpt>
      <trkpt lat="59.9520146" lon="17.7275028">
        <ele>52.0486</ele>
        <time>2014-06-11T20:15:54Z</time>
      </trkpt>
      <trkpt lat="59.9520289" lon="17.7274479">
        <ele>53.0098</ele>
        <time>2014-06-11T20:15:55Z</time>
      </trkpt>
      <trkpt lat="59.9520363" lon="17.7273819">
        <ele>54.9324</ele>
        <time>2014-06-11T20:15:56Z</time>
      </trkpt>
      <trkpt lat="59.9520281" lon="17.7273224">
        <ele>55.4131</ele>
        <time>2014-06-11T20:15:57Z</time>
      </trkpt>
      <trkpt lat="59.9520369" lon="17.7272622">
        <ele>55.4131</ele>
        <time>2014-06-11T20:15:58Z</time>
      </trkpt>
      <trkpt lat="59.952056" lon="17.7272099">
        <ele>55.4131</ele>
        <time>2014-06-11T20:15:59Z</time>
      </trkpt>
      <trkpt lat="59.9520607" lon="17.7271417">
        <ele>54.9324</ele>
        <time>2014-06-11T20:16:00Z</time>
      </trkpt>
      <trkpt lat="59.9520592" lon="17.727079">
        <ele>54.9324</ele>
        <time>2014-06-11T20:16:01Z</time>
      </trkpt>
      <trkpt lat="59.9520603" lon="17.7270364">
        <ele>54.4518</ele>
        <time>2014-06-11T20:16:02Z</time>
      </trkpt>
      <trkpt lat="59.9520577" lon="17.7269848">
        <ele>54.4518</ele>
        <time>2014-06-11T20:16:03Z</time>
      </trkpt>
      <trkpt lat="59.9520596" lon="17.7269421">
        <ele>54.4518</ele>
        <time>2014-06-11T20:16:04Z</time>
      </trkpt>
      <trkpt lat="59.9520556" lon="17.7268951">
        <ele>54.4518</ele>
        <time>2014-06-11T20:16:05Z</time>
      </trkpt>
      <trkpt lat="59.952052" lon="17.7268448">
        <ele>54.4518</ele>
        <time>2014-06-11T20:16:06Z</time>
      </trkpt>
      <trkpt lat="59.9520612" lon="17.7267993">
        <ele>54.4518</ele>
        <time>2014-06-11T20:16:07Z</time>
      </trkpt>
      <trkpt lat="59.9520677" lon="17.726749">
        <ele>53.9712</ele>
        <time>2014-06-11T20:16:08Z</time>
      </trkpt>
      <trkpt lat="59.9520762" lon="17.7267019">
        <ele>53.9712</ele>
        <time>2014-06-11T20:16:09Z</time>
      </trkpt>
      <trkpt lat="59.9520843" lon="17.7266563">
        <ele>53.9712</ele>
        <time>2014-06-11T20:16:10Z</time>
      </trkpt>
      <trkpt lat="59.9521006" lon="17.7266012">
        <ele>53.9712</ele>
        <time>2014-06-11T20:16:11Z</time>
      </trkpt>
      <trkpt lat="59.9521138" lon="17.7265525">
        <ele>53.9712</ele>
        <time>2014-06-11T20:16:12Z</time>
      </trkpt>
      <trkpt lat="59.9521254" lon="17.7265081">
        <ele>53.4905</ele>
        <time>2014-06-11T20:16:13Z</time>
      </trkpt>
      <trkpt lat="59.952139" lon="17.7264693">
        <ele>53.4905</ele>
        <time>2014-06-11T20:16:14Z</time>
      </trkpt>
      <trkpt lat="59.9521538" lon="17.7264381">
        <ele>53.0098</ele>
        <time>2014-06-11T20:16:15Z</time>
      </trkpt>
      <trkpt lat="59.9521734" lon="17.7263921">
        <ele>52.5292</ele>
        <time>2014-06-11T20:16:16Z</time>
      </trkpt>
      <trkpt lat="59.9521913" lon="17.7263454">
        <ele>52.0486</ele>
        <time>2014-06-11T20:16:17Z</time>
      </trkpt>
      <trkpt lat="59.9522038" lon="17.7262942">
        <ele>51.5679</ele>
        <time>2014-06-11T20:16:18Z</time>
      </trkpt>
      <trkpt lat="59.9522156" lon="17.7262548">
        <ele>50.6066</ele>
        <time>2014-06-11T20:16:19Z</time>
      </trkpt>
      <trkpt lat="59.9522306" lon="17.7262189">
        <ele>50.6066</ele>
        <time>2014-06-11T20:16:20Z</time>
      </trkpt>
      <trkpt lat="59.9522477" lon="17.7261855">
        <ele>50.126</ele>
        <time>2014-06-11T20:16:21Z</time>
      </trkpt>
      <trkpt lat="59.9522656" lon="17.72615">
        <ele>49.6453</ele>
        <time>2014-06-11T20:16:22Z</time>
      </trkpt>
      <trkpt lat="59.952277" lon="17.7261167">
        <ele>49.1646</ele>
        <time>2014-06-11T20:16:23Z</time>
      </trkpt>
      <trkpt lat="59.9522948" lon="17.7260813">
        <ele>49.1646</ele>
        <time>2014-06-11T20:16:24Z</time>
      </trkpt>
      <trkpt lat="59.952318" lon="17.726039">
        <ele>48.684</ele>
        <time>2014-06-11T20:16:25Z</time>
      </trkpt>
      <trkpt lat="59.9523369" lon="17.7260019">
        <ele>47.2418</ele>
        <time>2014-06-11T20:16:26Z</time>
      </trkpt>
      <trkpt lat="59.9523527" lon="17.7259683">
        <ele>46.7612</ele>
        <time>2014-06-11T20:16:27Z</time>
      </trkpt>
      <trkpt lat="59.9523705" lon="17.7259258">
        <ele>46.2806</ele>
        <time>2014-06-11T20:16:28Z</time>
      </trkpt>
      <trkpt lat="59.9523932" lon="17.7258715">
        <ele>45.7999</ele>
        <time>2014-06-11T20:16:29Z</time>
      </trkpt>
      <trkpt lat="59.9524087" lon="17.7258363">
        <ele>45.7999</ele>
        <time>2014-06-11T20:16:30Z</time>
      </trkpt>
      <trkpt lat="59.952419" lon="17.7258084">
        <ele>43.8773</ele>
        <time>2014-06-11T20:16:31Z</time>
      </trkpt>
      <trkpt lat="59.9524316" lon="17.7257814">
        <ele>43.3966</ele>
        <time>2014-06-11T20:16:32Z</time>
      </trkpt>
      <trkpt lat="59.952447" lon="17.7257556">
        <ele>42.916</ele>
        <time>2014-06-11T20:16:33Z</time>
      </trkpt>
      <trkpt lat="59.9524659" lon="17.7257312">
        <ele>42.4354</ele>
        <time>2014-06-11T20:16:34Z</time>
      </trkpt>
      <trkpt lat="59.9524816" lon="17.7257073">
        <ele>41.9547</ele>
        <time>2014-06-11T20:16:35Z</time>
      </trkpt>
      <trkpt lat="59.9524975" lon="17.725679">
        <ele>41.474</ele>
        <time>2014-06-11T20:16:36Z</time>
      </trkpt>
      <trkpt lat="59.952514" lon="17.7256457">
        <ele>41.474</ele>
        <time>2014-06-11T20:16:37Z</time>
      </trkpt>
      <trkpt lat="59.9525274" lon="17.7256116">
        <ele>41.474</ele>
        <time>2014-06-11T20:16:38Z</time>
      </trkpt>
      <trkpt lat="59.9525465" lon="17.7255776">
        <ele>41.474</ele>
        <time>2014-06-11T20:16:39Z</time>
      </trkpt>
      <trkpt lat="59.9525641" lon="17.7255468">
        <ele>41.474</ele>
        <time>2014-06-11T20:16:40Z</time>
      </trkpt>
      <trkpt lat="59.9525869" lon="17.7255137">
        <ele>41.9547</ele>
        <time>2014-06-11T20:16:41Z</time>
      </trkpt>
      <trkpt lat="59.9526077" lon="17.7254821">
        <ele>42.916</ele>
        <time>2014-06-11T20:16:42Z</time>
      </trkpt>
      <trkpt lat="59.9526236" lon="17.7254592">
        <ele>42.4354</ele>
        <time>2014-06-11T20:16:43Z</time>
      </trkpt>
      <trkpt lat="59.9526494" lon="17.7254338">
        <ele>43.3966</ele>
        <time>2014-06-11T20:16:44Z</time>
      </trkpt>
      <trkpt lat="59.9526673" lon="17.7254011">
        <ele>43.3966</ele>
        <time>2014-06-11T20:16:45Z</time>
      </trkpt>
      <trkpt lat="59.9526873" lon="17.7253678">
        <ele>44.358</ele>
        <time>2014-06-11T20:16:46Z</time>
      </trkpt>
      <trkpt lat="59.9527056" lon="17.7253479">
        <ele>44.358</ele>
        <time>2014-06-11T20:16:47Z</time>
      </trkpt>
      <trkpt lat="59.9527268" lon="17.7253262">
        <ele>44.8386</ele>
        <time>2014-06-11T20:16:48Z</time>
      </trkpt>
      <trkpt lat="59.9527427" lon="17.7252863">
        <ele>45.3192</ele>
        <time>2014-06-11T20:16:49Z</time>
      </trkpt>
      <trkpt lat="59.9527564" lon="17.7252418">
        <ele>46.2806</ele>
        <time>2014-06-11T20:16:50Z</time>
      </trkpt>
      <trkpt lat="59.9527658" lon="17.7251984">
        <ele>47.2418</ele>
        <time>2014-06-11T20:16:51Z</time>
      </trkpt>
      <trkpt lat="59.9527863" lon="17.72515">
        <ele>48.2034</ele>
        <time>2014-06-11T20:16:52Z</time>
      </trkpt>
      <trkpt lat="59.9528137" lon="17.7250998">
        <ele>49.1646</ele>
        <time>2014-06-11T20:16:53Z</time>
      </trkpt>
      <trkpt lat="59.9528398" lon="17.7250541">
        <ele>50.126</ele>
        <time>2014-06-11T20:16:54Z</time>
      </trkpt>
      <trkpt lat="59.9528688" lon="17.7250065">
        <ele>50.6066</ele>
        <time>2014-06-11T20:16:55Z</time>
      </trkpt>
      <trkpt lat="59.9528893" lon="17.7249703">
        <ele>50.126</ele>
        <time>2014-06-11T20:16:56Z</time>
      </trkpt>
      <trkpt lat="59.952907" lon="17.7249289">
        <ele>50.126</ele>
        <time>2014-06-11T20:16:57Z</time>
      </trkpt>
      <trkpt lat="59.9529325" lon="17.724888">
        <ele>51.0872</ele>
        <time>2014-06-11T20:16:58Z</time>
      </trkpt>
      <trkpt lat="59.9529497" lon="17.7248413">
        <ele>51.0872</ele>
        <time>2014-06-11T20:16:59Z</time>
      </trkpt>
      <trkpt lat="59.952974" lon="17.7248044">
        <ele>51.0872</ele>
        <time>2014-06-11T20:17:00Z</time>
      </trkpt>
      <trkpt lat="59.9529955" lon="17.7247733">
        <ele>50.6066</ele>
        <time>2014-06-11T20:17:01Z</time>
      </trkpt>
      <trkpt lat="59.9530149" lon="17.7247469">
        <ele>50.6066</ele>
        <time>2014-06-11T20:17:02Z</time>
      </trkpt>
      <trkpt lat="59.9530362" lon="17.7247256">
        <ele>51.0872</ele>
        <time>2014-06-11T20:17:03Z</time>
      </trkpt>
      <trkpt lat="59.9530561" lon="17.7247008">
        <ele>50.6066</ele>
        <time>2014-06-11T20:17:04Z</time>
      </trkpt>
      <trkpt lat="59.9530794" lon="17.7246701">
        <ele>50.6066</ele>
        <time>2014-06-11T20:17:05Z</time>
      </trkpt>
      <trkpt lat="59.9530996" lon="17.7246356">
        <ele>51.0872</ele>
        <time>2014-06-11T20:17:06Z</time>
      </trkpt>
      <trkpt lat="59.9531143" lon="17.7246009">
        <ele>51.0872</ele>
        <time>2014-06-11T20:17:07Z</time>
      </trkpt>
      <trkpt lat="59.9531307" lon="17.7245677">
        <ele>51.5679</ele>
        <time>2014-06-11T20:17:08Z</time>
      </trkpt>
      <trkpt lat="59.9531426" lon="17.7245346">
        <ele>51.0872</ele>
        <time>2014-06-11T20:17:09Z</time>
      </trkpt>
      <trkpt lat="59.9531563" lon="17.7245005">
        <ele>51.5679</ele>
        <time>2014-06-11T20:17:10Z</time>
      </trkpt>
      <trkpt lat="59.9531677" lon="17.7244603">
        <ele>52.0486</ele>
        <time>2014-06-11T20:17:11Z</time>
      </trkpt>
      <trkpt lat="59.9531809" lon="17.7244251">
        <ele>53.0098</ele>
        <time>2014-06-11T20:17:12Z</time>
      </trkpt>
      <trkpt lat="59.9531905" lon="17.7243924">
        <ele>53.0098</ele>
        <time>2014-06-11T20:17:13Z</time>
      </trkpt>
      <trkpt lat="59.9532076" lon="17.7243667">
        <ele>53.0098</ele>
        <time>2014-06-11T20:17:14Z</time>
      </trkpt>
      <trkpt lat="59.9532278" lon="17.7243389">
        <ele>53.4905</ele>
        <time>2014-06-11T20:17:15Z</time>
      </trkpt>
      <trkpt lat="59.9532505" lon="17.7243103">
        <ele>53.9712</ele>
        <time>2014-06-11T20:17:16Z</time>
      </trkpt>
      <trkpt lat="59.9532681" lon="17.7242772">
        <ele>53.9712</ele>
        <time>2014-06-11T20:17:17Z</time>
      </trkpt>
      <trkpt lat="59.9532911" lon="17.7242438">
        <ele>54.4518</ele>
        <time>2014-06-11T20:17:18Z</time>
      </trkpt>
      <trkpt lat="59.9533082" lon="17.724201">
        <ele>54.4518</ele>
        <time>2014-06-11T20:17:19Z</time>
      </trkpt>
      <trkpt lat="59.9533213" lon="17.7241581">
        <ele>54.9324</ele>
        <time>2014-06-11T20:17:20Z</time>
      </trkpt>
      <trkpt lat="59.9533366" lon="17.7241184">
        <ele>55.4131</ele>
        <time>2014-06-11T20:17:21Z</time>
      </trkpt>
      <trkpt lat="59.9533469" lon="17.7240668">
        <ele>56.3745</ele>
        <time>2014-06-11T20:17:22Z</time>
      </trkpt>
      <trkpt lat="59.9533634" lon="17.7240298">
        <ele>57.3358</ele>
        <time>2014-06-11T20:17:23Z</time>
      </trkpt>
      <trkpt lat="59.9533928" lon="17.7239982">
        <ele>59.2584</ele>
        <time>2014-06-11T20:17:24Z</time>
      </trkpt>
      <trkpt lat="59.9534206" lon="17.72396">
        <ele>60.7003</ele>
        <time>2014-06-11T20:17:25Z</time>
      </trkpt>
      <trkpt lat="59.9534442" lon="17.7239213">
        <ele>61.181</ele>
        <time>2014-06-11T20:17:26Z</time>
      </trkpt>
      <trkpt lat="59.9534764" lon="17.7238834">
        <ele>63.1036</ele>
        <time>2014-06-11T20:17:27Z</time>
      </trkpt>
      <trkpt lat="59.9535142" lon="17.7238507">
        <ele>65.5071</ele>
        <time>2014-06-11T20:17:28Z</time>
      </trkpt>
      <trkpt lat="59.953551" lon="17.7238081">
        <ele>67.4297</ele>
        <time>2014-06-11T20:17:29Z</time>
      </trkpt>
      <trkpt lat="59.9535822" lon="17.7237731">
        <ele>69.3523</ele>
        <time>2014-06-11T20:17:30Z</time>
      </trkpt>
      <trkpt lat="59.9536016" lon="17.7237373">
        <ele>69.8329</ele>
        <time>2014-06-11T20:17:31Z</time>
      </trkpt>
      <trkpt lat="59.9536199" lon="17.7237031">
        <ele>70.3135</ele>
        <time>2014-06-11T20:17:32Z</time>
      </trkpt>
      <trkpt lat="59.9536318" lon="17.7236732">
        <ele>69.3523</ele>
        <time>2014-06-11T20:17:33Z</time>
      </trkpt>
      <trkpt lat="59.9536433" lon="17.7236486">
        <ele>68.3909</ele>
        <time>2014-06-11T20:17:34Z</time>
      </trkpt>
      <trkpt lat="59.9536634" lon="17.7236244">
        <ele>68.3909</ele>
        <time>2014-06-11T20:17:35Z</time>
      </trkpt>
      <trkpt lat="59.9536888" lon="17.7235923">
        <ele>68.3909</ele>
        <time>2014-06-11T20:17:36Z</time>
      </trkpt>
      <trkpt lat="59.9537078" lon="17.7235598">
        <ele>67.4297</ele>
        <time>2014-06-11T20:17:37Z</time>
      </trkpt>
      <trkpt lat="59.9537194" lon="17.7235351">
        <ele>65.5071</ele>
        <time>2014-06-11T20:17:38Z</time>
      </trkpt>
      <trkpt lat="59.9537432" lon="17.7235128">
        <ele>65.5071</ele>
        <time>2014-06-11T20:17:39Z</time>
      </trkpt>
      <trkpt lat="59.9537713" lon="17.7234938">
        <ele>65.9877</ele>
        <time>2014-06-11T20:17:40Z</time>
      </trkpt>
      <trkpt lat="59.953788" lon="17.7234731">
        <ele>65.0264</ele>
        <time>2014-06-11T20:17:41Z</time>
      </trkpt>
      <trkpt lat="59.9538043" lon="17.7234478">
        <ele>63.5844</ele>
        <time>2014-06-11T20:17:42Z</time>
      </trkpt>
      <trkpt lat="59.9538219" lon="17.7234308">
        <ele>63.1036</ele>
        <time>2014-06-11T20:17:43Z</time>
      </trkpt>
      <trkpt lat="59.9538421" lon="17.7234199">
        <ele>62.6229</ele>
        <time>2014-06-11T20:17:44Z</time>
      </trkpt>
      <trkpt lat="59.9538685" lon="17.7233981">
        <ele>62.6229</ele>
        <time>2014-06-11T20:17:45Z</time>
      </trkpt>
      <trkpt lat="59.9538899" lon="17.7233764">
        <ele>61.6617</ele>
        <time>2014-06-11T20:17:46Z</time>
      </trkpt>
      <trkpt lat="59.9539078" lon="17.7233597">
        <ele>60.7003</ele>
        <time>2014-06-11T20:17:47Z</time>
      </trkpt>
      <trkpt lat="59.9539276" lon="17.7233435">
        <ele>60.7003</ele>
        <time>2014-06-11T20:17:48Z</time>
      </trkpt>
      <trkpt lat="59.9539494" lon="17.7233207">
        <ele>60.2197</ele>
        <time>2014-06-11T20:17:49Z</time>
      </trkpt>
      <trkpt lat="59.9539697" lon="17.7232893">
        <ele>59.7391</ele>
        <time>2014-06-11T20:17:50Z</time>
      </trkpt>
      <trkpt lat="59.9539903" lon="17.7232665">
        <ele>59.2584</ele>
        <time>2014-06-11T20:17:51Z</time>
      </trkpt>
      <trkpt lat="59.9540084" lon="17.7232412">
        <ele>58.2971</ele>
        <time>2014-06-11T20:17:52Z</time>
      </trkpt>
      <trkpt lat="59.9540301" lon="17.7232281">
        <ele>57.8165</ele>
        <time>2014-06-11T20:17:53Z</time>
      </trkpt>
      <trkpt lat="59.9540496" lon="17.723221">
        <ele>56.3745</ele>
        <time>2014-06-11T20:17:54Z</time>
      </trkpt>
      <trkpt lat="59.9540746" lon="17.7232209">
        <ele>56.3745</ele>
        <time>2014-06-11T20:17:55Z</time>
      </trkpt>
      <trkpt lat="59.9540955" lon="17.7232104">
        <ele>56.3745</ele>
        <time>2014-06-11T20:17:56Z</time>
      </trkpt>
      <trkpt lat="59.9541274" lon="17.723198">
        <ele>57.8165</ele>
        <time>2014-06-11T20:17:57Z</time>
      </trkpt>
      <trkpt lat="59.9541514" lon="17.72318">
        <ele>58.2971</ele>
        <time>2014-06-11T20:17:58Z</time>
      </trkpt>
      <trkpt lat="59.9541879" lon="17.7231773">
        <ele>59.2584</ele>
        <time>2014-06-11T20:17:59Z</time>
      </trkpt>
      <trkpt lat="59.9542222" lon="17.7231901">
        <ele>60.2197</ele>
        <time>2014-06-11T20:18:00Z</time>
      </trkpt>
      <trkpt lat="59.9542524" lon="17.723213">
        <ele>60.7003</ele>
        <time>2014-06-11T20:18:01Z</time>
      </trkpt>
      <trkpt lat="59.954271" lon="17.7232199">
        <ele>61.181</ele>
        <time>2014-06-11T20:18:02Z</time>
      </trkpt>
      <trkpt lat="59.9542943" lon="17.7232359">
        <ele>60.7003</ele>
        <time>2014-06-11T20:18:03Z</time>
      </trkpt>
      <trkpt lat="59.9543177" lon="17.7232469">
        <ele>60.7003</ele>
        <time>2014-06-11T20:18:04Z</time>
      </trkpt>
      <trkpt lat="59.9543428" lon="17.7232573">
        <ele>60.7003</ele>
        <time>2014-06-11T20:18:05Z</time>
      </trkpt>
      <trkpt lat="59.9543708" lon="17.7232731">
        <ele>61.181</ele>
        <time>2014-06-11T20:18:06Z</time>
      </trkpt>
      <trkpt lat="59.9544108" lon="17.7232882">
        <ele>63.1036</ele>
        <time>2014-06-11T20:18:07Z</time>
      </trkpt>
      <trkpt lat="59.9544487" lon="17.7232986">
        <ele>64.0651</ele>
        <time>2014-06-11T20:18:08Z</time>
      </trkpt>
      <trkpt lat="59.9544787" lon="17.7233069">
        <ele>64.0651</ele>
        <time>2014-06-11T20:18:09Z</time>
      </trkpt>
      <trkpt lat="59.9545243" lon="17.7233319">
        <ele>66.4683</ele>
        <time>2014-06-11T20:18:10Z</time>
      </trkpt>
      <trkpt lat="59.9545563" lon="17.723367">
        <ele>67.4297</ele>
        <time>2014-06-11T20:18:11Z</time>
      </trkpt>
      <trkpt lat="59.954583" lon="17.723389">
        <ele>67.9103</ele>
        <time>2014-06-11T20:18:12Z</time>
      </trkpt>
      <trkpt lat="59.9546062" lon="17.7234057">
        <ele>68.3909</ele>
        <time>2014-06-11T20:18:13Z</time>
      </trkpt>
      <trkpt lat="59.954645" lon="17.723426">
        <ele>69.3523</ele>
        <time>2014-06-11T20:18:14Z</time>
      </trkpt>
      <trkpt lat="59.9546776" lon="17.7234565">
        <ele>70.7942</ele>
        <time>2014-06-11T20:18:15Z</time>
      </trkpt>
      <trkpt lat="59.9547119" lon="17.7234852">
        <ele>72.2362</ele>
        <time>2014-06-11T20:18:16Z</time>
      </trkpt>
      <trkpt lat="59.9547367" lon="17.7235063">
        <ele>73.1976</ele>
        <time>2014-06-11T20:18:17Z</time>
      </trkpt>
      <trkpt lat="59.9547698" lon="17.7235255">
        <ele>74.6395</ele>
        <time>2014-06-11T20:18:18Z</time>
      </trkpt>
      <trkpt lat="59.9548008" lon="17.7235544">
        <ele>76.0814</ele>
        <time>2014-06-11T20:18:19Z</time>
      </trkpt>
      <trkpt lat="59.95483" lon="17.7235808">
        <ele>76.5621</ele>
        <time>2014-06-11T20:18:20Z</time>
      </trkpt>
      <trkpt lat="59.9548552" lon="17.7236239">
        <ele>77.5234</ele>
        <time>2014-06-11T20:18:21Z</time>
      </trkpt>
      <trkpt lat="59.954873" lon="17.7236342">
        <ele>77.0428</ele>
        <time>2014-06-11T20:18:22Z</time>
      </trkpt>
      <trkpt lat="59.9549045" lon="17.7236509">
        <ele>76.5621</ele>
        <time>2014-06-11T20:18:23Z</time>
      </trkpt>
      <trkpt lat="59.9549455" lon="17.7236606">
        <ele>77.5234</ele>
        <time>2014-06-11T20:18:24Z</time>
      </trkpt>
      <trkpt lat="59.9549697" lon="17.7236673">
        <ele>77.0428</ele>
        <time>2014-06-11T20:18:25Z</time>
      </trkpt>
      <trkpt lat="59.9550003" lon="17.7236679">
        <ele>76.0814</ele>
        <time>2014-06-11T20:18:26Z</time>
      </trkpt>
      <trkpt lat="59.9550443" lon="17.723676">
        <ele>77.0428</ele>
        <time>2014-06-11T20:18:27Z</time>
      </trkpt>
      <trkpt lat="59.9550812" lon="17.7236796">
        <ele>77.0428</ele>
        <time>2014-06-11T20:18:28Z</time>
      </trkpt>
      <trkpt lat="59.9551105" lon="17.7236762">
        <ele>76.5621</ele>
        <time>2014-06-11T20:18:29Z</time>
      </trkpt>
      <trkpt lat="59.9551195" lon="17.7236669">
        <ele>73.6782</ele>
        <time>2014-06-11T20:18:30Z</time>
      </trkpt>
      <trkpt lat="59.9551372" lon="17.7236511">
        <ele>72.2362</ele>
        <time>2014-06-11T20:18:31Z</time>
      </trkpt>
      <trkpt lat="59.9551549" lon="17.7236261">
        <ele>70.7942</ele>
        <time>2014-06-11T20:18:32Z</time>
      </trkpt>
      <trkpt lat="59.9551761" lon="17.7236048">
        <ele>69.3523</ele>
        <time>2014-06-11T20:18:33Z</time>
      </trkpt>
      <trkpt lat="59.9551868" lon="17.7235907">
        <ele>67.4297</ele>
        <time>2014-06-11T20:18:34Z</time>
      </trkpt>
      <trkpt lat="59.9551984" lon="17.7235698">
        <ele>65.9877</ele>
        <time>2014-06-11T20:18:35Z</time>
      </trkpt>
      <trkpt lat="59.9552066" lon="17.7235421">
        <ele>63.5844</ele>
        <time>2014-06-11T20:18:36Z</time>
      </trkpt>
      <trkpt lat="59.9552206" lon="17.7235213">
        <ele>62.1423</ele>
        <time>2014-06-11T20:18:37Z</time>
      </trkpt>
      <trkpt lat="59.9552298" lon="17.723497">
        <ele>59.7391</ele>
        <time>2014-06-11T20:18:38Z</time>
      </trkpt>
      <trkpt lat="59.9552489" lon="17.723488">
        <ele>59.7391</ele>
        <time>2014-06-11T20:18:39Z</time>
      </trkpt>
      <trkpt lat="59.9552696" lon="17.7234706">
        <ele>59.7391</ele>
        <time>2014-06-11T20:18:40Z</time>
      </trkpt>
      <trkpt lat="59.955303" lon="17.7234489">
        <ele>60.7003</ele>
        <time>2014-06-11T20:18:41Z</time>
      </trkpt>
      <trkpt lat="59.9553335" lon="17.7234346">
        <ele>61.181</ele>
        <time>2014-06-11T20:18:42Z</time>
      </trkpt>
      <trkpt lat="59.9553576" lon="17.7234254">
        <ele>60.7003</ele>
        <time>2014-06-11T20:18:43Z</time>
      </trkpt>
      <trkpt lat="59.9553987" lon="17.7234238">
        <ele>62.1423</ele>
        <time>2014-06-11T20:18:44Z</time>
      </trkpt>
      <trkpt lat="59.9554367" lon="17.7234206">
        <ele>63.1036</ele>
        <time>2014-06-11T20:18:45Z</time>
      </trkpt>
      <trkpt lat="59.9554702" lon="17.7234201">
        <ele>64.0651</ele>
        <time>2014-06-11T20:18:46Z</time>
      </trkpt>
      <trkpt lat="59.9554907" lon="17.7234296">
        <ele>64.0651</ele>
        <time>2014-06-11T20:18:47Z</time>
      </trkpt>
      <trkpt lat="59.9555189" lon="17.7234329">
        <ele>64.5457</ele>
        <time>2014-06-11T20:18:48Z</time>
      </trkpt>
      <trkpt lat="59.9555412" lon="17.7234302">
        <ele>65.5071</ele>
        <time>2014-06-11T20:18:49Z</time>
      </trkpt>
      <trkpt lat="59.955563" lon="17.7234372">
        <ele>66.4683</ele>
        <time>2014-06-11T20:18:50Z</time>
      </trkpt>
      <trkpt lat="59.955591" lon="17.7234519">
        <ele>67.9103</ele>
        <time>2014-06-11T20:18:51Z</time>
      </trkpt>
      <trkpt lat="59.9556208" lon="17.7234649">
        <ele>69.3523</ele>
        <time>2014-06-11T20:18:52Z</time>
      </trkpt>
      <trkpt lat="59.9556487" lon="17.7234712">
        <ele>70.3135</ele>
        <time>2014-06-11T20:18:53Z</time>
      </trkpt>
      <trkpt lat="59.9556752" lon="17.7234743">
        <ele>69.3523</ele>
        <time>2014-06-11T20:18:54Z</time>
      </trkpt>
      <trkpt lat="59.9557101" lon="17.7234906">
        <ele>70.3135</ele>
        <time>2014-06-11T20:18:55Z</time>
      </trkpt>
      <trkpt lat="59.9557456" lon="17.7235084">
        <ele>71.2749</ele>
        <time>2014-06-11T20:18:56Z</time>
      </trkpt>
      <trkpt lat="59.9557676" lon="17.7235387">
        <ele>69.8329</ele>
        <time>2014-06-11T20:18:57Z</time>
      </trkpt>
      <trkpt lat="59.9557872" lon="17.7235678">
        <ele>68.8716</ele>
        <time>2014-06-11T20:18:58Z</time>
      </trkpt>
      <trkpt lat="59.9558054" lon="17.7235908">
        <ele>68.3909</ele>
        <time>2014-06-11T20:18:59Z</time>
      </trkpt>
      <trkpt lat="59.9558207" lon="17.7236116">
        <ele>66.949</ele>
        <time>2014-06-11T20:19:00Z</time>
      </trkpt>
      <trkpt lat="59.9558404" lon="17.7236356">
        <ele>66.4683</ele>
        <time>2014-06-11T20:19:01Z</time>
      </trkpt>
      <trkpt lat="59.9558629" lon="17.7236511">
        <ele>65.9877</ele>
        <time>2014-06-11T20:19:02Z</time>
      </trkpt>
      <trkpt lat="59.9558844" lon="17.7236589">
        <ele>64.5457</ele>
        <time>2014-06-11T20:19:03Z</time>
      </trkpt>
      <trkpt lat="59.955912" lon="17.7236548">
        <ele>64.5457</ele>
        <time>2014-06-11T20:19:04Z</time>
      </trkpt>
      <trkpt lat="59.9559347" lon="17.7236494">
        <ele>65.0264</ele>
        <time>2014-06-11T20:19:05Z</time>
      </trkpt>
      <trkpt lat="59.9559446" lon="17.7236348">
        <ele>63.5844</ele>
        <time>2014-06-11T20:19:06Z</time>
      </trkpt>
      <trkpt lat="59.9559578" lon="17.7236069">
        <ele>62.1423</ele>
        <time>2014-06-11T20:19:07Z</time>
      </trkpt>
      <trkpt lat="59.9559815" lon="17.7235738">
        <ele>62.1423</ele>
        <time>2014-06-11T20:19:08Z</time>
      </trkpt>
      <trkpt lat="59.9559979" lon="17.7235415">
        <ele>61.6617</ele>
        <time>2014-06-11T20:19:09Z</time>
      </trkpt>
      <trkpt lat="59.9560074" lon="17.723498">
        <ele>61.181</ele>
        <time>2014-06-11T20:19:10Z</time>
      </trkpt>
      <trkpt lat="59.9560214" lon="17.7234543">
        <ele>60.7003</ele>
        <time>2014-06-11T20:19:11Z</time>
      </trkpt>
      <trkpt lat="59.95603" lon="17.7234182">
        <ele>59.2584</ele>
        <time>2014-06-11T20:19:12Z</time>
      </trkpt>
      <trkpt lat="59.956038" lon="17.7233788">
        <ele>58.2971</ele>
        <time>2014-06-11T20:19:13Z</time>
      </trkpt>
      <trkpt lat="59.9560411" lon="17.7233311">
        <ele>57.3358</ele>
        <time>2014-06-11T20:19:14Z</time>
      </trkpt>
      <trkpt lat="59.9560488" lon="17.723281">
        <ele>57.3358</ele>
        <time>2014-06-11T20:19:15Z</time>
      </trkpt>
      <trkpt lat="59.9560626" lon="17.7232342">
        <ele>57.8165</ele>
        <time>2014-06-11T20:19:16Z</time>
      </trkpt>
      <trkpt lat="59.9560644" lon="17.7231829">
        <ele>56.8551</ele>
        <time>2014-06-11T20:19:17Z</time>
      </trkpt>
      <trkpt lat="59.9560645" lon="17.723119">
        <ele>55.8938</ele>
        <time>2014-06-11T20:19:18Z</time>
      </trkpt>
      <trkpt lat="59.9560633" lon="17.723058">
        <ele>55.8938</ele>
        <time>2014-06-11T20:19:19Z</time>
      </trkpt>
      <trkpt lat="59.956065" lon="17.7230059">
        <ele>55.8938</ele>
        <time>2014-06-11T20:19:20Z</time>
      </trkpt>
      <trkpt lat="59.9560663" lon="17.7229604">
        <ele>55.8938</ele>
        <time>2014-06-11T20:19:21Z</time>
      </trkpt>
      <trkpt lat="59.9560758" lon="17.7229092">
        <ele>55.4131</ele>
        <time>2014-06-11T20:19:22Z</time>
      </trkpt>
      <trkpt lat="59.9560758" lon="17.7228578">
        <ele>54.9324</ele>
        <time>2014-06-11T20:19:23Z</time>
      </trkpt>
      <trkpt lat="59.956068" lon="17.7228071">
        <ele>54.9324</ele>
        <time>2014-06-11T20:19:24Z</time>
      </trkpt>
      <trkpt lat="59.9560585" lon="17.7227488">
        <ele>54.4518</ele>
        <time>2014-06-11T20:19:25Z</time>
      </trkpt>
      <trkpt lat="59.9560448" lon="17.7226842">
        <ele>53.9712</ele>
        <time>2014-06-11T20:19:26Z</time>
      </trkpt>
      <trkpt lat="59.9560365" lon="17.7226308">
        <ele>53.4905</ele>
        <time>2014-06-11T20:19:27Z</time>
      </trkpt>
      <trkpt lat="59.9560295" lon="17.722589">
        <ele>53.4905</ele>
        <time>2014-06-11T20:19:28Z</time>
      </trkpt>
      <trkpt lat="59.9560261" lon="17.7225449">
        <ele>53.4905</ele>
        <time>2014-06-11T20:19:29Z</time>
      </trkpt>
      <trkpt lat="59.9560214" lon="17.7224997">
        <ele>53.9712</ele>
        <time>2014-06-11T20:19:30Z</time>
      </trkpt>
      <trkpt lat="59.9560114" lon="17.7224566">
        <ele>53.4905</ele>
        <time>2014-06-11T20:19:31Z</time>
      </trkpt>
      <trkpt lat="59.9560069" lon="17.7224137">
        <ele>53.4905</ele>
        <time>2014-06-11T20:19:32Z</time>
      </trkpt>
      <trkpt lat="59.9559935" lon="17.7223675">
        <ele>53.0098</ele>
        <time>2014-06-11T20:19:33Z</time>
      </trkpt>
      <trkpt lat="59.9559834" lon="17.722318">
        <ele>53.4905</ele>
        <time>2014-06-11T20:19:34Z</time>
      </trkpt>
      <trkpt lat="59.9559735" lon="17.7222642">
        <ele>53.9712</ele>
        <time>2014-06-11T20:19:35Z</time>
      </trkpt>
      <trkpt lat="59.9559624" lon="17.722218">
        <ele>54.9324</ele>
        <time>2014-06-11T20:19:36Z</time>
      </trkpt>
      <trkpt lat="59.9559561" lon="17.7221632">
        <ele>55.4131</ele>
        <time>2014-06-11T20:19:37Z</time>
      </trkpt>
      <trkpt lat="59.9559467" lon="17.7221129">
        <ele>55.8938</ele>
        <time>2014-06-11T20:19:38Z</time>
      </trkpt>
      <trkpt lat="59.9559404" lon="17.7220694">
        <ele>55.8938</ele>
        <time>2014-06-11T20:19:39Z</time>
      </trkpt>
      <trkpt lat="59.9559395" lon="17.7220201">
        <ele>56.8551</ele>
        <time>2014-06-11T20:19:40Z</time>
      </trkpt>
      <trkpt lat="59.9559473" lon="17.7219615">
        <ele>58.2971</ele>
        <time>2014-06-11T20:19:41Z</time>
      </trkpt>
      <trkpt lat="59.9559535" lon="17.7218993">
        <ele>58.7777</ele>
        <time>2014-06-11T20:19:42Z</time>
      </trkpt>
      <trkpt lat="59.9559576" lon="17.721841">
        <ele>58.2971</ele>
        <time>2014-06-11T20:19:43Z</time>
      </trkpt>
      <trkpt lat="59.955971" lon="17.7217874">
        <ele>57.8165</ele>
        <time>2014-06-11T20:19:44Z</time>
      </trkpt>
      <trkpt lat="59.9559891" lon="17.7217373">
        <ele>57.8165</ele>
        <time>2014-06-11T20:19:45Z</time>
      </trkpt>
      <trkpt lat="59.9560106" lon="17.7216839">
        <ele>58.7777</ele>
        <time>2014-06-11T20:19:46Z</time>
      </trkpt>
      <trkpt lat="59.9560281" lon="17.7216333">
        <ele>59.7391</ele>
        <time>2014-06-11T20:19:47Z</time>
      </trkpt>
      <trkpt lat="59.956027" lon="17.7215835">
        <ele>60.7003</ele>
        <time>2014-06-11T20:19:48Z</time>
      </trkpt>
      <trkpt lat="59.9560258" lon="17.7215321">
        <ele>62.1423</ele>
        <time>2014-06-11T20:19:49Z</time>
      </trkpt>
      <trkpt lat="59.9560198" lon="17.7214887">
        <ele>62.1423</ele>
        <time>2014-06-11T20:19:50Z</time>
      </trkpt>
      <trkpt lat="59.95601" lon="17.7214488">
        <ele>61.6617</ele>
        <time>2014-06-11T20:19:51Z</time>
      </trkpt>
      <trkpt lat="59.9560015" lon="17.7214156">
        <ele>61.181</ele>
        <time>2014-06-11T20:19:52Z</time>
      </trkpt>
      <trkpt lat="59.9559942" lon="17.7213714">
        <ele>61.6617</ele>
        <time>2014-06-11T20:19:53Z</time>
      </trkpt>
      <trkpt lat="59.9559958" lon="17.7213213">
        <ele>62.6229</ele>
        <time>2014-06-11T20:19:54Z</time>
      </trkpt>
      <trkpt lat="59.9559845" lon="17.7212823">
        <ele>62.6229</ele>
        <time>2014-06-11T20:19:55Z</time>
      </trkpt>
      <trkpt lat="59.9559694" lon="17.7212659">
        <ele>62.1423</ele>
        <time>2014-06-11T20:19:56Z</time>
      </trkpt>
      <trkpt lat="59.9559468" lon="17.7212624">
        <ele>61.181</ele>
        <time>2014-06-11T20:19:57Z</time>
      </trkpt>
      <trkpt lat="59.9559254" lon="17.7212742">
        <ele>60.7003</ele>
        <time>2014-06-11T20:19:58Z</time>
      </trkpt>
      <trkpt lat="59.9559027" lon="17.7212809">
        <ele>60.2197</ele>
        <time>2014-06-11T20:19:59Z</time>
      </trkpt>
      <trkpt lat="59.9558727" lon="17.7212851">
        <ele>59.2584</ele>
        <time>2014-06-11T20:20:00Z</time>
      </trkpt>
      <trkpt lat="59.9558378" lon="17.7212862">
        <ele>59.2584</ele>
        <time>2014-06-11T20:20:01Z</time>
      </trkpt>
      <trkpt lat="59.9558133" lon="17.7213077">
        <ele>58.7777</ele>
        <time>2014-06-11T20:20:02Z</time>
      </trkpt>
      <trkpt lat="59.9557919" lon="17.7213421">
        <ele>58.7777</ele>
        <time>2014-06-11T20:20:03Z</time>
      </trkpt>
      <trkpt lat="59.9557748" lon="17.7213664">
        <ele>59.2584</ele>
        <time>2014-06-11T20:20:04Z</time>
      </trkpt>
      <trkpt lat="59.9557585" lon="17.7213893">
        <ele>60.7003</ele>
        <time>2014-06-11T20:20:05Z</time>
      </trkpt>
      <trkpt lat="59.9557281" lon="17.7214165">
        <ele>60.7003</ele>
        <time>2014-06-11T20:20:06Z</time>
      </trkpt>
      <trkpt lat="59.9556938" lon="17.7214312">
        <ele>61.6617</ele>
        <time>2014-06-11T20:20:07Z</time>
      </trkpt>
      <trkpt lat="59.9556614" lon="17.721438">
        <ele>61.6617</ele>
        <time>2014-06-11T20:20:08Z</time>
      </trkpt>
      <trkpt lat="59.9556306" lon="17.7214471">
        <ele>61.181</ele>
        <time>2014-06-11T20:20:09Z</time>
      </trkpt>
      <trkpt lat="59.9555929" lon="17.7214534">
        <ele>61.6617</ele>
        <time>2014-06-11T20:20:10Z</time>
      </trkpt>
      <trkpt lat="59.9555597" lon="17.7214706">
        <ele>61.6617</ele>
        <time>2014-06-11T20:20:11Z</time>
      </trkpt>
      <trkpt lat="59.9555306" lon="17.7214799">
        <ele>62.1423</ele>
        <time>2014-06-11T20:20:12Z</time>
      </trkpt>
      <trkpt lat="59.9554982" lon="17.7214704">
        <ele>62.6229</ele>
        <time>2014-06-11T20:20:13Z</time>
      </trkpt>
      <trkpt lat="59.9554633" lon="17.7214539">
        <ele>62.6229</ele>
        <time>2014-06-11T20:20:14Z</time>
      </trkpt>
      <trkpt lat="59.9554282" lon="17.7214379">
        <ele>62.6229</ele>
        <time>2014-06-11T20:20:15Z</time>
      </trkpt>
      <trkpt lat="59.9553959" lon="17.7214203">
        <ele>62.6229</ele>
        <time>2014-06-11T20:20:16Z</time>
      </trkpt>
      <trkpt lat="59.9553535" lon="17.7214087">
        <ele>64.0651</ele>
        <time>2014-06-11T20:20:17Z</time>
      </trkpt>
      <trkpt lat="59.9553164" lon="17.7213908">
        <ele>65.5071</ele>
        <time>2014-06-11T20:20:18Z</time>
      </trkpt>
      <trkpt lat="59.9552931" lon="17.7213809">
        <ele>65.9877</ele>
        <time>2014-06-11T20:20:19Z</time>
      </trkpt>
      <trkpt lat="59.9552651" lon="17.7213731">
        <ele>66.4683</ele>
        <time>2014-06-11T20:20:20Z</time>
      </trkpt>
      <trkpt lat="59.9552468" lon="17.7213706">
        <ele>65.9877</ele>
        <time>2014-06-11T20:20:21Z</time>
      </trkpt>
      <trkpt lat="59.955231" lon="17.721371">
        <ele>66.4683</ele>
        <time>2014-06-11T20:20:22Z</time>
      </trkpt>
      <trkpt lat="59.9552075" lon="17.7213722">
        <ele>66.949</ele>
        <time>2014-06-11T20:20:23Z</time>
      </trkpt>
      <trkpt lat="59.9551805" lon="17.7213695">
        <ele>67.4297</ele>
        <time>2014-06-11T20:20:24Z</time>
      </trkpt>
      <trkpt lat="59.9551578" lon="17.7213659">
        <ele>66.949</ele>
        <time>2014-06-11T20:20:25Z</time>
      </trkpt>
      <trkpt lat="59.9551411" lon="17.7213803">
        <ele>66.949</ele>
        <time>2014-06-11T20:20:26Z</time>
      </trkpt>
      <trkpt lat="59.9551229" lon="17.7213768">
        <ele>66.4683</ele>
        <time>2014-06-11T20:20:27Z</time>
      </trkpt>
      <trkpt lat="59.9551" lon="17.7213762">
        <ele>65.9877</ele>
        <time>2014-06-11T20:20:28Z</time>
      </trkpt>
      <trkpt lat="59.9550692" lon="17.7213792">
        <ele>66.4683</ele>
        <time>2014-06-11T20:20:29Z</time>
      </trkpt>
      <trkpt lat="59.9550391" lon="17.7213678">
        <ele>65.9877</ele>
        <time>2014-06-11T20:20:30Z</time>
      </trkpt>
      <trkpt lat="59.9550118" lon="17.7213618">
        <ele>65.5071</ele>
        <time>2014-06-11T20:20:31Z</time>
      </trkpt>
      <trkpt lat="59.9549895" lon="17.7213503">
        <ele>65.0264</ele>
        <time>2014-06-11T20:20:32Z</time>
      </trkpt>
      <trkpt lat="59.9549702" lon="17.7213312">
        <ele>64.0651</ele>
        <time>2014-06-11T20:20:33Z</time>
      </trkpt>
      <trkpt lat="59.9549475" lon="17.7213182">
        <ele>63.5844</ele>
        <time>2014-06-11T20:20:34Z</time>
      </trkpt>
      <trkpt lat="59.9549259" lon="17.7213131">
        <ele>63.1036</ele>
        <time>2014-06-11T20:20:35Z</time>
      </trkpt>
      <trkpt lat="59.9549082" lon="17.7213032">
        <ele>62.6229</ele>
        <time>2014-06-11T20:20:36Z</time>
      </trkpt>
      <trkpt lat="59.9548961" lon="17.7212763">
        <ele>62.6229</ele>
        <time>2014-06-11T20:20:37Z</time>
      </trkpt>
      <trkpt lat="59.9548833" lon="17.7212467">
        <ele>62.6229</ele>
        <time>2014-06-11T20:20:38Z</time>
      </trkpt>
      <trkpt lat="59.9548702" lon="17.7212126">
        <ele>62.1423</ele>
        <time>2014-06-11T20:20:39Z</time>
      </trkpt>
      <trkpt lat="59.9548551" lon="17.7211702">
        <ele>61.6617</ele>
        <time>2014-06-11T20:20:40Z</time>
      </trkpt>
      <trkpt lat="59.954838" lon="17.721116">
        <ele>61.6617</ele>
        <time>2014-06-11T20:20:41Z</time>
      </trkpt>
      <trkpt lat="59.9548273" lon="17.7210665">
        <ele>61.6617</ele>
        <time>2014-06-11T20:20:42Z</time>
      </trkpt>
      <trkpt lat="59.9548191" lon="17.7210197">
        <ele>61.6617</ele>
        <time>2014-06-11T20:20:43Z</time>
      </trkpt>
      <trkpt lat="59.9548116" lon="17.7209613">
        <ele>61.181</ele>
        <time>2014-06-11T20:20:44Z</time>
      </trkpt>
      <trkpt lat="59.9548176" lon="17.7209122">
        <ele>60.7003</ele>
        <time>2014-06-11T20:20:45Z</time>
      </trkpt>
      <trkpt lat="59.9548161" lon="17.7208669">
        <ele>60.2197</ele>
        <time>2014-06-11T20:20:46Z</time>
      </trkpt>
      <trkpt lat="59.9548147" lon="17.720818">
        <ele>59.2584</ele>
        <time>2014-06-11T20:20:47Z</time>
      </trkpt>
      <trkpt lat="59.954809" lon="17.7207561">
        <ele>59.2584</ele>
        <time>2014-06-11T20:20:48Z</time>
      </trkpt>
      <trkpt lat="59.9548111" lon="17.7206947">
        <ele>59.2584</ele>
        <time>2014-06-11T20:20:49Z</time>
      </trkpt>
      <trkpt lat="59.954814" lon="17.7206428">
        <ele>58.2971</ele>
        <time>2014-06-11T20:20:50Z</time>
      </trkpt>
      <trkpt lat="59.9548305" lon="17.7205961">
        <ele>57.8165</ele>
        <time>2014-06-11T20:20:51Z</time>
      </trkpt>
      <trkpt lat="59.9548518" lon="17.7205582">
        <ele>58.2971</ele>
        <time>2014-06-11T20:20:52Z</time>
      </trkpt>
      <trkpt lat="59.9548614" lon="17.7205262">
        <ele>58.2971</ele>
        <time>2014-06-11T20:20:53Z</time>
      </trkpt>
      <trkpt lat="59.9548797" lon="17.7204877">
        <ele>58.7777</ele>
        <time>2014-06-11T20:20:54Z</time>
      </trkpt>
      <trkpt lat="59.9548977" lon="17.7204594">
        <ele>58.7777</ele>
        <time>2014-06-11T20:20:55Z</time>
      </trkpt>
      <trkpt lat="59.9549139" lon="17.7204348">
        <ele>58.7777</ele>
        <time>2014-06-11T20:20:56Z</time>
      </trkpt>
      <trkpt lat="59.9549402" lon="17.7204003">
        <ele>59.2584</ele>
        <time>2014-06-11T20:20:57Z</time>
      </trkpt>
      <trkpt lat="59.9549626" lon="17.7203686">
        <ele>59.7391</ele>
        <time>2014-06-11T20:20:58Z</time>
      </trkpt>
      <trkpt lat="59.9549925" lon="17.7203382">
        <ele>60.2197</ele>
        <time>2014-06-11T20:20:59Z</time>
      </trkpt>
      <trkpt lat="59.9550205" lon="17.7203122">
        <ele>59.7391</ele>
        <time>2014-06-11T20:21:00Z</time>
      </trkpt>
      <trkpt lat="59.955048" lon="17.720296">
        <ele>58.7777</ele>
        <time>2014-06-11T20:21:01Z</time>
      </trkpt>
      <trkpt lat="59.9550719" lon="17.720276">
        <ele>58.2971</ele>
        <time>2014-06-11T20:21:02Z</time>
      </trkpt>
      <trkpt lat="59.9550999" lon="17.7202517">
        <ele>58.2971</ele>
        <time>2014-06-11T20:21:03Z</time>
      </trkpt>
      <trkpt lat="59.9551274" lon="17.7202183">
        <ele>57.8165</ele>
        <time>2014-06-11T20:21:04Z</time>
      </trkpt>
      <trkpt lat="59.9551558" lon="17.7201952">
        <ele>57.3358</ele>
        <time>2014-06-11T20:21:05Z</time>
      </trkpt>
      <trkpt lat="59.9551786" lon="17.720179">
        <ele>56.8551</ele>
        <time>2014-06-11T20:21:06Z</time>
      </trkpt>
      <trkpt lat="59.9552019" lon="17.7201667">
        <ele>56.8551</ele>
        <time>2014-06-11T20:21:07Z</time>
      </trkpt>
      <trkpt lat="59.9552236" lon="17.7201465">
        <ele>55.8938</ele>
        <time>2014-06-11T20:21:08Z</time>
      </trkpt>
      <trkpt lat="59.9552475" lon="17.7201287">
        <ele>55.8938</ele>
        <time>2014-06-11T20:21:09Z</time>
      </trkpt>
      <trkpt lat="59.9552794" lon="17.7201116">
        <ele>56.8551</ele>
        <time>2014-06-11T20:21:10Z</time>
      </trkpt>
      <trkpt lat="59.9553009" lon="17.7200929">
        <ele>56.3745</ele>
        <time>2014-06-11T20:21:11Z</time>
      </trkpt>
      <trkpt lat="59.955327" lon="17.7200776">
        <ele>56.8551</ele>
        <time>2014-06-11T20:21:12Z</time>
      </trkpt>
      <trkpt lat="59.9553532" lon="17.720062">
        <ele>57.8165</ele>
        <time>2014-06-11T20:21:13Z</time>
      </trkpt>
      <trkpt lat="59.9553687" lon="17.720044">
        <ele>57.3358</ele>
        <time>2014-06-11T20:21:14Z</time>
      </trkpt>
      <trkpt lat="59.9553887" lon="17.7200231">
        <ele>56.8551</ele>
        <time>2014-06-11T20:21:15Z</time>
      </trkpt>
      <trkpt lat="59.9554075" lon="17.7199999">
        <ele>56.3745</ele>
        <time>2014-06-11T20:21:16Z</time>
      </trkpt>
      <trkpt lat="59.955423" lon="17.7199724">
        <ele>55.4131</ele>
        <time>2014-06-11T20:21:17Z</time>
      </trkpt>
      <trkpt lat="59.95544" lon="17.7199419">
        <ele>54.9324</ele>
        <time>2014-06-11T20:21:18Z</time>
      </trkpt>
      <trkpt lat="59.9554604" lon="17.7199194">
        <ele>53.9712</ele>
        <time>2014-06-11T20:21:19Z</time>
      </trkpt>
      <trkpt lat="59.9554832" lon="17.7199108">
        <ele>53.9712</ele>
        <time>2014-06-11T20:21:20Z</time>
      </trkpt>
      <trkpt lat="59.9554993" lon="17.7198998">
        <ele>53.0098</ele>
        <time>2014-06-11T20:21:21Z</time>
      </trkpt>
      <trkpt lat="59.95552" lon="17.7198869">
        <ele>52.0486</ele>
        <time>2014-06-11T20:21:22Z</time>
      </trkpt>
      <trkpt lat="59.9555443" lon="17.7198689">
        <ele>52.0486</ele>
        <time>2014-06-11T20:21:23Z</time>
      </trkpt>
      <trkpt lat="59.9555671" lon="17.7198425">
        <ele>51.5679</ele>
        <time>2014-06-11T20:21:24Z</time>
      </trkpt>
      <trkpt lat="59.9556013" lon="17.7198047">
        <ele>53.0098</ele>
        <time>2014-06-11T20:21:25Z</time>
      </trkpt>
      <trkpt lat="59.9556301" lon="17.7197697">
        <ele>52.5292</ele>
        <time>2014-06-11T20:21:26Z</time>
      </trkpt>
      <trkpt lat="59.9556634" lon="17.7197454">
        <ele>53.0098</ele>
        <time>2014-06-11T20:21:27Z</time>
      </trkpt>
      <trkpt lat="59.9556866" lon="17.7197237">
        <ele>52.5292</ele>
        <time>2014-06-11T20:21:28Z</time>
      </trkpt>
      <trkpt lat="59.9557064" lon="17.7197029">
        <ele>52.0486</ele>
        <time>2014-06-11T20:21:29Z</time>
      </trkpt>
      <trkpt lat="59.955736" lon="17.7196794">
        <ele>53.0098</ele>
        <time>2014-06-11T20:21:30Z</time>
      </trkpt>
      <trkpt lat="59.9557577" lon="17.7196559">
        <ele>53.0098</ele>
        <time>2014-06-11T20:21:31Z</time>
      </trkpt>
      <trkpt lat="59.9557723" lon="17.7196301">
        <ele>52.5292</ele>
        <time>2014-06-11T20:21:32Z</time>
      </trkpt>
      <trkpt lat="59.9557996" lon="17.7196062">
        <ele>53.0098</ele>
        <time>2014-06-11T20:21:33Z</time>
      </trkpt>
      <trkpt lat="59.9558265" lon="17.7195881">
        <ele>53.4905</ele>
        <time>2014-06-11T20:21:34Z</time>
      </trkpt>
      <trkpt lat="59.9558482" lon="17.7195682">
        <ele>53.4905</ele>
        <time>2014-06-11T20:21:35Z</time>
      </trkpt>
      <trkpt lat="59.9558697" lon="17.7195461">
        <ele>53.9712</ele>
        <time>2014-06-11T20:21:36Z</time>
      </trkpt>
      <trkpt lat="59.9558875" lon="17.7195211">
        <ele>53.4905</ele>
        <time>2014-06-11T20:21:37Z</time>
      </trkpt>
      <trkpt lat="59.9559078" lon="17.7194975">
        <ele>53.9712</ele>
        <time>2014-06-11T20:21:38Z</time>
      </trkpt>
      <trkpt lat="59.9559248" lon="17.719467">
        <ele>53.4905</ele>
        <time>2014-06-11T20:21:39Z</time>
      </trkpt>
      <trkpt lat="59.9559531" lon="17.7194454">
        <ele>53.9712</ele>
        <time>2014-06-11T20:21:40Z</time>
      </trkpt>
      <trkpt lat="59.9559836" lon="17.7194208">
        <ele>54.4518</ele>
        <time>2014-06-11T20:21:41Z</time>
      </trkpt>
      <trkpt lat="59.9560084" lon="17.7193901">
        <ele>54.9324</ele>
        <time>2014-06-11T20:21:42Z</time>
      </trkpt>
      <trkpt lat="59.9560326" lon="17.7193572">
        <ele>55.4131</ele>
        <time>2014-06-11T20:21:43Z</time>
      </trkpt>
      <trkpt lat="59.9560564" lon="17.7193188">
        <ele>55.4131</ele>
        <time>2014-06-11T20:21:44Z</time>
      </trkpt>
      <trkpt lat="59.9560695" lon="17.7192696">
        <ele>55.8938</ele>
        <time>2014-06-11T20:21:45Z</time>
      </trkpt>
      <trkpt lat="59.956085" lon="17.7192234">
        <ele>56.3745</ele>
        <time>2014-06-11T20:21:46Z</time>
      </trkpt>
      <trkpt lat="59.9561009" lon="17.719173">
        <ele>56.8551</ele>
        <time>2014-06-11T20:21:47Z</time>
      </trkpt>
      <trkpt lat="59.9561172" lon="17.7191209">
        <ele>56.8551</ele>
        <time>2014-06-11T20:21:48Z</time>
      </trkpt>
      <trkpt lat="59.9561352" lon="17.719081">
        <ele>57.3358</ele>
        <time>2014-06-11T20:21:49Z</time>
      </trkpt>
      <trkpt lat="59.9561554" lon="17.7190358">
        <ele>57.3358</ele>
        <time>2014-06-11T20:21:50Z</time>
      </trkpt>
      <trkpt lat="59.9561771" lon="17.7189841">
        <ele>57.8165</ele>
        <time>2014-06-11T20:21:51Z</time>
      </trkpt>
      <trkpt lat="59.9561903" lon="17.718939">
        <ele>57.3358</ele>
        <time>2014-06-11T20:21:52Z</time>
      </trkpt>
      <trkpt lat="59.9562048" lon="17.7188877">
        <ele>57.8165</ele>
        <time>2014-06-11T20:21:53Z</time>
      </trkpt>
      <trkpt lat="59.9562162" lon="17.7188369">
        <ele>57.8165</ele>
        <time>2014-06-11T20:21:54Z</time>
      </trkpt>
      <trkpt lat="59.9562229" lon="17.7187867">
        <ele>57.8165</ele>
        <time>2014-06-11T20:21:55Z</time>
      </trkpt>
      <trkpt lat="59.9562308" lon="17.7187378">
        <ele>58.7777</ele>
        <time>2014-06-11T20:21:56Z</time>
      </trkpt>
      <trkpt lat="59.9562398" lon="17.7186834">
        <ele>59.2584</ele>
        <time>2014-06-11T20:21:57Z</time>
      </trkpt>
      <trkpt lat="59.9562354" lon="17.7186272">
        <ele>59.2584</ele>
        <time>2014-06-11T20:21:58Z</time>
      </trkpt>
      <trkpt lat="59.9562224" lon="17.7185908">
        <ele>60.2197</ele>
        <time>2014-06-11T20:21:59Z</time>
      </trkpt>
      <trkpt lat="59.9561975" lon="17.7185688">
        <ele>60.2197</ele>
        <time>2014-06-11T20:22:00Z</time>
      </trkpt>
      <trkpt lat="59.9561778" lon="17.7185408">
        <ele>60.2197</ele>
        <time>2014-06-11T20:22:01Z</time>
      </trkpt>
      <trkpt lat="59.9561655" lon="17.7185053">
        <ele>60.7003</ele>
        <time>2014-06-11T20:22:02Z</time>
      </trkpt>
      <trkpt lat="59.9561535" lon="17.718468">
        <ele>60.7003</ele>
        <time>2014-06-11T20:22:03Z</time>
      </trkpt>
      <trkpt lat="59.956141" lon="17.7184179">
        <ele>60.7003</ele>
        <time>2014-06-11T20:22:04Z</time>
      </trkpt>
      <trkpt lat="59.9561255" lon="17.7183614">
        <ele>61.181</ele>
        <time>2014-06-11T20:22:05Z</time>
      </trkpt>
      <trkpt lat="59.9561058" lon="17.7183122">
        <ele>61.181</ele>
        <time>2014-06-11T20:22:06Z</time>
      </trkpt>
      <trkpt lat="59.9560872" lon="17.7182832">
        <ele>61.181</ele>
        <time>2014-06-11T20:22:07Z</time>
      </trkpt>
      <trkpt lat="59.9560683" lon="17.7182478">
        <ele>61.181</ele>
        <time>2014-06-11T20:22:08Z</time>
      </trkpt>
      <trkpt lat="59.9560605" lon="17.7181983">
        <ele>61.181</ele>
        <time>2014-06-11T20:22:09Z</time>
      </trkpt>
      <trkpt lat="59.9560456" lon="17.7181623">
        <ele>62.1423</ele>
        <time>2014-06-11T20:22:10Z</time>
      </trkpt>
      <trkpt lat="59.9560182" lon="17.7181266">
        <ele>62.6229</ele>
        <time>2014-06-11T20:22:11Z</time>
      </trkpt>
      <trkpt lat="59.9560044" lon="17.7180875">
        <ele>63.1036</ele>
        <time>2014-06-11T20:22:12Z</time>
      </trkpt>
      <trkpt lat="59.9559902" lon="17.7180357">
        <ele>63.1036</ele>
        <time>2014-06-11T20:22:13Z</time>
      </trkpt>
      <trkpt lat="59.9559736" lon="17.7179899">
        <ele>63.5844</ele>
        <time>2014-06-11T20:22:14Z</time>
      </trkpt>
      <trkpt lat="59.9559576" lon="17.7179575">
        <ele>64.0651</ele>
        <time>2014-06-11T20:22:15Z</time>
      </trkpt>
      <trkpt lat="59.9559336" lon="17.7179104">
        <ele>63.5844</ele>
        <time>2014-06-11T20:22:16Z</time>
      </trkpt>
      <trkpt lat="59.9559121" lon="17.7178718">
        <ele>63.5844</ele>
        <time>2014-06-11T20:22:17Z</time>
      </trkpt>
      <trkpt lat="59.9558837" lon="17.7178252">
        <ele>63.1036</ele>
        <time>2014-06-11T20:22:18Z</time>
      </trkpt>
      <trkpt lat="59.9558757" lon="17.7177866">
        <ele>62.6229</ele>
        <time>2014-06-11T20:22:19Z</time>
      </trkpt>
      <trkpt lat="59.9558649" lon="17.7177476">
        <ele>62.1423</ele>
        <time>2014-06-11T20:22:20Z</time>
      </trkpt>
      <trkpt lat="59.9558603" lon="17.717717">
        <ele>62.6229</ele>
        <time>2014-06-11T20:22:21Z</time>
      </trkpt>
      <trkpt lat="59.9558515" lon="17.7176834">
        <ele>62.1423</ele>
        <time>2014-06-11T20:22:22Z</time>
      </trkpt>
      <trkpt lat="59.9558339" lon="17.7176431">
        <ele>62.1423</ele>
        <time>2014-06-11T20:22:23Z</time>
      </trkpt>
      <trkpt lat="59.9558183" lon="17.7175911">
        <ele>61.6617</ele>
        <time>2014-06-11T20:22:24Z</time>
      </trkpt>
      <trkpt lat="59.9558023" lon="17.7175457">
        <ele>61.181</ele>
        <time>2014-06-11T20:22:25Z</time>
      </trkpt>
      <trkpt lat="59.9557891" lon="17.7175039">
        <ele>60.7003</ele>
        <time>2014-06-11T20:22:26Z</time>
      </trkpt>
      <trkpt lat="59.9557788" lon="17.7174606">
        <ele>60.7003</ele>
        <time>2014-06-11T20:22:27Z</time>
      </trkpt>
      <trkpt lat="59.9557708" lon="17.7174145">
        <ele>60.7003</ele>
        <time>2014-06-11T20:22:28Z</time>
      </trkpt>
      <trkpt lat="59.9557567" lon="17.7173679">
        <ele>60.7003</ele>
        <time>2014-06-11T20:22:29Z</time>
      </trkpt>
      <trkpt lat="59.9557387" lon="17.7173166">
        <ele>60.2197</ele>
        <time>2014-06-11T20:22:30Z</time>
      </trkpt>
      <trkpt lat="59.9557257" lon="17.7172616">
        <ele>60.2197</ele>
        <time>2014-06-11T20:22:31Z</time>
      </trkpt>
      <trkpt lat="59.9557117" lon="17.7171981">
        <ele>59.2584</ele>
        <time>2014-06-11T20:22:32Z</time>
      </trkpt>
      <trkpt lat="59.9556956" lon="17.717142">
        <ele>58.7777</ele>
        <time>2014-06-11T20:22:33Z</time>
      </trkpt>
      <trkpt lat="59.9556847" lon="17.7170851">
        <ele>57.8165</ele>
        <time>2014-06-11T20:22:34Z</time>
      </trkpt>
      <trkpt lat="59.9556759" lon="17.717027">
        <ele>57.8165</ele>
        <time>2014-06-11T20:22:35Z</time>
      </trkpt>
      <trkpt lat="59.9556645" lon="17.7169701">
        <ele>56.8551</ele>
        <time>2014-06-11T20:22:36Z</time>
      </trkpt>
      <trkpt lat="59.955652" lon="17.7169042">
        <ele>56.3745</ele>
        <time>2014-06-11T20:22:37Z</time>
      </trkpt>
      <trkpt lat="59.9556349" lon="17.7168285">
        <ele>55.8938</ele>
        <time>2014-06-11T20:22:38Z</time>
      </trkpt>
      <trkpt lat="59.955624" lon="17.7167538">
        <ele>55.8938</ele>
        <time>2014-06-11T20:22:39Z</time>
      </trkpt>
      <trkpt lat="59.9556184" lon="17.7166987">
        <ele>54.9324</ele>
        <time>2014-06-11T20:22:40Z</time>
      </trkpt>
      <trkpt lat="59.9556174" lon="17.7166457">
        <ele>54.9324</ele>
        <time>2014-06-11T20:22:41Z</time>
      </trkpt>
      <trkpt lat="59.9556101" lon="17.7165876">
        <ele>53.9712</ele>
        <time>2014-06-11T20:22:42Z</time>
      </trkpt>
      <trkpt lat="59.9556" lon="17.7165283">
        <ele>53.0098</ele>
        <time>2014-06-11T20:22:43Z</time>
      </trkpt>
      <trkpt lat="59.9555895" lon="17.7164711">
        <ele>52.0486</ele>
        <time>2014-06-11T20:22:44Z</time>
      </trkpt>
      <trkpt lat="59.9555773" lon="17.7164197">
        <ele>52.0486</ele>
        <time>2014-06-11T20:22:45Z</time>
      </trkpt>
      <trkpt lat="59.9555733" lon="17.7163786">
        <ele>51.5679</ele>
        <time>2014-06-11T20:22:46Z</time>
      </trkpt>
      <trkpt lat="59.955571" lon="17.716335">
        <ele>50.6066</ele>
        <time>2014-06-11T20:22:47Z</time>
      </trkpt>
      <trkpt lat="59.9555722" lon="17.7163034">
        <ele>50.6066</ele>
        <time>2014-06-11T20:22:48Z</time>
      </trkpt>
      <trkpt lat="59.9555676" lon="17.7162718">
        <ele>51.0872</ele>
        <time>2014-06-11T20:22:49Z</time>
      </trkpt>
      <trkpt lat="59.9555658" lon="17.716211">
        <ele>50.6066</ele>
        <time>2014-06-11T20:22:50Z</time>
      </trkpt>
      <trkpt lat="59.9555639" lon="17.7161387">
        <ele>51.0872</ele>
        <time>2014-06-11T20:22:51Z</time>
      </trkpt>
      <trkpt lat="59.9555625" lon="17.7160791">
        <ele>50.6066</ele>
        <time>2014-06-11T20:22:52Z</time>
      </trkpt>
      <trkpt lat="59.9555571" lon="17.7160189">
        <ele>50.126</ele>
        <time>2014-06-11T20:22:53Z</time>
      </trkpt>
      <trkpt lat="59.9555428" lon="17.7159531">
        <ele>49.6453</ele>
        <time>2014-06-11T20:22:54Z</time>
      </trkpt>
      <trkpt lat="59.9555329" lon="17.715887">
        <ele>49.6453</ele>
        <time>2014-06-11T20:22:55Z</time>
      </trkpt>
      <trkpt lat="59.9555194" lon="17.7158227">
        <ele>49.1646</ele>
        <time>2014-06-11T20:22:56Z</time>
      </trkpt>
      <trkpt lat="59.9555039" lon="17.7157631">
        <ele>49.1646</ele>
        <time>2014-06-11T20:22:57Z</time>
      </trkpt>
      <trkpt lat="59.9554859" lon="17.7156958">
        <ele>48.684</ele>
        <time>2014-06-11T20:22:58Z</time>
      </trkpt>
      <trkpt lat="59.9554667" lon="17.7156274">
        <ele>48.2034</ele>
        <time>2014-06-11T20:22:59Z</time>
      </trkpt>
      <trkpt lat="59.9554534" lon="17.7155657">
        <ele>47.7225</ele>
        <time>2014-06-11T20:23:00Z</time>
      </trkpt>
      <trkpt lat="59.9554485" lon="17.7155179">
        <ele>48.2034</ele>
        <time>2014-06-11T20:23:01Z</time>
      </trkpt>
      <trkpt lat="59.9554426" lon="17.7154687">
        <ele>48.684</ele>
        <time>2014-06-11T20:23:02Z</time>
      </trkpt>
      <trkpt lat="59.9554397" lon="17.7154285">
        <ele>49.6453</ele>
        <time>2014-06-11T20:23:03Z</time>
      </trkpt>
      <trkpt lat="59.9554323" lon="17.7153848">
        <ele>49.6453</ele>
        <time>2014-06-11T20:23:04Z</time>
      </trkpt>
      <trkpt lat="59.9554237" lon="17.7153208">
        <ele>50.126</ele>
        <time>2014-06-11T20:23:05Z</time>
      </trkpt>
      <trkpt lat="59.9554102" lon="17.7152591">
        <ele>50.6066</ele>
        <time>2014-06-11T20:23:06Z</time>
      </trkpt>
      <trkpt lat="59.955384" lon="17.7151996">
        <ele>51.0872</ele>
        <time>2014-06-11T20:23:07Z</time>
      </trkpt>
      <trkpt lat="59.9553599" lon="17.7151374">
        <ele>51.0872</ele>
        <time>2014-06-11T20:23:08Z</time>
      </trkpt>
      <trkpt lat="59.9553609" lon="17.7150835">
        <ele>52.0486</ele>
        <time>2014-06-11T20:23:09Z</time>
      </trkpt>
      <trkpt lat="59.9553557" lon="17.7150223">
        <ele>51.5679</ele>
        <time>2014-06-11T20:23:10Z</time>
      </trkpt>
      <trkpt lat="59.9553436" lon="17.7149544">
        <ele>52.5292</ele>
        <time>2014-06-11T20:23:11Z</time>
      </trkpt>
      <trkpt lat="59.955331" lon="17.7148929">
        <ele>53.0098</ele>
        <time>2014-06-11T20:23:12Z</time>
      </trkpt>
      <trkpt lat="59.9553174" lon="17.7148254">
        <ele>53.0098</ele>
        <time>2014-06-11T20:23:13Z</time>
      </trkpt>
      <trkpt lat="59.9553055" lon="17.7147593">
        <ele>53.9712</ele>
        <time>2014-06-11T20:23:14Z</time>
      </trkpt>
      <trkpt lat="59.9552875" lon="17.7146953">
        <ele>53.9712</ele>
        <time>2014-06-11T20:23:15Z</time>
      </trkpt>
      <trkpt lat="59.9552727" lon="17.7146288">
        <ele>53.9712</ele>
        <time>2014-06-11T20:23:16Z</time>
      </trkpt>
      <trkpt lat="59.9552667" lon="17.7145666">
        <ele>53.9712</ele>
        <time>2014-06-11T20:23:17Z</time>
      </trkpt>
      <trkpt lat="59.9552677" lon="17.7144995">
        <ele>53.9712</ele>
        <time>2014-06-11T20:23:18Z</time>
      </trkpt>
      <trkpt lat="59.9552628" lon="17.7144378">
        <ele>53.0098</ele>
        <time>2014-06-11T20:23:19Z</time>
      </trkpt>
      <trkpt lat="59.9552525" lon="17.7143796">
        <ele>53.0098</ele>
        <time>2014-06-11T20:23:20Z</time>
      </trkpt>
      <trkpt lat="59.9552407" lon="17.714336">
        <ele>52.5292</ele>
        <time>2014-06-11T20:23:21Z</time>
      </trkpt>
      <trkpt lat="59.9552261" lon="17.7142887">
        <ele>53.0098</ele>
        <time>2014-06-11T20:23:22Z</time>
      </trkpt>
      <trkpt lat="59.9552148" lon="17.7142438">
        <ele>53.0098</ele>
        <time>2014-06-11T20:23:23Z</time>
      </trkpt>
      <trkpt lat="59.9552007" lon="17.7141951">
        <ele>53.0098</ele>
        <time>2014-06-11T20:23:24Z</time>
      </trkpt>
      <trkpt lat="59.9551831" lon="17.7141478">
        <ele>53.0098</ele>
        <time>2014-06-11T20:23:25Z</time>
      </trkpt>
      <trkpt lat="59.9551714" lon="17.7141169">
        <ele>52.5292</ele>
        <time>2014-06-11T20:23:26Z</time>
      </trkpt>
      <trkpt lat="59.9551559" lon="17.714112">
        <ele>52.0486</ele>
        <time>2014-06-11T20:23:27Z</time>
      </trkpt>
      <trkpt lat="59.9551336" lon="17.7141189">
        <ele>51.5679</ele>
        <time>2014-06-11T20:23:28Z</time>
      </trkpt>
      <trkpt lat="59.9551176" lon="17.7141474">
        <ele>51.0872</ele>
        <time>2014-06-11T20:23:29Z</time>
      </trkpt>
      <trkpt lat="59.9551051" lon="17.7141871">
        <ele>50.6066</ele>
        <time>2014-06-11T20:23:30Z</time>
      </trkpt>
      <trkpt lat="59.9550879" lon="17.7142372">
        <ele>50.126</ele>
        <time>2014-06-11T20:23:31Z</time>
      </trkpt>
      <trkpt lat="59.9550578" lon="17.7142702">
        <ele>49.1646</ele>
        <time>2014-06-11T20:23:32Z</time>
      </trkpt>
      <trkpt lat="59.955032" lon="17.7142876">
        <ele>49.6453</ele>
        <time>2014-06-11T20:23:33Z</time>
      </trkpt>
      <trkpt lat="59.9550072" lon="17.7143075">
        <ele>49.6453</ele>
        <time>2014-06-11T20:23:34Z</time>
      </trkpt>
      <trkpt lat="59.9549802" lon="17.7143317">
        <ele>49.1646</ele>
        <time>2014-06-11T20:23:35Z</time>
      </trkpt>
      <trkpt lat="59.9549588" lon="17.7143634">
        <ele>48.684</ele>
        <time>2014-06-11T20:23:36Z</time>
      </trkpt>
      <trkpt lat="59.9549385" lon="17.7144032">
        <ele>48.2034</ele>
        <time>2014-06-11T20:23:37Z</time>
      </trkpt>
      <trkpt lat="59.9549191" lon="17.7144471">
        <ele>47.2418</ele>
        <time>2014-06-11T20:23:38Z</time>
      </trkpt>
      <trkpt lat="59.9549024" lon="17.7144855">
        <ele>46.7612</ele>
        <time>2014-06-11T20:23:39Z</time>
      </trkpt>
      <trkpt lat="59.9548865" lon="17.7145334">
        <ele>46.7612</ele>
        <time>2014-06-11T20:23:40Z</time>
      </trkpt>
      <trkpt lat="59.9548724" lon="17.7145877">
        <ele>45.7999</ele>
        <time>2014-06-11T20:23:41Z</time>
      </trkpt>
      <trkpt lat="59.9548449" lon="17.7146276">
        <ele>46.2806</ele>
        <time>2014-06-11T20:23:42Z</time>
      </trkpt>
      <trkpt lat="59.9548091" lon="17.714654">
        <ele>46.7612</ele>
        <time>2014-06-11T20:23:43Z</time>
      </trkpt>
      <trkpt lat="59.9547764" lon="17.7146851">
        <ele>47.7225</ele>
        <time>2014-06-11T20:23:44Z</time>
      </trkpt>
      <trkpt lat="59.9547538" lon="17.7147042">
        <ele>47.7225</ele>
        <time>2014-06-11T20:23:45Z</time>
      </trkpt>
      <trkpt lat="59.9547314" lon="17.7147157">
        <ele>47.2418</ele>
        <time>2014-06-11T20:23:46Z</time>
      </trkpt>
      <trkpt lat="59.9547123" lon="17.7147285">
        <ele>46.7612</ele>
        <time>2014-06-11T20:23:47Z</time>
      </trkpt>
      <trkpt lat="59.954688" lon="17.7147349">
        <ele>47.2418</ele>
        <time>2014-06-11T20:23:48Z</time>
      </trkpt>
      <trkpt lat="59.9546673" lon="17.714738">
        <ele>47.2418</ele>
        <time>2014-06-11T20:23:49Z</time>
      </trkpt>
      <trkpt lat="59.9546369" lon="17.7147385">
        <ele>48.2034</ele>
        <time>2014-06-11T20:23:50Z</time>
      </trkpt>
      <trkpt lat="59.9546243" lon="17.7147684">
        <ele>48.684</ele>
        <time>2014-06-11T20:23:51Z</time>
      </trkpt>
      <trkpt lat="59.954606" lon="17.7147882">
        <ele>49.1646</ele>
        <time>2014-06-11T20:23:52Z</time>
      </trkpt>
      <trkpt lat="59.9545833" lon="17.7147992">
        <ele>49.1646</ele>
        <time>2014-06-11T20:23:53Z</time>
      </trkpt>
      <trkpt lat="59.9545524" lon="17.7148149">
        <ele>49.6453</ele>
        <time>2014-06-11T20:23:54Z</time>
      </trkpt>
      <trkpt lat="59.9545233" lon="17.7148258">
        <ele>50.126</ele>
        <time>2014-06-11T20:23:55Z</time>
      </trkpt>
      <trkpt lat="59.9544946" lon="17.7148265">
        <ele>50.126</ele>
        <time>2014-06-11T20:23:56Z</time>
      </trkpt>
      <trkpt lat="59.9544678" lon="17.7148256">
        <ele>50.6066</ele>
        <time>2014-06-11T20:23:57Z</time>
      </trkpt>
      <trkpt lat="59.9544412" lon="17.7148301">
        <ele>51.5679</ele>
        <time>2014-06-11T20:23:58Z</time>
      </trkpt>
      <trkpt lat="59.9544148" lon="17.7148349">
        <ele>52.0486</ele>
        <time>2014-06-11T20:23:59Z</time>
      </trkpt>
      <trkpt lat="59.9543824" lon="17.7148307">
        <ele>52.5292</ele>
        <time>2014-06-11T20:24:00Z</time>
      </trkpt>
      <trkpt lat="59.9543472" lon="17.7148348">
        <ele>53.4905</ele>
        <time>2014-06-11T20:24:01Z</time>
      </trkpt>
      <trkpt lat="59.954315" lon="17.7148439">
        <ele>53.9712</ele>
        <time>2014-06-11T20:24:02Z</time>
      </trkpt>
      <trkpt lat="59.9542815" lon="17.714851">
        <ele>54.9324</ele>
        <time>2014-06-11T20:24:03Z</time>
      </trkpt>
      <trkpt lat="59.9542489" lon="17.7148626">
        <ele>55.4131</ele>
        <time>2014-06-11T20:24:04Z</time>
      </trkpt>
      <trkpt lat="59.9542195" lon="17.714872">
        <ele>55.8938</ele>
        <time>2014-06-11T20:24:05Z</time>
      </trkpt>
      <trkpt lat="59.9541914" lon="17.714887">
        <ele>56.3745</ele>
        <time>2014-06-11T20:24:06Z</time>
      </trkpt>
      <trkpt lat="59.9541681" lon="17.7149002">
        <ele>56.8551</ele>
        <time>2014-06-11T20:24:07Z</time>
      </trkpt>
      <trkpt lat="59.9541467" lon="17.7149068">
        <ele>56.8551</ele>
        <time>2014-06-11T20:24:08Z</time>
      </trkpt>
      <trkpt lat="59.954127" lon="17.714913">
        <ele>56.8551</ele>
        <time>2014-06-11T20:24:09Z</time>
      </trkpt>
      <trkpt lat="59.954111" lon="17.7149239">
        <ele>57.3358</ele>
        <time>2014-06-11T20:24:10Z</time>
      </trkpt>
      <trkpt lat="59.9540944" lon="17.7149399">
        <ele>57.3358</ele>
        <time>2014-06-11T20:24:11Z</time>
      </trkpt>
      <trkpt lat="59.9540805" lon="17.7149644">
        <ele>57.8165</ele>
        <time>2014-06-11T20:24:12Z</time>
      </trkpt>
      <trkpt lat="59.9540689" lon="17.7149819">
        <ele>57.8165</ele>
        <time>2014-06-11T20:24:13Z</time>
      </trkpt>
      <trkpt lat="59.9540504" lon="17.715">
        <ele>57.8165</ele>
        <time>2014-06-11T20:24:14Z</time>
      </trkpt>
      <trkpt lat="59.9540246" lon="17.7150126">
        <ele>57.8165</ele>
        <time>2014-06-11T20:24:15Z</time>
      </trkpt>
      <trkpt lat="59.9540006" lon="17.7150203">
        <ele>57.8165</ele>
        <time>2014-06-11T20:24:16Z</time>
      </trkpt>
      <trkpt lat="59.9539709" lon="17.7150216">
        <ele>57.8165</ele>
        <time>2014-06-11T20:24:17Z</time>
      </trkpt>
      <trkpt lat="59.9539391" lon="17.7150248">
        <ele>57.8165</ele>
        <time>2014-06-11T20:24:18Z</time>
      </trkpt>
      <trkpt lat="59.9539088" lon="17.7150223">
        <ele>58.2971</ele>
        <time>2014-06-11T20:24:19Z</time>
      </trkpt>
      <trkpt lat="59.9538825" lon="17.7150244">
        <ele>58.2971</ele>
        <time>2014-06-11T20:24:20Z</time>
      </trkpt>
      <trkpt lat="59.9538575" lon="17.7150326">
        <ele>58.2971</ele>
        <time>2014-06-11T20:24:21Z</time>
      </trkpt>
      <trkpt lat="59.9538344" lon="17.7150454">
        <ele>58.7777</ele>
        <time>2014-06-11T20:24:22Z</time>
      </trkpt>
      <trkpt lat="59.9538095" lon="17.7150497">
        <ele>59.2584</ele>
        <time>2014-06-11T20:24:23Z</time>
      </trkpt>
      <trkpt lat="59.9537835" lon="17.7150527">
        <ele>59.2584</ele>
        <time>2014-06-11T20:24:24Z</time>
      </trkpt>
      <trkpt lat="59.9537577" lon="17.7150743">
        <ele>59.2584</ele>
        <time>2014-06-11T20:24:25Z</time>
      </trkpt>
      <trkpt lat="59.9537302" lon="17.7150872">
        <ele>58.7777</ele>
        <time>2014-06-11T20:24:26Z</time>
      </trkpt>
      <trkpt lat="59.9537078" lon="17.7150984">
        <ele>58.2971</ele>
        <time>2014-06-11T20:24:27Z</time>
      </trkpt>
      <trkpt lat="59.9536806" lon="17.7151027">
        <ele>57.3358</ele>
        <time>2014-06-11T20:24:28Z</time>
      </trkpt>
      <trkpt lat="59.9536534" lon="17.7151084">
        <ele>56.8551</ele>
        <time>2014-06-11T20:24:29Z</time>
      </trkpt>
      <trkpt lat="59.9536314" lon="17.715128">
        <ele>56.3745</ele>
        <time>2014-06-11T20:24:30Z</time>
      </trkpt>
      <trkpt lat="59.9536093" lon="17.7151503">
        <ele>55.4131</ele>
        <time>2014-06-11T20:24:31Z</time>
      </trkpt>
      <trkpt lat="59.9535811" lon="17.7151616">
        <ele>55.4131</ele>
        <time>2014-06-11T20:24:32Z</time>
      </trkpt>
      <trkpt lat="59.9535501" lon="17.7151703">
        <ele>54.9324</ele>
        <time>2014-06-11T20:24:33Z</time>
      </trkpt>
      <trkpt lat="59.9535177" lon="17.7151748">
        <ele>54.4518</ele>
        <time>2014-06-11T20:24:34Z</time>
      </trkpt>
      <trkpt lat="59.9534943" lon="17.7151881">
        <ele>53.9712</ele>
        <time>2014-06-11T20:24:35Z</time>
      </trkpt>
      <trkpt lat="59.9534743" lon="17.7152113">
        <ele>53.0098</ele>
        <time>2014-06-11T20:24:36Z</time>
      </trkpt>
      <trkpt lat="59.9534518" lon="17.7152319">
        <ele>53.0098</ele>
        <time>2014-06-11T20:24:37Z</time>
      </trkpt>
      <trkpt lat="59.9534303" lon="17.715245">
        <ele>52.5292</ele>
        <time>2014-06-11T20:24:38Z</time>
      </trkpt>
      <trkpt lat="59.9534085" lon="17.7152678">
        <ele>52.5292</ele>
        <time>2014-06-11T20:24:39Z</time>
      </trkpt>
      <trkpt lat="59.9533853" lon="17.7152995">
        <ele>52.0486</ele>
        <time>2014-06-11T20:24:40Z</time>
      </trkpt>
      <trkpt lat="59.9533625" lon="17.7153237">
        <ele>52.0486</ele>
        <time>2014-06-11T20:24:41Z</time>
      </trkpt>
      <trkpt lat="59.9533432" lon="17.7153466">
        <ele>52.0486</ele>
        <time>2014-06-11T20:24:42Z</time>
      </trkpt>
      <trkpt lat="59.95332" lon="17.71537">
        <ele>52.0486</ele>
        <time>2014-06-11T20:24:43Z</time>
      </trkpt>
      <trkpt lat="59.9532916" lon="17.7153972">
        <ele>52.0486</ele>
        <time>2014-06-11T20:24:44Z</time>
      </trkpt>
      <trkpt lat="59.9532718" lon="17.71543">
        <ele>53.4905</ele>
        <time>2014-06-11T20:24:45Z</time>
      </trkpt>
      <trkpt lat="59.9532422" lon="17.7154571">
        <ele>54.9324</ele>
        <time>2014-06-11T20:24:46Z</time>
      </trkpt>
      <trkpt lat="59.9532143" lon="17.7155068">
        <ele>56.3745</ele>
        <time>2014-06-11T20:24:47Z</time>
      </trkpt>
      <trkpt lat="59.9531915" lon="17.7155554">
        <ele>57.8165</ele>
        <time>2014-06-11T20:24:48Z</time>
      </trkpt>
      <trkpt lat="59.9531686" lon="17.7155958">
        <ele>58.7777</ele>
        <time>2014-06-11T20:24:49Z</time>
      </trkpt>
      <trkpt lat="59.953148" lon="17.7156293">
        <ele>59.7391</ele>
        <time>2014-06-11T20:24:50Z</time>
      </trkpt>
      <trkpt lat="59.95313" lon="17.7156559">
        <ele>60.2197</ele>
        <time>2014-06-11T20:24:51Z</time>
      </trkpt>
      <trkpt lat="59.9531138" lon="17.7157033">
        <ele>60.7003</ele>
        <time>2014-06-11T20:24:52Z</time>
      </trkpt>
      <trkpt lat="59.9530935" lon="17.7157391">
        <ele>61.6617</ele>
        <time>2014-06-11T20:24:53Z</time>
      </trkpt>
      <trkpt lat="59.9530702" lon="17.7157634">
        <ele>62.6229</ele>
        <time>2014-06-11T20:24:54Z</time>
      </trkpt>
      <trkpt lat="59.9530542" lon="17.7158019">
        <ele>62.6229</ele>
        <time>2014-06-11T20:24:55Z</time>
      </trkpt>
      <trkpt lat="59.9530374" lon="17.7158396">
        <ele>62.1423</ele>
        <time>2014-06-11T20:24:56Z</time>
      </trkpt>
      <trkpt lat="59.9530229" lon="17.7158688">
        <ele>61.6617</ele>
        <time>2014-06-11T20:24:57Z</time>
      </trkpt>
      <trkpt lat="59.9530144" lon="17.715914">
        <ele>61.181</ele>
        <time>2014-06-11T20:24:58Z</time>
      </trkpt>
      <trkpt lat="59.9530067" lon="17.7159589">
        <ele>60.7003</ele>
        <time>2014-06-11T20:24:59Z</time>
      </trkpt>
      <trkpt lat="59.9529962" lon="17.7160061">
        <ele>60.7003</ele>
        <time>2014-06-11T20:25:00Z</time>
      </trkpt>
      <trkpt lat="59.9529915" lon="17.7160558">
        <ele>60.2197</ele>
        <time>2014-06-11T20:25:01Z</time>
      </trkpt>
      <trkpt lat="59.9529945" lon="17.7161134">
        <ele>59.2584</ele>
        <time>2014-06-11T20:25:02Z</time>
      </trkpt>
      <trkpt lat="59.9529957" lon="17.7161629">
        <ele>58.2971</ele>
        <time>2014-06-11T20:25:03Z</time>
      </trkpt>
      <trkpt lat="59.9529896" lon="17.7162037">
        <ele>57.8165</ele>
        <time>2014-06-11T20:25:04Z</time>
      </trkpt>
      <trkpt lat="59.952981" lon="17.7162499">
        <ele>56.8551</ele>
        <time>2014-06-11T20:25:05Z</time>
      </trkpt>
      <trkpt lat="59.952964" lon="17.7162858">
        <ele>55.8938</ele>
        <time>2014-06-11T20:25:06Z</time>
      </trkpt>
      <trkpt lat="59.9529502" lon="17.7163261">
        <ele>55.8938</ele>
        <time>2014-06-11T20:25:07Z</time>
      </trkpt>
      <trkpt lat="59.9529371" lon="17.7163656">
        <ele>54.9324</ele>
        <time>2014-06-11T20:25:08Z</time>
      </trkpt>
      <trkpt lat="59.9529246" lon="17.7164065">
        <ele>53.9712</ele>
        <time>2014-06-11T20:25:09Z</time>
      </trkpt>
      <trkpt lat="59.9529142" lon="17.7164593">
        <ele>53.4905</ele>
        <time>2014-06-11T20:25:10Z</time>
      </trkpt>
      <trkpt lat="59.9529062" lon="17.7165121">
        <ele>53.4905</ele>
        <time>2014-06-11T20:25:11Z</time>
      </trkpt>
      <trkpt lat="59.9529025" lon="17.7165589">
        <ele>53.9712</ele>
        <time>2014-06-11T20:25:12Z</time>
      </trkpt>
      <trkpt lat="59.9528885" lon="17.7166023">
        <ele>53.4905</ele>
        <time>2014-06-11T20:25:13Z</time>
      </trkpt>
      <trkpt lat="59.952872" lon="17.7166458">
        <ele>53.0098</ele>
        <time>2014-06-11T20:25:14Z</time>
      </trkpt>
      <trkpt lat="59.9528665" lon="17.7167048">
        <ele>53.0098</ele>
        <time>2014-06-11T20:25:15Z</time>
      </trkpt>
      <trkpt lat="59.9528673" lon="17.7167645">
        <ele>53.0098</ele>
        <time>2014-06-11T20:25:16Z</time>
      </trkpt>
      <trkpt lat="59.9528698" lon="17.7168229">
        <ele>53.0098</ele>
        <time>2014-06-11T20:25:17Z</time>
      </trkpt>
      <trkpt lat="59.9528777" lon="17.7168777">
        <ele>53.0098</ele>
        <time>2014-06-11T20:25:18Z</time>
      </trkpt>
      <trkpt lat="59.9528813" lon="17.7169326">
        <ele>53.0098</ele>
        <time>2014-06-11T20:25:19Z</time>
      </trkpt>
      <trkpt lat="59.952877" lon="17.7169924">
        <ele>53.4905</ele>
        <time>2014-06-11T20:25:20Z</time>
      </trkpt>
      <trkpt lat="59.9528696" lon="17.7170496">
        <ele>53.0098</ele>
        <time>2014-06-11T20:25:21Z</time>
      </trkpt>
      <trkpt lat="59.9528668" lon="17.7171058">
        <ele>53.0098</ele>
        <time>2014-06-11T20:25:22Z</time>
      </trkpt>
      <trkpt lat="59.9528616" lon="17.7171597">
        <ele>53.0098</ele>
        <time>2014-06-11T20:25:23Z</time>
      </trkpt>
      <trkpt lat="59.9528486" lon="17.7172115">
        <ele>52.0486</ele>
        <time>2014-06-11T20:25:24Z</time>
      </trkpt>
      <trkpt lat="59.9528333" lon="17.7172639">
        <ele>51.5679</ele>
        <time>2014-06-11T20:25:25Z</time>
      </trkpt>
      <trkpt lat="59.9528207" lon="17.7173152">
        <ele>51.5679</ele>
        <time>2014-06-11T20:25:26Z</time>
      </trkpt>
      <trkpt lat="59.9528087" lon="17.7173611">
        <ele>51.0872</ele>
        <time>2014-06-11T20:25:27Z</time>
      </trkpt>
      <trkpt lat="59.9527969" lon="17.717412">
        <ele>51.0872</ele>
        <time>2014-06-11T20:25:28Z</time>
      </trkpt>
      <trkpt lat="59.95279" lon="17.7174658">
        <ele>51.0872</ele>
        <time>2014-06-11T20:25:29Z</time>
      </trkpt>
      <trkpt lat="59.9527798" lon="17.7175158">
        <ele>51.0872</ele>
        <time>2014-06-11T20:25:30Z</time>
      </trkpt>
      <trkpt lat="59.9527687" lon="17.7175602">
        <ele>51.0872</ele>
        <time>2014-06-11T20:25:31Z</time>
      </trkpt>
      <trkpt lat="59.9527557" lon="17.7176025">
        <ele>51.5679</ele>
        <time>2014-06-11T20:25:32Z</time>
      </trkpt>
      <trkpt lat="59.9527499" lon="17.7176523">
        <ele>52.0486</ele>
        <time>2014-06-11T20:25:33Z</time>
      </trkpt>
      <trkpt lat="59.9527419" lon="17.7176942">
        <ele>51.5679</ele>
        <time>2014-06-11T20:25:34Z</time>
      </trkpt>
      <trkpt lat="59.9527256" lon="17.7177318">
        <ele>51.5679</ele>
        <time>2014-06-11T20:25:35Z</time>
      </trkpt>
      <trkpt lat="59.952713" lon="17.7177873">
        <ele>52.0486</ele>
        <time>2014-06-11T20:25:36Z</time>
      </trkpt>
      <trkpt lat="59.9526963" lon="17.7178306">
        <ele>52.5292</ele>
        <time>2014-06-11T20:25:37Z</time>
      </trkpt>
      <trkpt lat="59.9526831" lon="17.7178704">
        <ele>53.0098</ele>
        <time>2014-06-11T20:25:38Z</time>
      </trkpt>
      <trkpt lat="59.9526662" lon="17.7179143">
        <ele>53.4905</ele>
        <time>2014-06-11T20:25:39Z</time>
      </trkpt>
      <trkpt lat="59.9526465" lon="17.7179583">
        <ele>53.4905</ele>
        <time>2014-06-11T20:25:40Z</time>
      </trkpt>
      <trkpt lat="59.9526322" lon="17.7180114">
        <ele>53.9712</ele>
        <time>2014-06-11T20:25:41Z</time>
      </trkpt>
      <trkpt lat="59.9526182" lon="17.7180569">
        <ele>53.9712</ele>
        <time>2014-06-11T20:25:42Z</time>
      </trkpt>
      <trkpt lat="59.952602" lon="17.7180927">
        <ele>53.4905</ele>
        <time>2014-06-11T20:25:43Z</time>
      </trkpt>
      <trkpt lat="59.9525871" lon="17.7181287">
        <ele>53.0098</ele>
        <time>2014-06-11T20:25:44Z</time>
      </trkpt>
      <trkpt lat="59.9525712" lon="17.7181623">
        <ele>52.5292</ele>
        <time>2014-06-11T20:25:45Z</time>
      </trkpt>
      <trkpt lat="59.9525612" lon="17.7182121">
        <ele>52.5292</ele>
        <time>2014-06-11T20:25:46Z</time>
      </trkpt>
      <trkpt lat="59.9525528" lon="17.7182615">
        <ele>53.0098</ele>
        <time>2014-06-11T20:25:47Z</time>
      </trkpt>
      <trkpt lat="59.9525438" lon="17.7183085">
        <ele>53.0098</ele>
        <time>2014-06-11T20:25:48Z</time>
      </trkpt>
      <trkpt lat="59.9525368" lon="17.7183531">
        <ele>53.4905</ele>
        <time>2014-06-11T20:25:49Z</time>
      </trkpt>
      <trkpt lat="59.9525274" lon="17.7183939">
        <ele>53.4905</ele>
        <time>2014-06-11T20:25:50Z</time>
      </trkpt>
      <trkpt lat="59.9525213" lon="17.7184428">
        <ele>53.4905</ele>
        <time>2014-06-11T20:25:51Z</time>
      </trkpt>
      <trkpt lat="59.9525202" lon="17.7184992">
        <ele>53.9712</ele>
        <time>2014-06-11T20:25:52Z</time>
      </trkpt>
      <trkpt lat="59.9525181" lon="17.7185562">
        <ele>53.4905</ele>
        <time>2014-06-11T20:25:53Z</time>
      </trkpt>
      <trkpt lat="59.9525098" lon="17.7186179">
        <ele>53.4905</ele>
        <time>2014-06-11T20:25:54Z</time>
      </trkpt>
      <trkpt lat="59.9524995" lon="17.7186786">
        <ele>53.4905</ele>
        <time>2014-06-11T20:25:55Z</time>
      </trkpt>
      <trkpt lat="59.9524874" lon="17.7187319">
        <ele>53.9712</ele>
        <time>2014-06-11T20:25:56Z</time>
      </trkpt>
      <trkpt lat="59.9524731" lon="17.7187769">
        <ele>53.9712</ele>
        <time>2014-06-11T20:25:57Z</time>
      </trkpt>
      <trkpt lat="59.9524576" lon="17.7188233">
        <ele>54.4518</ele>
        <time>2014-06-11T20:25:58Z</time>
      </trkpt>
      <trkpt lat="59.9524436" lon="17.7188787">
        <ele>54.4518</ele>
        <time>2014-06-11T20:25:59Z</time>
      </trkpt>
      <trkpt lat="59.9524319" lon="17.7189329">
        <ele>54.4518</ele>
        <time>2014-06-11T20:26:00Z</time>
      </trkpt>
      <trkpt lat="59.9524217" lon="17.7189727">
        <ele>54.4518</ele>
        <time>2014-06-11T20:26:01Z</time>
      </trkpt>
      <trkpt lat="59.9524124" lon="17.7190188">
        <ele>54.9324</ele>
        <time>2014-06-11T20:26:02Z</time>
      </trkpt>
      <trkpt lat="59.9524113" lon="17.7190882">
        <ele>55.8938</ele>
        <time>2014-06-11T20:26:03Z</time>
      </trkpt>
      <trkpt lat="59.9524062" lon="17.7191426">
        <ele>55.8938</ele>
        <time>2014-06-11T20:26:04Z</time>
      </trkpt>
      <trkpt lat="59.9523948" lon="17.7191847">
        <ele>55.8938</ele>
        <time>2014-06-11T20:26:05Z</time>
      </trkpt>
      <trkpt lat="59.9523874" lon="17.7192261">
        <ele>55.8938</ele>
        <time>2014-06-11T20:26:06Z</time>
      </trkpt>
      <trkpt lat="59.952383" lon="17.7192725">
        <ele>56.3745</ele>
        <time>2014-06-11T20:26:07Z</time>
      </trkpt>
      <trkpt lat="59.9523796" lon="17.7193207">
        <ele>56.8551</ele>
        <time>2014-06-11T20:26:08Z</time>
      </trkpt>
      <trkpt lat="59.952373" lon="17.7193581">
        <ele>56.8551</ele>
        <time>2014-06-11T20:26:09Z</time>
      </trkpt>
      <trkpt lat="59.9523658" lon="17.7193994">
        <ele>56.8551</ele>
        <time>2014-06-11T20:26:10Z</time>
      </trkpt>
      <trkpt lat="59.952368" lon="17.7194525">
        <ele>57.3358</ele>
        <time>2014-06-11T20:26:11Z</time>
      </trkpt>
      <trkpt lat="59.9523627" lon="17.7195051">
        <ele>57.8165</ele>
        <time>2014-06-11T20:26:12Z</time>
      </trkpt>
      <trkpt lat="59.9523641" lon="17.7195596">
        <ele>57.8165</ele>
        <time>2014-06-11T20:26:13Z</time>
      </trkpt>
      <trkpt lat="59.9523721" lon="17.7196013">
        <ele>58.2971</ele>
        <time>2014-06-11T20:26:14Z</time>
      </trkpt>
      <trkpt lat="59.9523839" lon="17.719643">
        <ele>58.2971</ele>
        <time>2014-06-11T20:26:15Z</time>
      </trkpt>
      <trkpt lat="59.9523969" lon="17.7196842">
        <ele>57.8165</ele>
        <time>2014-06-11T20:26:16Z</time>
      </trkpt>
      <trkpt lat="59.9524093" lon="17.7197322">
        <ele>57.8165</ele>
        <time>2014-06-11T20:26:17Z</time>
      </trkpt>
      <trkpt lat="59.9524155" lon="17.7197741">
        <ele>57.8165</ele>
        <time>2014-06-11T20:26:18Z</time>
      </trkpt>
      <trkpt lat="59.9524232" lon="17.719812">
        <ele>58.2971</ele>
        <time>2014-06-11T20:26:19Z</time>
      </trkpt>
      <trkpt lat="59.9524321" lon="17.7198614">
        <ele>58.2971</ele>
        <time>2014-06-11T20:26:20Z</time>
      </trkpt>
      <trkpt lat="59.9524378" lon="17.7199132">
        <ele>58.2971</ele>
        <time>2014-06-11T20:26:21Z</time>
      </trkpt>
      <trkpt lat="59.9524518" lon="17.7199631">
        <ele>59.2584</ele>
        <time>2014-06-11T20:26:22Z</time>
      </trkpt>
      <trkpt lat="59.9524643" lon="17.7200165">
        <ele>59.7391</ele>
        <time>2014-06-11T20:26:23Z</time>
      </trkpt>
      <trkpt lat="59.9524757" lon="17.7200755">
        <ele>60.2197</ele>
        <time>2014-06-11T20:26:24Z</time>
      </trkpt>
      <trkpt lat="59.9524828" lon="17.7201356">
        <ele>60.2197</ele>
        <time>2014-06-11T20:26:25Z</time>
      </trkpt>
      <trkpt lat="59.9524874" lon="17.720189">
        <ele>60.7003</ele>
        <time>2014-06-11T20:26:26Z</time>
      </trkpt>
      <trkpt lat="59.9524954" lon="17.7202333">
        <ele>61.181</ele>
        <time>2014-06-11T20:26:27Z</time>
      </trkpt>
      <trkpt lat="59.952501" lon="17.7202806">
        <ele>60.7003</ele>
        <time>2014-06-11T20:26:28Z</time>
      </trkpt>
      <trkpt lat="59.9525044" lon="17.720333">
        <ele>60.7003</ele>
        <time>2014-06-11T20:26:29Z</time>
      </trkpt>
      <trkpt lat="59.9525061" lon="17.7203841">
        <ele>60.7003</ele>
        <time>2014-06-11T20:26:30Z</time>
      </trkpt>
      <trkpt lat="59.952501" lon="17.7204326">
        <ele>60.7003</ele>
        <time>2014-06-11T20:26:31Z</time>
      </trkpt>
      <trkpt lat="59.952502" lon="17.7204916">
        <ele>60.7003</ele>
        <time>2014-06-11T20:26:32Z</time>
      </trkpt>
      <trkpt lat="59.9524992" lon="17.7205515">
        <ele>60.2197</ele>
        <time>2014-06-11T20:26:33Z</time>
      </trkpt>
      <trkpt lat="59.9524975" lon="17.7206039">
        <ele>59.7391</ele>
        <time>2014-06-11T20:26:34Z</time>
      </trkpt>
      <trkpt lat="59.9524957" lon="17.7206551">
        <ele>59.7391</ele>
        <time>2014-06-11T20:26:35Z</time>
      </trkpt>
      <trkpt lat="59.9524922" lon="17.7207018">
        <ele>59.2584</ele>
        <time>2014-06-11T20:26:36Z</time>
      </trkpt>
      <trkpt lat="59.9524895" lon="17.7207488">
        <ele>58.2971</ele>
        <time>2014-06-11T20:26:37Z</time>
      </trkpt>
      <trkpt lat="59.9524948" lon="17.7208059">
        <ele>58.2971</ele>
        <time>2014-06-11T20:26:38Z</time>
      </trkpt>
      <trkpt lat="59.9524975" lon="17.7208655">
        <ele>58.2971</ele>
        <time>2014-06-11T20:26:39Z</time>
      </trkpt>
      <trkpt lat="59.952502" lon="17.7209226">
        <ele>58.7777</ele>
        <time>2014-06-11T20:26:40Z</time>
      </trkpt>
      <trkpt lat="59.9525005" lon="17.7209722">
        <ele>58.2971</ele>
        <time>2014-06-11T20:26:41Z</time>
      </trkpt>
      <trkpt lat="59.9524987" lon="17.7210243">
        <ele>57.3358</ele>
        <time>2014-06-11T20:26:42Z</time>
      </trkpt>
      <trkpt lat="59.9525011" lon="17.7210799">
        <ele>57.8165</ele>
        <time>2014-06-11T20:26:43Z</time>
      </trkpt>
      <trkpt lat="59.9525004" lon="17.721139">
        <ele>58.2971</ele>
        <time>2014-06-11T20:26:44Z</time>
      </trkpt>
      <trkpt lat="59.9524941" lon="17.7211949">
        <ele>58.2971</ele>
        <time>2014-06-11T20:26:45Z</time>
      </trkpt>
      <trkpt lat="59.9524855" lon="17.7212412">
        <ele>58.2971</ele>
        <time>2014-06-11T20:26:46Z</time>
      </trkpt>
      <trkpt lat="59.9524829" lon="17.7212861">
        <ele>57.8165</ele>
        <time>2014-06-11T20:26:47Z</time>
      </trkpt>
      <trkpt lat="59.952485" lon="17.7213357">
        <ele>58.2971</ele>
        <time>2014-06-11T20:26:48Z</time>
      </trkpt>
      <trkpt lat="59.9524909" lon="17.7213911">
        <ele>58.2971</ele>
        <time>2014-06-11T20:26:49Z</time>
      </trkpt>
      <trkpt lat="59.9524949" lon="17.7214449">
        <ele>57.8165</ele>
        <time>2014-06-11T20:26:50Z</time>
      </trkpt>
      <trkpt lat="59.9524953" lon="17.7214932">
        <ele>56.8551</ele>
        <time>2014-06-11T20:26:51Z</time>
      </trkpt>
      <trkpt lat="59.9524974" lon="17.7215353">
        <ele>56.3745</ele>
        <time>2014-06-11T20:26:52Z</time>
      </trkpt>
      <trkpt lat="59.9524994" lon="17.7215841">
        <ele>56.3745</ele>
        <time>2014-06-11T20:26:53Z</time>
      </trkpt>
      <trkpt lat="59.9525005" lon="17.7216429">
        <ele>55.8938</ele>
        <time>2014-06-11T20:26:54Z</time>
      </trkpt>
      <trkpt lat="59.9525089" lon="17.7217003">
        <ele>56.3745</ele>
        <time>2014-06-11T20:26:55Z</time>
      </trkpt>
      <trkpt lat="59.952515" lon="17.7217503">
        <ele>56.3745</ele>
        <time>2014-06-11T20:26:56Z</time>
      </trkpt>
      <trkpt lat="59.9525253" lon="17.7218042">
        <ele>56.8551</ele>
        <time>2014-06-11T20:26:57Z</time>
      </trkpt>
      <trkpt lat="59.9525358" lon="17.7218668">
        <ele>57.3358</ele>
        <time>2014-06-11T20:26:58Z</time>
      </trkpt>
      <trkpt lat="59.9525419" lon="17.7219233">
        <ele>57.3358</ele>
        <time>2014-06-11T20:26:59Z</time>
      </trkpt>
      <trkpt lat="59.9525497" lon="17.7219923">
        <ele>57.3358</ele>
        <time>2014-06-11T20:27:00Z</time>
      </trkpt>
      <trkpt lat="59.9525523" lon="17.7220508">
        <ele>56.8551</ele>
        <time>2014-06-11T20:27:01Z</time>
      </trkpt>
      <trkpt lat="59.9525581" lon="17.7221217">
        <ele>57.3358</ele>
        <time>2014-06-11T20:27:02Z</time>
      </trkpt>
      <trkpt lat="59.9525615" lon="17.7221807">
        <ele>56.8551</ele>
        <time>2014-06-11T20:27:03Z</time>
      </trkpt>
      <trkpt lat="59.9525641" lon="17.7222486">
        <ele>56.3745</ele>
        <time>2014-06-11T20:27:04Z</time>
      </trkpt>
      <trkpt lat="59.9525574" lon="17.7223105">
        <ele>56.3745</ele>
        <time>2014-06-11T20:27:05Z</time>
      </trkpt>
      <trkpt lat="59.952545" lon="17.7223729">
        <ele>55.8938</ele>
        <time>2014-06-11T20:27:06Z</time>
      </trkpt>
      <trkpt lat="59.952534" lon="17.7224283">
        <ele>55.8938</ele>
        <time>2014-06-11T20:27:07Z</time>
      </trkpt>
      <trkpt lat="59.9525221" lon="17.7224817">
        <ele>55.4131</ele>
        <time>2014-06-11T20:27:08Z</time>
      </trkpt>
      <trkpt lat="59.952513" lon="17.7225418">
        <ele>55.4131</ele>
        <time>2014-06-11T20:27:09Z</time>
      </trkpt>
      <trkpt lat="59.9525067" lon="17.7226008">
        <ele>55.8938</ele>
        <time>2014-06-11T20:27:10Z</time>
      </trkpt>
      <trkpt lat="59.9525031" lon="17.7226535">
        <ele>55.4131</ele>
        <time>2014-06-11T20:27:11Z</time>
      </trkpt>
      <trkpt lat="59.952499" lon="17.722703">
        <ele>54.9324</ele>
        <time>2014-06-11T20:27:12Z</time>
      </trkpt>
      <trkpt lat="59.9525027" lon="17.7227548">
        <ele>54.9324</ele>
        <time>2014-06-11T20:27:13Z</time>
      </trkpt>
      <trkpt lat="59.9525075" lon="17.7228074">
        <ele>54.9324</ele>
        <time>2014-06-11T20:27:14Z</time>
      </trkpt>
      <trkpt lat="59.9525128" lon="17.7228653">
        <ele>54.4518</ele>
        <time>2014-06-11T20:27:15Z</time>
      </trkpt>
      <trkpt lat="59.9525207" lon="17.7229262">
        <ele>53.9712</ele>
        <time>2014-06-11T20:27:16Z</time>
      </trkpt>
      <trkpt lat="59.95253" lon="17.7229794">
        <ele>53.9712</ele>
        <time>2014-06-11T20:27:17Z</time>
      </trkpt>
      <trkpt lat="59.9525332" lon="17.7230296">
        <ele>53.4905</ele>
        <time>2014-06-11T20:27:18Z</time>
      </trkpt>
      <trkpt lat="59.9525352" lon="17.7230743">
        <ele>53.9712</ele>
        <time>2014-06-11T20:27:19Z</time>
      </trkpt>
      <trkpt lat="59.9525415" lon="17.7231195">
        <ele>53.4905</ele>
        <time>2014-06-11T20:27:20Z</time>
      </trkpt>
      <trkpt lat="59.9525519" lon="17.7231684">
        <ele>53.4905</ele>
        <time>2014-06-11T20:27:21Z</time>
      </trkpt>
      <trkpt lat="59.9525619" lon="17.7232184">
        <ele>53.9712</ele>
        <time>2014-06-11T20:27:22Z</time>
      </trkpt>
      <trkpt lat="59.9525684" lon="17.7232635">
        <ele>53.9712</ele>
        <time>2014-06-11T20:27:23Z</time>
      </trkpt>
      <trkpt lat="59.952572" lon="17.7233074">
        <ele>53.4905</ele>
        <time>2014-06-11T20:27:24Z</time>
      </trkpt>
      <trkpt lat="59.9525802" lon="17.723358">
        <ele>53.9712</ele>
        <time>2014-06-11T20:27:25Z</time>
      </trkpt>
      <trkpt lat="59.952586" lon="17.7233959">
        <ele>53.9712</ele>
        <time>2014-06-11T20:27:26Z</time>
      </trkpt>
      <trkpt lat="59.9525952" lon="17.7234315">
        <ele>54.4518</ele>
        <time>2014-06-11T20:27:27Z</time>
      </trkpt>
      <trkpt lat="59.9526098" lon="17.7234762">
        <ele>54.9324</ele>
        <time>2014-06-11T20:27:28Z</time>
      </trkpt>
      <trkpt lat="59.9526241" lon="17.7235182">
        <ele>55.4131</ele>
        <time>2014-06-11T20:27:29Z</time>
      </trkpt>
      <trkpt lat="59.9526373" lon="17.7235672">
        <ele>54.9324</ele>
        <time>2014-06-11T20:27:30Z</time>
      </trkpt>
      <trkpt lat="59.9526463" lon="17.723619">
        <ele>54.4518</ele>
        <time>2014-06-11T20:27:31Z</time>
      </trkpt>
      <trkpt lat="59.9526564" lon="17.7236679">
        <ele>54.4518</ele>
        <time>2014-06-11T20:27:32Z</time>
      </trkpt>
      <trkpt lat="59.9526757" lon="17.7237187">
        <ele>54.4518</ele>
        <time>2014-06-11T20:27:33Z</time>
      </trkpt>
      <trkpt lat="59.9526879" lon="17.7237664">
        <ele>54.4518</ele>
        <time>2014-06-11T20:27:34Z</time>
      </trkpt>
      <trkpt lat="59.9526942" lon="17.7238119">
        <ele>53.9712</ele>
        <time>2014-06-11T20:27:35Z</time>
      </trkpt>
      <trkpt lat="59.9527044" lon="17.7238642">
        <ele>53.4905</ele>
        <time>2014-06-11T20:27:36Z</time>
      </trkpt>
      <trkpt lat="59.9527097" lon="17.7239186">
        <ele>53.4905</ele>
        <time>2014-06-11T20:27:37Z</time>
      </trkpt>
      <trkpt lat="59.9527097" lon="17.7239679">
        <ele>53.0098</ele>
        <time>2014-06-11T20:27:38Z</time>
      </trkpt>
      <trkpt lat="59.9527054" lon="17.7240186">
        <ele>52.0486</ele>
        <time>2014-06-11T20:27:39Z</time>
      </trkpt>
      <trkpt lat="59.9526995" lon="17.7240709">
        <ele>51.5679</ele>
        <time>2014-06-11T20:27:40Z</time>
      </trkpt>
      <trkpt lat="59.9526931" lon="17.724122">
        <ele>51.5679</ele>
        <time>2014-06-11T20:27:41Z</time>
      </trkpt>
      <trkpt lat="59.9526776" lon="17.7241611">
        <ele>50.126</ele>
        <time>2014-06-11T20:27:42Z</time>
      </trkpt>
      <trkpt lat="59.9526634" lon="17.7242008">
        <ele>50.126</ele>
        <time>2014-06-11T20:27:43Z</time>
      </trkpt>
      <trkpt lat="59.9526481" lon="17.7242347">
        <ele>49.6453</ele>
        <time>2014-06-11T20:27:44Z</time>
      </trkpt>
      <trkpt lat="59.9526336" lon="17.7242792">
        <ele>49.6453</ele>
        <time>2014-06-11T20:27:45Z</time>
      </trkpt>
      <trkpt lat="59.9526238" lon="17.724329">
        <ele>50.126</ele>
        <time>2014-06-11T20:27:46Z</time>
      </trkpt>
      <trkpt lat="59.9526134" lon="17.724381">
        <ele>50.126</ele>
        <time>2014-06-11T20:27:47Z</time>
      </trkpt>
      <trkpt lat="59.9525947" lon="17.7244284">
        <ele>50.126</ele>
        <time>2014-06-11T20:27:48Z</time>
      </trkpt>
      <trkpt lat="59.9525686" lon="17.7244688">
        <ele>50.6066</ele>
        <time>2014-06-11T20:27:49Z</time>
      </trkpt>
      <trkpt lat="59.9525413" lon="17.7245077">
        <ele>50.6066</ele>
        <time>2014-06-11T20:27:50Z</time>
      </trkpt>
      <trkpt lat="59.952517" lon="17.7245423">
        <ele>50.6066</ele>
        <time>2014-06-11T20:27:51Z</time>
      </trkpt>
      <trkpt lat="59.9524941" lon="17.7245758">
        <ele>50.6066</ele>
        <time>2014-06-11T20:27:52Z</time>
      </trkpt>
      <trkpt lat="59.9524735" lon="17.7246172">
        <ele>50.6066</ele>
        <time>2014-06-11T20:27:53Z</time>
      </trkpt>
      <trkpt lat="59.9524565" lon="17.7246579">
        <ele>50.6066</ele>
        <time>2014-06-11T20:27:54Z</time>
      </trkpt>
      <trkpt lat="59.9524388" lon="17.7246944">
        <ele>50.6066</ele>
        <time>2014-06-11T20:27:55Z</time>
      </trkpt>
      <trkpt lat="59.9524212" lon="17.7247376">
        <ele>50.6066</ele>
        <time>2014-06-11T20:27:56Z</time>
      </trkpt>
      <trkpt lat="59.9524039" lon="17.7247761">
        <ele>50.126</ele>
        <time>2014-06-11T20:27:57Z</time>
      </trkpt>
      <trkpt lat="59.9523859" lon="17.7248215">
        <ele>50.126</ele>
        <time>2014-06-11T20:27:58Z</time>
      </trkpt>
      <trkpt lat="59.9523627" lon="17.7248522">
        <ele>49.1646</ele>
        <time>2014-06-11T20:27:59Z</time>
      </trkpt>
      <trkpt lat="59.95234" lon="17.7248878">
        <ele>48.684</ele>
        <time>2014-06-11T20:28:00Z</time>
      </trkpt>
      <trkpt lat="59.9523193" lon="17.7249231">
        <ele>48.2034</ele>
        <time>2014-06-11T20:28:01Z</time>
      </trkpt>
      <trkpt lat="59.9522952" lon="17.7249488">
        <ele>47.7225</ele>
        <time>2014-06-11T20:28:02Z</time>
      </trkpt>
      <trkpt lat="59.9522725" lon="17.7249763">
        <ele>47.2418</ele>
        <time>2014-06-11T20:28:03Z</time>
      </trkpt>
      <trkpt lat="59.9522509" lon="17.7250048">
        <ele>46.7612</ele>
        <time>2014-06-11T20:28:04Z</time>
      </trkpt>
      <trkpt lat="59.9522306" lon="17.7250319">
        <ele>46.2806</ele>
        <time>2014-06-11T20:28:05Z</time>
      </trkpt>
      <trkpt lat="59.9522134" lon="17.7250692">
        <ele>45.7999</ele>
        <time>2014-06-11T20:28:06Z</time>
      </trkpt>
      <trkpt lat="59.9521943" lon="17.7251126">
        <ele>45.3192</ele>
        <time>2014-06-11T20:28:07Z</time>
      </trkpt>
      <trkpt lat="59.9521765" lon="17.7251716">
        <ele>45.7999</ele>
        <time>2014-06-11T20:28:08Z</time>
      </trkpt>
      <trkpt lat="59.9521604" lon="17.7252214">
        <ele>46.2806</ele>
        <time>2014-06-11T20:28:09Z</time>
      </trkpt>
      <trkpt lat="59.9521441" lon="17.7252643">
        <ele>46.2806</ele>
        <time>2014-06-11T20:28:10Z</time>
      </trkpt>
      <trkpt lat="59.9521274" lon="17.7253126">
        <ele>46.7612</ele>
        <time>2014-06-11T20:28:11Z</time>
      </trkpt>
      <trkpt lat="59.9521064" lon="17.7253462">
        <ele>46.7612</ele>
        <time>2014-06-11T20:28:12Z</time>
      </trkpt>
      <trkpt lat="59.9520807" lon="17.7253772">
        <ele>46.2806</ele>
        <time>2014-06-11T20:28:13Z</time>
      </trkpt>
      <trkpt lat="59.9520548" lon="17.7254105">
        <ele>46.2806</ele>
        <time>2014-06-11T20:28:14Z</time>
      </trkpt>
      <trkpt lat="59.9520358" lon="17.725452">
        <ele>46.2806</ele>
        <time>2014-06-11T20:28:15Z</time>
      </trkpt>
      <trkpt lat="59.952016" lon="17.7254933">
        <ele>46.2806</ele>
        <time>2014-06-11T20:28:16Z</time>
      </trkpt>
      <trkpt lat="59.9519913" lon="17.7255279">
        <ele>46.2806</ele>
        <time>2014-06-11T20:28:17Z</time>
      </trkpt>
      <trkpt lat="59.9519732" lon="17.7255659">
        <ele>46.2806</ele>
        <time>2014-06-11T20:28:18Z</time>
      </trkpt>
      <trkpt lat="59.9519595" lon="17.7256068">
        <ele>46.2806</ele>
        <time>2014-06-11T20:28:19Z</time>
      </trkpt>
      <trkpt lat="59.9519429" lon="17.7256519">
        <ele>46.2806</ele>
        <time>2014-06-11T20:28:20Z</time>
      </trkpt>
      <trkpt lat="59.951924" lon="17.725695">
        <ele>46.2806</ele>
        <time>2014-06-11T20:28:21Z</time>
      </trkpt>
      <trkpt lat="59.9519094" lon="17.7257424">
        <ele>46.2806</ele>
        <time>2014-06-11T20:28:22Z</time>
      </trkpt>
      <trkpt lat="59.9518948" lon="17.7257938">
        <ele>46.2806</ele>
        <time>2014-06-11T20:28:23Z</time>
      </trkpt>
      <trkpt lat="59.9518774" lon="17.7258335">
        <ele>46.2806</ele>
        <time>2014-06-11T20:28:24Z</time>
      </trkpt>
      <trkpt lat="59.9518606" lon="17.7258688">
        <ele>46.2806</ele>
        <time>2014-06-11T20:28:25Z</time>
      </trkpt>
      <trkpt lat="59.9518429" lon="17.7259104">
        <ele>46.2806</ele>
        <time>2014-06-11T20:28:26Z</time>
      </trkpt>
      <trkpt lat="59.9518219" lon="17.7259482">
        <ele>46.2806</ele>
        <time>2014-06-11T20:28:27Z</time>
      </trkpt>
      <trkpt lat="59.9517996" lon="17.7259791">
        <ele>46.2806</ele>
        <time>2014-06-11T20:28:28Z</time>
      </trkpt>
      <trkpt lat="59.9517752" lon="17.7260065">
        <ele>46.7612</ele>
        <time>2014-06-11T20:28:29Z</time>
      </trkpt>
      <trkpt lat="59.9517494" lon="17.7260369">
        <ele>46.7612</ele>
        <time>2014-06-11T20:28:30Z</time>
      </trkpt>
      <trkpt lat="59.9517213" lon="17.7260674">
        <ele>46.7612</ele>
        <time>2014-06-11T20:28:31Z</time>
      </trkpt>
      <trkpt lat="59.9516929" lon="17.7260974">
        <ele>47.2418</ele>
        <time>2014-06-11T20:28:32Z</time>
      </trkpt>
      <trkpt lat="59.95167" lon="17.7261321">
        <ele>47.2418</ele>
        <time>2014-06-11T20:28:33Z</time>
      </trkpt>
      <trkpt lat="59.9516529" lon="17.7261749">
        <ele>47.2418</ele>
        <time>2014-06-11T20:28:34Z</time>
      </trkpt>
      <trkpt lat="59.951636" lon="17.726204">
        <ele>47.2418</ele>
        <time>2014-06-11T20:28:35Z</time>
      </trkpt>
      <trkpt lat="59.9516152" lon="17.726234">
        <ele>47.2418</ele>
        <time>2014-06-11T20:28:36Z</time>
      </trkpt>
      <trkpt lat="59.9515961" lon="17.7262626">
        <ele>47.2418</ele>
        <time>2014-06-11T20:28:37Z</time>
      </trkpt>
      <trkpt lat="59.951582" lon="17.7262994">
        <ele>47.2418</ele>
        <time>2014-06-11T20:28:38Z</time>
      </trkpt>
      <trkpt lat="59.9515699" lon="17.7263507">
        <ele>47.2418</ele>
        <time>2014-06-11T20:28:39Z</time>
      </trkpt>
      <trkpt lat="59.9515593" lon="17.7264082">
        <ele>47.2418</ele>
        <time>2014-06-11T20:28:40Z</time>
      </trkpt>
      <trkpt lat="59.9515472" lon="17.7264567">
        <ele>47.2418</ele>
        <time>2014-06-11T20:28:41Z</time>
      </trkpt>
      <trkpt lat="59.9515295" lon="17.7264906">
        <ele>46.2806</ele>
        <time>2014-06-11T20:28:42Z</time>
      </trkpt>
      <trkpt lat="59.9515091" lon="17.7265187">
        <ele>46.2806</ele>
        <time>2014-06-11T20:28:43Z</time>
      </trkpt>
      <trkpt lat="59.9514928" lon="17.7265536">
        <ele>45.7999</ele>
        <time>2014-06-11T20:28:44Z</time>
      </trkpt>
      <trkpt lat="59.9514773" lon="17.7265911">
        <ele>45.3192</ele>
        <time>2014-06-11T20:28:45Z</time>
      </trkpt>
      <trkpt lat="59.9514598" lon="17.7266315">
        <ele>45.3192</ele>
        <time>2014-06-11T20:28:46Z</time>
      </trkpt>
      <trkpt lat="59.9514471" lon="17.7266667">
        <ele>44.8386</ele>
        <time>2014-06-11T20:28:47Z</time>
      </trkpt>
      <trkpt lat="59.9514389" lon="17.7267082">
        <ele>44.358</ele>
        <time>2014-06-11T20:28:48Z</time>
      </trkpt>
      <trkpt lat="59.9514376" lon="17.7267595">
        <ele>44.358</ele>
        <time>2014-06-11T20:28:49Z</time>
      </trkpt>
      <trkpt lat="59.9514391" lon="17.7268091">
        <ele>44.8386</ele>
        <time>2014-06-11T20:28:50Z</time>
      </trkpt>
      <trkpt lat="59.9514436" lon="17.7268588">
        <ele>44.8386</ele>
        <time>2014-06-11T20:28:51Z</time>
      </trkpt>
      <trkpt lat="59.9514515" lon="17.7269056">
        <ele>44.8386</ele>
        <time>2014-06-11T20:28:52Z</time>
      </trkpt>
      <trkpt lat="59.9514619" lon="17.7269474">
        <ele>45.3192</ele>
        <time>2014-06-11T20:28:53Z</time>
      </trkpt>
      <trkpt lat="59.9514763" lon="17.726993">
        <ele>46.2806</ele>
        <time>2014-06-11T20:28:54Z</time>
      </trkpt>
      <trkpt lat="59.9514901" lon="17.7270571">
        <ele>46.2806</ele>
        <time>2014-06-11T20:28:55Z</time>
      </trkpt>
      <trkpt lat="59.9515029" lon="17.7271218">
        <ele>46.2806</ele>
        <time>2014-06-11T20:28:56Z</time>
      </trkpt>
      <trkpt lat="59.9515167" lon="17.727183">
        <ele>46.2806</ele>
        <time>2014-06-11T20:28:57Z</time>
      </trkpt>
      <trkpt lat="59.9515213" lon="17.7272381">
        <ele>45.7999</ele>
        <time>2014-06-11T20:28:58Z</time>
      </trkpt>
      <trkpt lat="59.9515225" lon="17.7272945">
        <ele>45.3192</ele>
        <time>2014-06-11T20:28:59Z</time>
      </trkpt>
      <trkpt lat="59.9515246" lon="17.727351">
        <ele>45.3192</ele>
        <time>2014-06-11T20:29:00Z</time>
      </trkpt>
      <trkpt lat="59.9515244" lon="17.72741">
        <ele>45.3192</ele>
        <time>2014-06-11T20:29:01Z</time>
      </trkpt>
      <trkpt lat="59.9515297" lon="17.7274694">
        <ele>45.7999</ele>
        <time>2014-06-11T20:29:02Z</time>
      </trkpt>
      <trkpt lat="59.9515366" lon="17.727527">
        <ele>45.3192</ele>
        <time>2014-06-11T20:29:03Z</time>
      </trkpt>
      <trkpt lat="59.951539" lon="17.7275763">
        <ele>44.8386</ele>
        <time>2014-06-11T20:29:04Z</time>
      </trkpt>
      <trkpt lat="59.9515492" lon="17.7276258">
        <ele>45.3192</ele>
        <time>2014-06-11T20:29:05Z</time>
      </trkpt>
      <trkpt lat="59.9515592" lon="17.7276771">
        <ele>44.8386</ele>
        <time>2014-06-11T20:29:06Z</time>
      </trkpt>
      <trkpt lat="59.9515706" lon="17.7277246">
        <ele>44.8386</ele>
        <time>2014-06-11T20:29:07Z</time>
      </trkpt>
      <trkpt lat="59.9515924" lon="17.7277658">
        <ele>44.8386</ele>
        <time>2014-06-11T20:29:08Z</time>
      </trkpt>
      <trkpt lat="59.9516139" lon="17.7277938">
        <ele>44.8386</ele>
        <time>2014-06-11T20:29:09Z</time>
      </trkpt>
      <trkpt lat="59.9516308" lon="17.7278177">
        <ele>44.358</ele>
        <time>2014-06-11T20:29:10Z</time>
      </trkpt>
      <trkpt lat="59.9516471" lon="17.7278422">
        <ele>44.358</ele>
        <time>2014-06-11T20:29:11Z</time>
      </trkpt>
      <trkpt lat="59.9516684" lon="17.7278657">
        <ele>44.8386</ele>
        <time>2014-06-11T20:29:12Z</time>
      </trkpt>
      <trkpt lat="59.9516893" lon="17.7278824">
        <ele>45.3192</ele>
        <time>2014-06-11T20:29:13Z</time>
      </trkpt>
      <trkpt lat="59.9517053" lon="17.7279017">
        <ele>45.7999</ele>
        <time>2014-06-11T20:29:14Z</time>
      </trkpt>
      <trkpt lat="59.9517203" lon="17.7279093">
        <ele>46.7612</ele>
        <time>2014-06-11T20:29:15Z</time>
      </trkpt>
      <trkpt lat="59.9517381" lon="17.7279188">
        <ele>46.7612</ele>
        <time>2014-06-11T20:29:16Z</time>
      </trkpt>
      <trkpt lat="59.9517571" lon="17.7279234">
        <ele>47.2418</ele>
        <time>2014-06-11T20:29:17Z</time>
      </trkpt>
      <trkpt lat="59.9517747" lon="17.7279211">
        <ele>46.7612</ele>
        <time>2014-06-11T20:29:18Z</time>
      </trkpt>
      <trkpt lat="59.9518039" lon="17.7279128">
        <ele>47.2418</ele>
        <time>2014-06-11T20:29:19Z</time>
      </trkpt>
      <trkpt lat="59.9518286" lon="17.7278937">
        <ele>47.7225</ele>
        <time>2014-06-11T20:29:20Z</time>
      </trkpt>
      <trkpt lat="59.9518564" lon="17.7278735">
        <ele>48.2034</ele>
        <time>2014-06-11T20:29:21Z</time>
      </trkpt>
      <trkpt lat="59.9518828" lon="17.7278533">
        <ele>48.684</ele>
        <time>2014-06-11T20:29:22Z</time>
      </trkpt>
      <trkpt lat="59.9519134" lon="17.7278281">
        <ele>49.1646</ele>
        <time>2014-06-11T20:29:23Z</time>
      </trkpt>
      <trkpt lat="59.9519393" lon="17.7278021">
        <ele>50.126</ele>
        <time>2014-06-11T20:29:24Z</time>
      </trkpt>
      <trkpt lat="59.9519571" lon="17.7277588">
        <ele>49.6453</ele>
        <time>2014-06-11T20:29:25Z</time>
      </trkpt>
      <trkpt lat="59.9519755" lon="17.7277177">
        <ele>50.126</ele>
        <time>2014-06-11T20:29:26Z</time>
      </trkpt>
      <trkpt lat="59.951995" lon="17.7276692">
        <ele>50.126</ele>
        <time>2014-06-11T20:29:27Z</time>
      </trkpt>
      <trkpt lat="59.9520162" lon="17.7276194">
        <ele>50.6066</ele>
        <time>2014-06-11T20:29:28Z</time>
      </trkpt>
      <trkpt lat="59.9520307" lon="17.727581">
        <ele>50.6066</ele>
        <time>2014-06-11T20:29:29Z</time>
      </trkpt>
      <trkpt lat="59.9520341" lon="17.7275373">
        <ele>51.0872</ele>
        <time>2014-06-11T20:29:30Z</time>
      </trkpt>
      <trkpt lat="59.9520374" lon="17.7274816">
        <ele>51.5679</ele>
        <time>2014-06-11T20:29:31Z</time>
      </trkpt>
      <trkpt lat="59.9520622" lon="17.72742">
        <ele>52.0486</ele>
        <time>2014-06-11T20:29:32Z</time>
      </trkpt>
      <trkpt lat="59.952076" lon="17.7273597">
        <ele>52.5292</ele>
        <time>2014-06-11T20:29:33Z</time>
      </trkpt>
      <trkpt lat="59.952084" lon="17.7273008">
        <ele>52.5292</ele>
        <time>2014-06-11T20:29:34Z</time>
      </trkpt>
      <trkpt lat="59.9520944" lon="17.7272399">
        <ele>52.5292</ele>
        <time>2014-06-11T20:29:35Z</time>
      </trkpt>
      <trkpt lat="59.9521071" lon="17.7271867">
        <ele>52.5292</ele>
        <time>2014-06-11T20:29:36Z</time>
      </trkpt>
      <trkpt lat="59.9521244" lon="17.7271293">
        <ele>53.4905</ele>
        <time>2014-06-11T20:29:37Z</time>
      </trkpt>
      <trkpt lat="59.9521261" lon="17.7270732">
        <ele>52.5292</ele>
        <time>2014-06-11T20:29:38Z</time>
      </trkpt>
      <trkpt lat="59.9521352" lon="17.7270187">
        <ele>52.0486</ele>
        <time>2014-06-11T20:29:39Z</time>
      </trkpt>
      <trkpt lat="59.9521499" lon="17.7269687">
        <ele>53.0098</ele>
        <time>2014-06-11T20:29:40Z</time>
      </trkpt>
      <trkpt lat="59.9521538" lon="17.7269219">
        <ele>53.0098</ele>
        <time>2014-06-11T20:29:41Z</time>
      </trkpt>
      <trkpt lat="59.9521623" lon="17.7268729">
        <ele>53.0098</ele>
        <time>2014-06-11T20:29:42Z</time>
      </trkpt>
      <trkpt lat="59.9521732" lon="17.7268251">
        <ele>53.4905</ele>
        <time>2014-06-11T20:29:43Z</time>
      </trkpt>
      <trkpt lat="59.9521827" lon="17.7267792">
        <ele>53.4905</ele>
        <time>2014-06-11T20:29:44Z</time>
      </trkpt>
      <trkpt lat="59.9521937" lon="17.7267224">
        <ele>53.4905</ele>
        <time>2014-06-11T20:29:45Z</time>
      </trkpt>
      <trkpt lat="59.9522014" lon="17.7266558">
        <ele>53.4905</ele>
        <time>2014-06-11T20:29:46Z</time>
      </trkpt>
      <trkpt lat="59.9522114" lon="17.7266">
        <ele>53.4905</ele>
        <time>2014-06-11T20:29:47Z</time>
      </trkpt>
      <trkpt lat="59.9522238" lon="17.7265537">
        <ele>53.0098</ele>
        <time>2014-06-11T20:29:48Z</time>
      </trkpt>
      <trkpt lat="59.9522374" lon="17.7265139">
        <ele>52.5292</ele>
        <time>2014-06-11T20:29:49Z</time>
      </trkpt>
      <trkpt lat="59.9522545" lon="17.7264761">
        <ele>52.5292</ele>
        <time>2014-06-11T20:29:50Z</time>
      </trkpt>
      <trkpt lat="59.9522705" lon="17.7264399">
        <ele>52.0486</ele>
        <time>2014-06-11T20:29:51Z</time>
      </trkpt>
      <trkpt lat="59.9522895" lon="17.726402">
        <ele>52.5292</ele>
        <time>2014-06-11T20:29:52Z</time>
      </trkpt>
      <trkpt lat="59.9523055" lon="17.7263673">
        <ele>52.0486</ele>
        <time>2014-06-11T20:29:53Z</time>
      </trkpt>
      <trkpt lat="59.9523184" lon="17.7263273">
        <ele>51.0872</ele>
        <time>2014-06-11T20:29:54Z</time>
      </trkpt>
      <trkpt lat="59.9523311" lon="17.726287">
        <ele>50.126</ele>
        <time>2014-06-11T20:29:55Z</time>
      </trkpt>
      <trkpt lat="59.9523492" lon="17.7262505">
        <ele>50.6066</ele>
        <time>2014-06-11T20:29:56Z</time>
      </trkpt>
      <trkpt lat="59.9523642" lon="17.7262123">
        <ele>50.6066</ele>
        <time>2014-06-11T20:29:57Z</time>
      </trkpt>
      <trkpt lat="59.952384" lon="17.7261704">
        <ele>50.126</ele>
        <time>2014-06-11T20:29:58Z</time>
      </trkpt>
      <trkpt lat="59.9524026" lon="17.7261285">
        <ele>49.1646</ele>
        <time>2014-06-11T20:29:59Z</time>
      </trkpt>
      <trkpt lat="59.9524176" lon="17.7260933">
        <ele>49.1646</ele>
        <time>2014-06-11T20:30:00Z</time>
      </trkpt>
      <trkpt lat="59.9524321" lon="17.7260575">
        <ele>48.684</ele>
        <time>2014-06-11T20:30:01Z</time>
      </trkpt>
      <trkpt lat="59.9524475" lon="17.7260228">
        <ele>46.7612</ele>
        <time>2014-06-11T20:30:02Z</time>
      </trkpt>
      <trkpt lat="59.9524697" lon="17.7259898">
        <ele>46.7612</ele>
        <time>2014-06-11T20:30:03Z</time>
      </trkpt>
      <trkpt lat="59.952487" lon="17.725957">
        <ele>46.2806</ele>
        <time>2014-06-11T20:30:04Z</time>
      </trkpt>
      <trkpt lat="59.9525041" lon="17.7259136">
        <ele>46.7612</ele>
        <time>2014-06-11T20:30:05Z</time>
      </trkpt>
      <trkpt lat="59.9525202" lon="17.7258732">
        <ele>46.7612</ele>
        <time>2014-06-11T20:30:06Z</time>
      </trkpt>
      <trkpt lat="59.9525352" lon="17.7258447">
        <ele>46.2806</ele>
        <time>2014-06-11T20:30:07Z</time>
      </trkpt>
      <trkpt lat="59.9525527" lon="17.7258156">
        <ele>45.7999</ele>
        <time>2014-06-11T20:30:08Z</time>
      </trkpt>
      <trkpt lat="59.9525735" lon="17.7257795">
        <ele>45.3192</ele>
        <time>2014-06-11T20:30:09Z</time>
      </trkpt>
      <trkpt lat="59.9525984" lon="17.7257494">
        <ele>44.8386</ele>
        <time>2014-06-11T20:30:10Z</time>
      </trkpt>
      <trkpt lat="59.9526249" lon="17.7257137">
        <ele>44.358</ele>
        <time>2014-06-11T20:30:11Z</time>
      </trkpt>
      <trkpt lat="59.9526491" lon="17.7256817">
        <ele>43.8773</ele>
        <time>2014-06-11T20:30:12Z</time>
      </trkpt>
      <trkpt lat="59.9526669" lon="17.7256518">
        <ele>43.3966</ele>
        <time>2014-06-11T20:30:13Z</time>
      </trkpt>
      <trkpt lat="59.952689" lon="17.7256199">
        <ele>43.8773</ele>
        <time>2014-06-11T20:30:14Z</time>
      </trkpt>
      <trkpt lat="59.952706" lon="17.7255844">
        <ele>43.3966</ele>
        <time>2014-06-11T20:30:15Z</time>
      </trkpt>
      <trkpt lat="59.9527178" lon="17.7255545">
        <ele>43.3966</ele>
        <time>2014-06-11T20:30:16Z</time>
      </trkpt>
      <trkpt lat="59.9527334" lon="17.7255208">
        <ele>43.3966</ele>
        <time>2014-06-11T20:30:17Z</time>
      </trkpt>
      <trkpt lat="59.9527552" lon="17.7254896">
        <ele>43.8773</ele>
        <time>2014-06-11T20:30:18Z</time>
      </trkpt>
      <trkpt lat="59.9527745" lon="17.7254544">
        <ele>43.8773</ele>
        <time>2014-06-11T20:30:19Z</time>
      </trkpt>
      <trkpt lat="59.9527956" lon="17.725417">
        <ele>44.358</ele>
        <time>2014-06-11T20:30:20Z</time>
      </trkpt>
      <trkpt lat="59.9528149" lon="17.7253789">
        <ele>44.358</ele>
        <time>2014-06-11T20:30:21Z</time>
      </trkpt>
      <trkpt lat="59.952831" lon="17.7253426">
        <ele>43.3966</ele>
        <time>2014-06-11T20:30:22Z</time>
      </trkpt>
      <trkpt lat="59.9528502" lon="17.7253037">
        <ele>42.916</ele>
        <time>2014-06-11T20:30:23Z</time>
      </trkpt>
      <trkpt lat="59.9528744" lon="17.7252675">
        <ele>43.3966</ele>
        <time>2014-06-11T20:30:24Z</time>
      </trkpt>
      <trkpt lat="59.9528915" lon="17.7252275">
        <ele>43.8773</ele>
        <time>2014-06-11T20:30:25Z</time>
      </trkpt>
      <trkpt lat="59.952907" lon="17.725185">
        <ele>43.8773</ele>
        <time>2014-06-11T20:30:26Z</time>
      </trkpt>
      <trkpt lat="59.9529258" lon="17.725154">
        <ele>44.358</ele>
        <time>2014-06-11T20:30:27Z</time>
      </trkpt>
      <trkpt lat="59.9529497" lon="17.7251199">
        <ele>44.8386</ele>
        <time>2014-06-11T20:30:28Z</time>
      </trkpt>
      <trkpt lat="59.9529786" lon="17.7250826">
        <ele>44.8386</ele>
        <time>2014-06-11T20:30:29Z</time>
      </trkpt>
      <trkpt lat="59.9530025" lon="17.7250465">
        <ele>44.8386</ele>
        <time>2014-06-11T20:30:30Z</time>
      </trkpt>
      <trkpt lat="59.9530264" lon="17.7250144">
        <ele>44.8386</ele>
        <time>2014-06-11T20:30:31Z</time>
      </trkpt>
      <trkpt lat="59.9530511" lon="17.7249847">
        <ele>45.3192</ele>
        <time>2014-06-11T20:30:32Z</time>
      </trkpt>
      <trkpt lat="59.9530704" lon="17.7249501">
        <ele>44.8386</ele>
        <time>2014-06-11T20:30:33Z</time>
      </trkpt>
      <trkpt lat="59.9530901" lon="17.7249149">
        <ele>44.8386</ele>
        <time>2014-06-11T20:30:34Z</time>
      </trkpt>
      <trkpt lat="59.9531087" lon="17.7248775">
        <ele>44.358</ele>
        <time>2014-06-11T20:30:35Z</time>
      </trkpt>
      <trkpt lat="59.9531322" lon="17.7248412">
        <ele>44.358</ele>
        <time>2014-06-11T20:30:36Z</time>
      </trkpt>
      <trkpt lat="59.9531527" lon="17.7248029">
        <ele>44.358</ele>
        <time>2014-06-11T20:30:37Z</time>
      </trkpt>
      <trkpt lat="59.9531723" lon="17.7247592">
        <ele>43.8773</ele>
        <time>2014-06-11T20:30:38Z</time>
      </trkpt>
      <trkpt lat="59.9531894" lon="17.7247226">
        <ele>43.3966</ele>
        <time>2014-06-11T20:30:39Z</time>
      </trkpt>
      <trkpt lat="59.9532055" lon="17.724691">
        <ele>43.3966</ele>
        <time>2014-06-11T20:30:40Z</time>
      </trkpt>
      <trkpt lat="59.9532253" lon="17.7246604">
        <ele>43.8773</ele>
        <time>2014-06-11T20:30:41Z</time>
      </trkpt>
      <trkpt lat="59.9532449" lon="17.7246267">
        <ele>44.358</ele>
        <time>2014-06-11T20:30:42Z</time>
      </trkpt>
      <trkpt lat="59.9532614" lon="17.7245967">
        <ele>43.8773</ele>
        <time>2014-06-11T20:30:43Z</time>
      </trkpt>
      <trkpt lat="59.9532799" lon="17.7245719">
        <ele>43.8773</ele>
        <time>2014-06-11T20:30:44Z</time>
      </trkpt>
      <trkpt lat="59.9532962" lon="17.7245385">
        <ele>43.8773</ele>
        <time>2014-06-11T20:30:45Z</time>
      </trkpt>
      <trkpt lat="59.9533106" lon="17.7245066">
        <ele>44.8386</ele>
        <time>2014-06-11T20:30:46Z</time>
      </trkpt>
      <trkpt lat="59.9533237" lon="17.7244708">
        <ele>45.3192</ele>
        <time>2014-06-11T20:30:47Z</time>
      </trkpt>
      <trkpt lat="59.9533442" lon="17.7244361">
        <ele>46.2806</ele>
        <time>2014-06-11T20:30:48Z</time>
      </trkpt>
      <trkpt lat="59.953363" lon="17.7244014">
        <ele>46.2806</ele>
        <time>2014-06-11T20:30:49Z</time>
      </trkpt>
      <trkpt lat="59.9533747" lon="17.7243687">
        <ele>46.2806</ele>
        <time>2014-06-11T20:30:50Z</time>
      </trkpt>
      <trkpt lat="59.9533894" lon="17.7243371">
        <ele>47.2418</ele>
        <time>2014-06-11T20:30:51Z</time>
      </trkpt>
      <trkpt lat="59.9534065" lon="17.7243009">
        <ele>47.7225</ele>
        <time>2014-06-11T20:30:52Z</time>
      </trkpt>
      <trkpt lat="59.953418" lon="17.7242637">
        <ele>47.7225</ele>
        <time>2014-06-11T20:30:53Z</time>
      </trkpt>
      <trkpt lat="59.9534299" lon="17.7242199">
        <ele>47.7225</ele>
        <time>2014-06-11T20:30:54Z</time>
      </trkpt>
      <trkpt lat="59.9534511" lon="17.7241788">
        <ele>48.2034</ele>
        <time>2014-06-11T20:30:55Z</time>
      </trkpt>
      <trkpt lat="59.9534743" lon="17.7241388">
        <ele>48.2034</ele>
        <time>2014-06-11T20:30:56Z</time>
      </trkpt>
      <trkpt lat="59.9535008" lon="17.7241018">
        <ele>49.6453</ele>
        <time>2014-06-11T20:30:57Z</time>
      </trkpt>
      <trkpt lat="59.9535202" lon="17.7240667">
        <ele>49.6453</ele>
        <time>2014-06-11T20:30:58Z</time>
      </trkpt>
      <trkpt lat="59.953536" lon="17.7240331">
        <ele>50.126</ele>
        <time>2014-06-11T20:30:59Z</time>
      </trkpt>
      <trkpt lat="59.9535515" lon="17.7239987">
        <ele>50.126</ele>
        <time>2014-06-11T20:31:00Z</time>
      </trkpt>
      <trkpt lat="59.9535702" lon="17.7239614">
        <ele>49.6453</ele>
        <time>2014-06-11T20:31:01Z</time>
      </trkpt>
      <trkpt lat="59.953601" lon="17.7239335">
        <ele>50.6066</ele>
        <time>2014-06-11T20:31:02Z</time>
      </trkpt>
      <trkpt lat="59.9536285" lon="17.7239066">
        <ele>50.6066</ele>
        <time>2014-06-11T20:31:03Z</time>
      </trkpt>
      <trkpt lat="59.9536484" lon="17.723871">
        <ele>50.6066</ele>
        <time>2014-06-11T20:31:04Z</time>
      </trkpt>
      <trkpt lat="59.9536665" lon="17.7238325">
        <ele>50.126</ele>
        <time>2014-06-11T20:31:05Z</time>
      </trkpt>
      <trkpt lat="59.9536846" lon="17.7237973">
        <ele>49.6453</ele>
        <time>2014-06-11T20:31:06Z</time>
      </trkpt>
      <trkpt lat="59.9537005" lon="17.7237673">
        <ele>49.1646</ele>
        <time>2014-06-11T20:31:07Z</time>
      </trkpt>
      <trkpt lat="59.9537209" lon="17.7237317">
        <ele>48.684</ele>
        <time>2014-06-11T20:31:08Z</time>
      </trkpt>
      <trkpt lat="59.9537453" lon="17.7237004">
        <ele>49.1646</ele>
        <time>2014-06-11T20:31:09Z</time>
      </trkpt>
      <trkpt lat="59.9537681" lon="17.7236781">
        <ele>49.1646</ele>
        <time>2014-06-11T20:31:10Z</time>
      </trkpt>
      <trkpt lat="59.9537945" lon="17.7236515">
        <ele>50.126</ele>
        <time>2014-06-11T20:31:11Z</time>
      </trkpt>
      <trkpt lat="59.9538134" lon="17.7236208">
        <ele>50.126</ele>
        <time>2014-06-11T20:31:12Z</time>
      </trkpt>
      <trkpt lat="59.9538338" lon="17.7235942">
        <ele>50.126</ele>
        <time>2014-06-11T20:31:13Z</time>
      </trkpt>
      <trkpt lat="59.9538569" lon="17.7235782">
        <ele>50.126</ele>
        <time>2014-06-11T20:31:14Z</time>
      </trkpt>
      <trkpt lat="59.9538799" lon="17.7235562">
        <ele>50.126</ele>
        <time>2014-06-11T20:31:15Z</time>
      </trkpt>
      <trkpt lat="59.9539053" lon="17.7235373">
        <ele>51.0872</ele>
        <time>2014-06-11T20:31:16Z</time>
      </trkpt>
      <trkpt lat="59.9539312" lon="17.7235202">
        <ele>51.0872</ele>
        <time>2014-06-11T20:31:17Z</time>
      </trkpt>
      <trkpt lat="59.9539557" lon="17.7235074">
        <ele>51.0872</ele>
        <time>2014-06-11T20:31:18Z</time>
      </trkpt>
      <trkpt lat="59.9539814" lon="17.7234917">
        <ele>51.0872</ele>
        <time>2014-06-11T20:31:19Z</time>
      </trkpt>
      <trkpt lat="59.9540098" lon="17.7234756">
        <ele>51.5679</ele>
        <time>2014-06-11T20:31:20Z</time>
      </trkpt>
      <trkpt lat="59.954039" lon="17.7234528">
        <ele>52.0486</ele>
        <time>2014-06-11T20:31:21Z</time>
      </trkpt>
      <trkpt lat="59.9540658" lon="17.7234255">
        <ele>52.0486</ele>
        <time>2014-06-11T20:31:22Z</time>
      </trkpt>
      <trkpt lat="59.95409" lon="17.7233959">
        <ele>52.0486</ele>
        <time>2014-06-11T20:31:23Z</time>
      </trkpt>
      <trkpt lat="59.9541125" lon="17.7233725">
        <ele>51.5679</ele>
        <time>2014-06-11T20:31:24Z</time>
      </trkpt>
      <trkpt lat="59.9541348" lon="17.7233513">
        <ele>51.5679</ele>
        <time>2014-06-11T20:31:25Z</time>
      </trkpt>
      <trkpt lat="59.954161" lon="17.7233386">
        <ele>52.5292</ele>
        <time>2014-06-11T20:31:26Z</time>
      </trkpt>
      <trkpt lat="59.9541845" lon="17.7233229">
        <ele>53.0098</ele>
        <time>2014-06-11T20:31:27Z</time>
      </trkpt>
      <trkpt lat="59.9542149" lon="17.7233136">
        <ele>53.9712</ele>
        <time>2014-06-11T20:31:28Z</time>
      </trkpt>
      <trkpt lat="59.9542426" lon="17.7232977">
        <ele>55.8938</ele>
        <time>2014-06-11T20:31:29Z</time>
      </trkpt>
      <trkpt lat="59.9542663" lon="17.7232991">
        <ele>55.8938</ele>
        <time>2014-06-11T20:31:30Z</time>
      </trkpt>
      <trkpt lat="59.954288" lon="17.7232929">
        <ele>56.3745</ele>
        <time>2014-06-11T20:31:31Z</time>
      </trkpt>
      <trkpt lat="59.9543145" lon="17.7232804">
        <ele>57.3358</ele>
        <time>2014-06-11T20:31:32Z</time>
      </trkpt>
      <trkpt lat="59.9543363" lon="17.723273">
        <ele>57.8165</ele>
        <time>2014-06-11T20:31:33Z</time>
      </trkpt>
      <trkpt lat="59.9543726" lon="17.7232727">
        <ele>60.2197</ele>
        <time>2014-06-11T20:31:34Z</time>
      </trkpt>
      <trkpt lat="59.9544065" lon="17.7232821">
        <ele>62.1423</ele>
        <time>2014-06-11T20:31:35Z</time>
      </trkpt>
      <trkpt lat="59.9544347" lon="17.7232923">
        <ele>62.6229</ele>
        <time>2014-06-11T20:31:36Z</time>
      </trkpt>
      <trkpt lat="59.9544695" lon="17.7232841">
        <ele>65.0264</ele>
        <time>2014-06-11T20:31:37Z</time>
      </trkpt>
      <trkpt lat="59.9545118" lon="17.7232852">
        <ele>67.9103</ele>
        <time>2014-06-11T20:31:38Z</time>
      </trkpt>
      <trkpt lat="59.9545342" lon="17.7233021">
        <ele>68.3909</ele>
        <time>2014-06-11T20:31:39Z</time>
      </trkpt>
      <trkpt lat="59.9545527" lon="17.7233173">
        <ele>68.8716</ele>
        <time>2014-06-11T20:31:40Z</time>
      </trkpt>
      <trkpt lat="59.9545723" lon="17.7233246">
        <ele>69.8329</ele>
        <time>2014-06-11T20:31:41Z</time>
      </trkpt>
      <trkpt lat="59.9545915" lon="17.7233354">
        <ele>70.3135</ele>
        <time>2014-06-11T20:31:42Z</time>
      </trkpt>
      <trkpt lat="59.9546164" lon="17.7233435">
        <ele>71.2749</ele>
        <time>2014-06-11T20:31:43Z</time>
      </trkpt>
      <trkpt lat="59.9546419" lon="17.7233565">
        <ele>71.7555</ele>
        <time>2014-06-11T20:31:44Z</time>
      </trkpt>
      <trkpt lat="59.9546714" lon="17.7233691">
        <ele>72.7169</ele>
        <time>2014-06-11T20:31:45Z</time>
      </trkpt>
      <trkpt lat="59.9546906" lon="17.7233654">
        <ele>73.1976</ele>
        <time>2014-06-11T20:31:46Z</time>
      </trkpt>
      <trkpt lat="59.9547049" lon="17.7233711">
        <ele>73.6782</ele>
        <time>2014-06-11T20:31:47Z</time>
      </trkpt>
      <trkpt lat="59.954729" lon="17.7233811">
        <ele>75.1202</ele>
        <time>2014-06-11T20:31:48Z</time>
      </trkpt>
      <trkpt lat="59.9547544" lon="17.7233975">
        <ele>76.0814</ele>
        <time>2014-06-11T20:31:49Z</time>
      </trkpt>
      <trkpt lat="59.9547885" lon="17.7234178">
        <ele>77.5234</ele>
        <time>2014-06-11T20:31:50Z</time>
      </trkpt>
      <trkpt lat="59.9548174" lon="17.7234336">
        <ele>78.4847</ele>
        <time>2014-06-11T20:31:51Z</time>
      </trkpt>
      <trkpt lat="59.9548454" lon="17.7234504">
        <ele>78.9655</ele>
        <time>2014-06-11T20:31:52Z</time>
      </trkpt>
      <trkpt lat="59.9548803" lon="17.7234736">
        <ele>80.8882</ele>
        <time>2014-06-11T20:31:53Z</time>
      </trkpt>
      <trkpt lat="59.9549112" lon="17.7234913">
        <ele>81.8494</ele>
        <time>2014-06-11T20:31:54Z</time>
      </trkpt>
      <trkpt lat="59.9549385" lon="17.7235094">
        <ele>81.8494</ele>
        <time>2014-06-11T20:31:55Z</time>
      </trkpt>
      <trkpt lat="59.9549634" lon="17.7235206">
        <ele>81.8494</ele>
        <time>2014-06-11T20:31:56Z</time>
      </trkpt>
      <trkpt lat="59.9549941" lon="17.7235326">
        <ele>81.8494</ele>
        <time>2014-06-11T20:31:57Z</time>
      </trkpt>
      <trkpt lat="59.9550326" lon="17.7235391">
        <ele>83.2914</ele>
        <time>2014-06-11T20:31:58Z</time>
      </trkpt>
      <trkpt lat="59.9550687" lon="17.7235426">
        <ele>84.2527</ele>
        <time>2014-06-11T20:31:59Z</time>
      </trkpt>
      <trkpt lat="59.9551061" lon="17.7235553">
        <ele>84.7334</ele>
        <time>2014-06-11T20:32:00Z</time>
      </trkpt>
      <trkpt lat="59.9551343" lon="17.7235716">
        <ele>84.7334</ele>
        <time>2014-06-11T20:32:01Z</time>
      </trkpt>
      <trkpt lat="59.9551433" lon="17.7235867">
        <ele>82.3301</ele>
        <time>2014-06-11T20:32:02Z</time>
      </trkpt>
      <trkpt lat="59.955163" lon="17.7235864">
        <ele>81.3688</ele>
        <time>2014-06-11T20:32:03Z</time>
      </trkpt>
      <trkpt lat="59.9551729" lon="17.7235819">
        <ele>78.4847</ele>
        <time>2014-06-11T20:32:04Z</time>
      </trkpt>
      <trkpt lat="59.9551872" lon="17.7235784">
        <ele>77.0428</ele>
        <time>2014-06-11T20:32:05Z</time>
      </trkpt>
      <trkpt lat="59.9551981" lon="17.7235793">
        <ele>74.6395</ele>
        <time>2014-06-11T20:32:06Z</time>
      </trkpt>
      <trkpt lat="59.9552136" lon="17.7235711">
        <ele>72.7169</ele>
        <time>2014-06-11T20:32:07Z</time>
      </trkpt>
      <trkpt lat="59.9552257" lon="17.7235605">
        <ele>70.7942</ele>
        <time>2014-06-11T20:32:08Z</time>
      </trkpt>
      <trkpt lat="59.9552406" lon="17.7235421">
        <ele>69.3523</ele>
        <time>2014-06-11T20:32:09Z</time>
      </trkpt>
      <trkpt lat="59.9552502" lon="17.7235208">
        <ele>67.4297</ele>
        <time>2014-06-11T20:32:10Z</time>
      </trkpt>
      <trkpt lat="59.9552763" lon="17.7234959">
        <ele>68.3909</ele>
        <time>2014-06-11T20:32:11Z</time>
      </trkpt>
      <trkpt lat="59.9553033" lon="17.7234719">
        <ele>69.3523</ele>
        <time>2014-06-11T20:32:12Z</time>
      </trkpt>
      <trkpt lat="59.9553175" lon="17.7234463">
        <ele>69.3523</ele>
        <time>2014-06-11T20:32:13Z</time>
      </trkpt>
      <trkpt lat="59.9553376" lon="17.7234353">
        <ele>68.3909</ele>
        <time>2014-06-11T20:32:14Z</time>
      </trkpt>
      <trkpt lat="59.9553599" lon="17.7234256">
        <ele>67.9103</ele>
        <time>2014-06-11T20:32:15Z</time>
      </trkpt>
      <trkpt lat="59.9553727" lon="17.7234183">
        <ele>66.4683</ele>
        <time>2014-06-11T20:32:16Z</time>
      </trkpt>
      <trkpt lat="59.9553975" lon="17.7234092">
        <ele>65.9877</ele>
        <time>2014-06-11T20:32:17Z</time>
      </trkpt>
      <trkpt lat="59.9554314" lon="17.7234022">
        <ele>66.4683</ele>
        <time>2014-06-11T20:32:18Z</time>
      </trkpt>
      <trkpt lat="59.9554499" lon="17.7234092">
        <ele>65.5071</ele>
        <time>2014-06-11T20:32:19Z</time>
      </trkpt>
      <trkpt lat="59.9554702" lon="17.7234146">
        <ele>64.5457</ele>
        <time>2014-06-11T20:32:20Z</time>
      </trkpt>
      <trkpt lat="59.9555042" lon="17.7234141">
        <ele>65.9877</ele>
        <time>2014-06-11T20:32:21Z</time>
      </trkpt>
      <trkpt lat="59.9555303" lon="17.7234147">
        <ele>65.9877</ele>
        <time>2014-06-11T20:32:22Z</time>
      </trkpt>
      <trkpt lat="59.9555618" lon="17.723425">
        <ele>66.949</ele>
        <time>2014-06-11T20:32:23Z</time>
      </trkpt>
      <trkpt lat="59.9555852" lon="17.72344">
        <ele>67.4297</ele>
        <time>2014-06-11T20:32:24Z</time>
      </trkpt>
      <trkpt lat="59.9556091" lon="17.7234514">
        <ele>67.9103</ele>
        <time>2014-06-11T20:32:25Z</time>
      </trkpt>
      <trkpt lat="59.955639" lon="17.7234631">
        <ele>69.3523</ele>
        <time>2014-06-11T20:32:26Z</time>
      </trkpt>
      <trkpt lat="59.9556562" lon="17.7234773">
        <ele>68.8716</ele>
        <time>2014-06-11T20:32:27Z</time>
      </trkpt>
      <trkpt lat="59.9556796" lon="17.7235017">
        <ele>69.3523</ele>
        <time>2014-06-11T20:32:28Z</time>
      </trkpt>
      <trkpt lat="59.9557049" lon="17.7235225">
        <ele>70.3135</ele>
        <time>2014-06-11T20:32:29Z</time>
      </trkpt>
      <trkpt lat="59.9557348" lon="17.723541">
        <ele>72.2362</ele>
        <time>2014-06-11T20:32:30Z</time>
      </trkpt>
      <trkpt lat="59.9557633" lon="17.7235584">
        <ele>73.1976</ele>
        <time>2014-06-11T20:32:31Z</time>
      </trkpt>
      <trkpt lat="59.9557878" lon="17.7235737">
        <ele>73.6782</ele>
        <time>2014-06-11T20:32:32Z</time>
      </trkpt>
      <trkpt lat="59.9558148" lon="17.7235865">
        <ele>74.1588</ele>
        <time>2014-06-11T20:32:33Z</time>
      </trkpt>
      <trkpt lat="59.9558442" lon="17.7236077">
        <ele>75.1202</ele>
        <time>2014-06-11T20:32:34Z</time>
      </trkpt>
      <trkpt lat="59.9558725" lon="17.7236254">
        <ele>75.6008</ele>
        <time>2014-06-11T20:32:35Z</time>
      </trkpt>
      <trkpt lat="59.955897" lon="17.7236354">
        <ele>75.6008</ele>
        <time>2014-06-11T20:32:36Z</time>
      </trkpt>
      <trkpt lat="59.9559245" lon="17.7236477">
        <ele>76.0814</ele>
        <time>2014-06-11T20:32:37Z</time>
      </trkpt>
      <trkpt lat="59.955954" lon="17.7236498">
        <ele>77.0428</ele>
        <time>2014-06-11T20:32:38Z</time>
      </trkpt>
      <trkpt lat="59.9559732" lon="17.7236522">
        <ele>76.5621</ele>
        <time>2014-06-11T20:32:39Z</time>
      </trkpt>
      <trkpt lat="59.9559919" lon="17.7236455">
        <ele>76.0814</ele>
        <time>2014-06-11T20:32:40Z</time>
      </trkpt>
      <trkpt lat="59.9560064" lon="17.7236286">
        <ele>74.6395</ele>
        <time>2014-06-11T20:32:41Z</time>
      </trkpt>
      <trkpt lat="59.9560183" lon="17.7236017">
        <ele>72.7169</ele>
        <time>2014-06-11T20:32:42Z</time>
      </trkpt>
      <trkpt lat="59.9560342" lon="17.7235735">
        <ele>70.7942</ele>
        <time>2014-06-11T20:32:43Z</time>
      </trkpt>
      <trkpt lat="59.9560448" lon="17.7235301">
        <ele>68.8716</ele>
        <time>2014-06-11T20:32:44Z</time>
      </trkpt>
      <trkpt lat="59.9560514" lon="17.7234866">
        <ele>67.4297</ele>
        <time>2014-06-11T20:32:45Z</time>
      </trkpt>
      <trkpt lat="59.956053" lon="17.7234415">
        <ele>65.0264</ele>
        <time>2014-06-11T20:32:46Z</time>
      </trkpt>
      <trkpt lat="59.9560645" lon="17.7233948">
        <ele>64.0651</ele>
        <time>2014-06-11T20:32:47Z</time>
      </trkpt>
      <trkpt lat="59.9560763" lon="17.7233446">
        <ele>63.5844</ele>
        <time>2014-06-11T20:32:48Z</time>
      </trkpt>
      <trkpt lat="59.9560818" lon="17.7232935">
        <ele>63.1036</ele>
        <time>2014-06-11T20:32:49Z</time>
      </trkpt>
      <trkpt lat="59.9560883" lon="17.7232411">
        <ele>62.6229</ele>
        <time>2014-06-11T20:32:50Z</time>
      </trkpt>
      <trkpt lat="59.9560929" lon="17.7231899">
        <ele>62.1423</ele>
        <time>2014-06-11T20:32:51Z</time>
      </trkpt>
      <trkpt lat="59.9560961" lon="17.7231388">
        <ele>61.6617</ele>
        <time>2014-06-11T20:32:52Z</time>
      </trkpt>
      <trkpt lat="59.9560888" lon="17.7230997">
        <ele>62.1423</ele>
        <time>2014-06-11T20:32:53Z</time>
      </trkpt>
      <trkpt lat="59.9560841" lon="17.7230674">
        <ele>61.6617</ele>
        <time>2014-06-11T20:32:54Z</time>
      </trkpt>
      <trkpt lat="59.9560821" lon="17.7230265">
        <ele>61.181</ele>
        <time>2014-06-11T20:32:55Z</time>
      </trkpt>
      <trkpt lat="59.9560789" lon="17.7229717">
        <ele>61.6617</ele>
        <time>2014-06-11T20:32:56Z</time>
      </trkpt>
      <trkpt lat="59.9560675" lon="17.7229169">
        <ele>60.7003</ele>
        <time>2014-06-11T20:32:57Z</time>
      </trkpt>
      <trkpt lat="59.9560566" lon="17.7228661">
        <ele>60.7003</ele>
        <time>2014-06-11T20:32:58Z</time>
      </trkpt>
      <trkpt lat="59.9560487" lon="17.72281">
        <ele>59.7391</ele>
        <time>2014-06-11T20:32:59Z</time>
      </trkpt>
      <trkpt lat="59.9560455" lon="17.7227506">
        <ele>59.7391</ele>
        <time>2014-06-11T20:33:00Z</time>
      </trkpt>
      <trkpt lat="59.9560307" lon="17.7226942">
        <ele>59.7391</ele>
        <time>2014-06-11T20:33:01Z</time>
      </trkpt>
      <trkpt lat="59.9560197" lon="17.7226366">
        <ele>59.7391</ele>
        <time>2014-06-11T20:33:02Z</time>
      </trkpt>
      <trkpt lat="59.9560074" lon="17.7225856">
        <ele>59.2584</ele>
        <time>2014-06-11T20:33:03Z</time>
      </trkpt>
      <trkpt lat="59.9559903" lon="17.7225405">
        <ele>58.7777</ele>
        <time>2014-06-11T20:33:04Z</time>
      </trkpt>
      <trkpt lat="59.955969" lon="17.7224944">
        <ele>58.7777</ele>
        <time>2014-06-11T20:33:05Z</time>
      </trkpt>
      <trkpt lat="59.9559567" lon="17.7224496">
        <ele>58.7777</ele>
        <time>2014-06-11T20:33:06Z</time>
      </trkpt>
      <trkpt lat="59.9559473" lon="17.7224013">
        <ele>58.7777</ele>
        <time>2014-06-11T20:33:07Z</time>
      </trkpt>
      <trkpt lat="59.955938" lon="17.722349">
        <ele>58.7777</ele>
        <time>2014-06-11T20:33:08Z</time>
      </trkpt>
      <trkpt lat="59.9559295" lon="17.7222921">
        <ele>59.2584</ele>
        <time>2014-06-11T20:33:09Z</time>
      </trkpt>
      <trkpt lat="59.955924" lon="17.7222311">
        <ele>59.2584</ele>
        <time>2014-06-11T20:33:10Z</time>
      </trkpt>
      <trkpt lat="59.9559214" lon="17.7221755">
        <ele>59.7391</ele>
        <time>2014-06-11T20:33:11Z</time>
      </trkpt>
      <trkpt lat="59.9559204" lon="17.7221225">
        <ele>60.2197</ele>
        <time>2014-06-11T20:33:12Z</time>
      </trkpt>
      <trkpt lat="59.9559214" lon="17.7220714">
        <ele>60.7003</ele>
        <time>2014-06-11T20:33:13Z</time>
      </trkpt>
      <trkpt lat="59.9559199" lon="17.7220257">
        <ele>61.181</ele>
        <time>2014-06-11T20:33:14Z</time>
      </trkpt>
      <trkpt lat="59.9559152" lon="17.7219726">
        <ele>61.6617</ele>
        <time>2014-06-11T20:33:15Z</time>
      </trkpt>
      <trkpt lat="59.9559059" lon="17.7219192">
        <ele>61.6617</ele>
        <time>2014-06-11T20:33:16Z</time>
      </trkpt>
      <trkpt lat="59.9559039" lon="17.7218746">
        <ele>61.6617</ele>
        <time>2014-06-11T20:33:17Z</time>
      </trkpt>
      <trkpt lat="59.9559082" lon="17.7218267">
        <ele>62.1423</ele>
        <time>2014-06-11T20:33:18Z</time>
      </trkpt>
      <trkpt lat="59.9559135" lon="17.7217772">
        <ele>61.6617</ele>
        <time>2014-06-11T20:33:19Z</time>
      </trkpt>
      <trkpt lat="59.9559157" lon="17.7217219">
        <ele>61.6617</ele>
        <time>2014-06-11T20:33:20Z</time>
      </trkpt>
      <trkpt lat="59.9559212" lon="17.7216692">
        <ele>61.6617</ele>
        <time>2014-06-11T20:33:21Z</time>
      </trkpt>
      <trkpt lat="59.9559239" lon="17.7216202">
        <ele>61.6617</ele>
        <time>2014-06-11T20:33:22Z</time>
      </trkpt>
      <trkpt lat="59.9559338" lon="17.7215663">
        <ele>63.1036</ele>
        <time>2014-06-11T20:33:23Z</time>
      </trkpt>
      <trkpt lat="59.9559401" lon="17.7215109">
        <ele>62.6229</ele>
        <time>2014-06-11T20:33:24Z</time>
      </trkpt>
      <trkpt lat="59.9559478" lon="17.7214586">
        <ele>63.1036</ele>
        <time>2014-06-11T20:33:25Z</time>
      </trkpt>
      <trkpt lat="59.95595" lon="17.7214115">
        <ele>63.5844</ele>
        <time>2014-06-11T20:33:26Z</time>
      </trkpt>
      <trkpt lat="59.9559458" lon="17.7213613">
        <ele>63.5844</ele>
        <time>2014-06-11T20:33:27Z</time>
      </trkpt>
      <trkpt lat="59.9559396" lon="17.7213061">
        <ele>64.0651</ele>
        <time>2014-06-11T20:33:28Z</time>
      </trkpt>
      <trkpt lat="59.9559305" lon="17.7212597">
        <ele>63.5844</ele>
        <time>2014-06-11T20:33:29Z</time>
      </trkpt>
      <trkpt lat="59.9559173" lon="17.7212182">
        <ele>64.0651</ele>
        <time>2014-06-11T20:33:30Z</time>
      </trkpt>
      <trkpt lat="59.9558989" lon="17.7211938">
        <ele>63.5844</ele>
        <time>2014-06-11T20:33:31Z</time>
      </trkpt>
      <trkpt lat="59.9558826" lon="17.7211811">
        <ele>63.5844</ele>
        <time>2014-06-11T20:33:32Z</time>
      </trkpt>
      <trkpt lat="59.9558596" lon="17.7211745">
        <ele>63.5844</ele>
        <time>2014-06-11T20:33:33Z</time>
      </trkpt>
      <trkpt lat="59.9558293" lon="17.7211782">
        <ele>63.1036</ele>
        <time>2014-06-11T20:33:34Z</time>
      </trkpt>
      <trkpt lat="59.9557981" lon="17.7211844">
        <ele>62.1423</ele>
        <time>2014-06-11T20:33:35Z</time>
      </trkpt>
      <trkpt lat="59.9557746" lon="17.7212008">
        <ele>61.181</ele>
        <time>2014-06-11T20:33:36Z</time>
      </trkpt>
      <trkpt lat="59.955753" lon="17.7212214">
        <ele>60.7003</ele>
        <time>2014-06-11T20:33:37Z</time>
      </trkpt>
      <trkpt lat="59.9557355" lon="17.7212419">
        <ele>60.7003</ele>
        <time>2014-06-11T20:33:38Z</time>
      </trkpt>
      <trkpt lat="59.9557195" lon="17.7212535">
        <ele>60.2197</ele>
        <time>2014-06-11T20:33:39Z</time>
      </trkpt>
      <trkpt lat="59.9557005" lon="17.7212731">
        <ele>59.7391</ele>
        <time>2014-06-11T20:33:40Z</time>
      </trkpt>
      <trkpt lat="59.9556681" lon="17.7212954">
        <ele>59.7391</ele>
        <time>2014-06-11T20:33:41Z</time>
      </trkpt>
      <trkpt lat="59.9556417" lon="17.721315">
        <ele>60.2197</ele>
        <time>2014-06-11T20:33:42Z</time>
      </trkpt>
      <trkpt lat="59.9556157" lon="17.721326">
        <ele>60.2197</ele>
        <time>2014-06-11T20:33:43Z</time>
      </trkpt>
      <trkpt lat="59.955594" lon="17.7213417">
        <ele>61.181</ele>
        <time>2014-06-11T20:33:44Z</time>
      </trkpt>
      <trkpt lat="59.9555695" lon="17.7213541">
        <ele>61.181</ele>
        <time>2014-06-11T20:33:45Z</time>
      </trkpt>
      <trkpt lat="59.955546" lon="17.721361">
        <ele>60.2197</ele>
        <time>2014-06-11T20:33:46Z</time>
      </trkpt>
      <trkpt lat="59.9555226" lon="17.7213642">
        <ele>58.7777</ele>
        <time>2014-06-11T20:33:47Z</time>
      </trkpt>
      <trkpt lat="59.955496" lon="17.7213753">
        <ele>58.7777</ele>
        <time>2014-06-11T20:33:48Z</time>
      </trkpt>
      <trkpt lat="59.9554747" lon="17.7213878">
        <ele>58.2971</ele>
        <time>2014-06-11T20:33:49Z</time>
      </trkpt>
      <trkpt lat="59.955456" lon="17.72139">
        <ele>58.2971</ele>
        <time>2014-06-11T20:33:50Z</time>
      </trkpt>
      <trkpt lat="59.9554303" lon="17.7213799">
        <ele>58.2971</ele>
        <time>2014-06-11T20:33:51Z</time>
      </trkpt>
      <trkpt lat="59.9554018" lon="17.7213706">
        <ele>58.2971</ele>
        <time>2014-06-11T20:33:52Z</time>
      </trkpt>
      <trkpt lat="59.9553816" lon="17.721372">
        <ele>58.2971</ele>
        <time>2014-06-11T20:33:53Z</time>
      </trkpt>
      <trkpt lat="59.9553571" lon="17.7213714">
        <ele>57.8165</ele>
        <time>2014-06-11T20:33:54Z</time>
      </trkpt>
      <trkpt lat="59.9553288" lon="17.72138">
        <ele>58.7777</ele>
        <time>2014-06-11T20:33:55Z</time>
      </trkpt>
      <trkpt lat="59.955296" lon="17.7213745">
        <ele>58.7777</ele>
        <time>2014-06-11T20:33:56Z</time>
      </trkpt>
      <trkpt lat="59.9552605" lon="17.7213612">
        <ele>59.7391</ele>
        <time>2014-06-11T20:33:57Z</time>
      </trkpt>
      <trkpt lat="59.9552261" lon="17.7213607">
        <ele>61.181</ele>
        <time>2014-06-11T20:33:58Z</time>
      </trkpt>
      <trkpt lat="59.9551999" lon="17.7213621">
        <ele>62.1423</ele>
        <time>2014-06-11T20:33:59Z</time>
      </trkpt>
      <trkpt lat="59.955174" lon="17.7213618">
        <ele>62.6229</ele>
        <time>2014-06-11T20:34:00Z</time>
      </trkpt>
      <trkpt lat="59.9551533" lon="17.7213628">
        <ele>63.5844</ele>
        <time>2014-06-11T20:34:01Z</time>
      </trkpt>
      <trkpt lat="59.955122" lon="17.7213722">
        <ele>65.0264</ele>
        <time>2014-06-11T20:34:02Z</time>
      </trkpt>
      <trkpt lat="59.9550922" lon="17.7213831">
        <ele>65.5071</ele>
        <time>2014-06-11T20:34:03Z</time>
      </trkpt>
      <trkpt lat="59.9550709" lon="17.7213877">
        <ele>66.4683</ele>
        <time>2014-06-11T20:34:04Z</time>
      </trkpt>
      <trkpt lat="59.955048" lon="17.7213958">
        <ele>68.3909</ele>
        <time>2014-06-11T20:34:05Z</time>
      </trkpt>
      <trkpt lat="59.9550271" lon="17.7213949">
        <ele>69.3523</ele>
        <time>2014-06-11T20:34:06Z</time>
      </trkpt>
      <trkpt lat="59.9550079" lon="17.7213995">
        <ele>70.3135</ele>
        <time>2014-06-11T20:34:07Z</time>
      </trkpt>
      <trkpt lat="59.9549808" lon="17.7213965">
        <ele>70.3135</ele>
        <time>2014-06-11T20:34:08Z</time>
      </trkpt>
      <trkpt lat="59.9549523" lon="17.7213817">
        <ele>69.8329</ele>
        <time>2014-06-11T20:34:09Z</time>
      </trkpt>
      <trkpt lat="59.9549257" lon="17.7213619">
        <ele>69.8329</ele>
        <time>2014-06-11T20:34:10Z</time>
      </trkpt>
      <trkpt lat="59.9549014" lon="17.72134">
        <ele>69.3523</ele>
        <time>2014-06-11T20:34:11Z</time>
      </trkpt>
      <trkpt lat="59.9548764" lon="17.7213079">
        <ele>68.3909</ele>
        <time>2014-06-11T20:34:12Z</time>
      </trkpt>
      <trkpt lat="59.9548583" lon="17.7212761">
        <ele>67.9103</ele>
        <time>2014-06-11T20:34:13Z</time>
      </trkpt>
      <trkpt lat="59.9548445" lon="17.7212443">
        <ele>67.4297</ele>
        <time>2014-06-11T20:34:14Z</time>
      </trkpt>
      <trkpt lat="59.9548315" lon="17.7211956">
        <ele>65.9877</ele>
        <time>2014-06-11T20:34:15Z</time>
      </trkpt>
      <trkpt lat="59.9548217" lon="17.7211513">
        <ele>65.0264</ele>
        <time>2014-06-11T20:34:16Z</time>
      </trkpt>
      <trkpt lat="59.9548024" lon="17.7211012">
        <ele>63.5844</ele>
        <time>2014-06-11T20:34:17Z</time>
      </trkpt>
      <trkpt lat="59.9547878" lon="17.7210381">
        <ele>62.1423</ele>
        <time>2014-06-11T20:34:18Z</time>
      </trkpt>
      <trkpt lat="59.9547756" lon="17.7209671">
        <ele>59.7391</ele>
        <time>2014-06-11T20:34:19Z</time>
      </trkpt>
      <trkpt lat="59.9547683" lon="17.7209085">
        <ele>59.2584</ele>
        <time>2014-06-11T20:34:20Z</time>
      </trkpt>
      <trkpt lat="59.9547616" lon="17.7208546">
        <ele>58.7777</ele>
        <time>2014-06-11T20:34:21Z</time>
      </trkpt>
      <trkpt lat="59.9547606" lon="17.7208023">
        <ele>58.2971</ele>
        <time>2014-06-11T20:34:22Z</time>
      </trkpt>
      <trkpt lat="59.9547641" lon="17.7207438">
        <ele>57.8165</ele>
        <time>2014-06-11T20:34:23Z</time>
      </trkpt>
      <trkpt lat="59.9547692" lon="17.7206889">
        <ele>57.3358</ele>
        <time>2014-06-11T20:34:24Z</time>
      </trkpt>
      <trkpt lat="59.9547848" lon="17.7206365">
        <ele>57.3358</ele>
        <time>2014-06-11T20:34:25Z</time>
      </trkpt>
      <trkpt lat="59.954793" lon="17.7205885">
        <ele>56.3745</ele>
        <time>2014-06-11T20:34:26Z</time>
      </trkpt>
      <trkpt lat="59.9548062" lon="17.7205454">
        <ele>55.8938</ele>
        <time>2014-06-11T20:34:27Z</time>
      </trkpt>
      <trkpt lat="59.9548303" lon="17.7205143">
        <ele>54.9324</ele>
        <time>2014-06-11T20:34:28Z</time>
      </trkpt>
      <trkpt lat="59.9548559" lon="17.7204913">
        <ele>54.4518</ele>
        <time>2014-06-11T20:34:29Z</time>
      </trkpt>
      <trkpt lat="59.9548813" lon="17.7204656">
        <ele>53.9712</ele>
        <time>2014-06-11T20:34:30Z</time>
      </trkpt>
      <trkpt lat="59.9549038" lon="17.7204422">
        <ele>53.9712</ele>
        <time>2014-06-11T20:34:31Z</time>
      </trkpt>
      <trkpt lat="59.9549295" lon="17.7204172">
        <ele>53.9712</ele>
        <time>2014-06-11T20:34:32Z</time>
      </trkpt>
      <trkpt lat="59.9549553" lon="17.7203957">
        <ele>53.4905</ele>
        <time>2014-06-11T20:34:33Z</time>
      </trkpt>
      <trkpt lat="59.9549824" lon="17.7203771">
        <ele>53.9712</ele>
        <time>2014-06-11T20:34:34Z</time>
      </trkpt>
      <trkpt lat="59.9550077" lon="17.7203592">
        <ele>53.9712</ele>
        <time>2014-06-11T20:34:35Z</time>
      </trkpt>
      <trkpt lat="59.9550268" lon="17.7203418">
        <ele>53.4905</ele>
        <time>2014-06-11T20:34:36Z</time>
      </trkpt>
      <trkpt lat="59.9550506" lon="17.7203257">
        <ele>54.4518</ele>
        <time>2014-06-11T20:34:37Z</time>
      </trkpt>
      <trkpt lat="59.955078" lon="17.7203029">
        <ele>54.9324</ele>
        <time>2014-06-11T20:34:38Z</time>
      </trkpt>
      <trkpt lat="59.955104" lon="17.720277">
        <ele>55.4131</ele>
        <time>2014-06-11T20:34:39Z</time>
      </trkpt>
      <trkpt lat="59.9551279" lon="17.7202593">
        <ele>56.3745</ele>
        <time>2014-06-11T20:34:40Z</time>
      </trkpt>
      <trkpt lat="59.955146" lon="17.7202292">
        <ele>55.8938</ele>
        <time>2014-06-11T20:34:41Z</time>
      </trkpt>
      <trkpt lat="59.9551636" lon="17.7201976">
        <ele>54.9324</ele>
        <time>2014-06-11T20:34:42Z</time>
      </trkpt>
      <trkpt lat="59.9551869" lon="17.7201734">
        <ele>54.4518</ele>
        <time>2014-06-11T20:34:43Z</time>
      </trkpt>
      <trkpt lat="59.9552086" lon="17.7201595">
        <ele>53.9712</ele>
        <time>2014-06-11T20:34:44Z</time>
      </trkpt>
      <trkpt lat="59.9552328" lon="17.7201461">
        <ele>54.4518</ele>
        <time>2014-06-11T20:34:45Z</time>
      </trkpt>
      <trkpt lat="59.9552615" lon="17.7201372">
        <ele>55.4131</ele>
        <time>2014-06-11T20:34:46Z</time>
      </trkpt>
      <trkpt lat="59.9552822" lon="17.7201152">
        <ele>55.8938</ele>
        <time>2014-06-11T20:34:47Z</time>
      </trkpt>
      <trkpt lat="59.9553075" lon="17.720099">
        <ele>56.8551</ele>
        <time>2014-06-11T20:34:48Z</time>
      </trkpt>
      <trkpt lat="59.9553291" lon="17.7200803">
        <ele>56.8551</ele>
        <time>2014-06-11T20:34:49Z</time>
      </trkpt>
      <trkpt lat="59.9553495" lon="17.720058">
        <ele>56.3745</ele>
        <time>2014-06-11T20:34:50Z</time>
      </trkpt>
      <trkpt lat="59.9553729" lon="17.7200439">
        <ele>56.3745</ele>
        <time>2014-06-11T20:34:51Z</time>
      </trkpt>
      <trkpt lat="59.9553983" lon="17.7200205">
        <ele>56.8551</ele>
        <time>2014-06-11T20:34:52Z</time>
      </trkpt>
      <trkpt lat="59.9554209" lon="17.7199922">
        <ele>57.3358</ele>
        <time>2014-06-11T20:34:53Z</time>
      </trkpt>
      <trkpt lat="59.9554356" lon="17.7199619">
        <ele>56.3745</ele>
        <time>2014-06-11T20:34:54Z</time>
      </trkpt>
      <trkpt lat="59.9554543" lon="17.7199455">
        <ele>56.8551</ele>
        <time>2014-06-11T20:34:55Z</time>
      </trkpt>
      <trkpt lat="59.9554854" lon="17.7199341">
        <ele>58.7777</ele>
        <time>2014-06-11T20:34:56Z</time>
      </trkpt>
      <trkpt lat="59.9555133" lon="17.7199206">
        <ele>58.7777</ele>
        <time>2014-06-11T20:34:57Z</time>
      </trkpt>
      <trkpt lat="59.9555443" lon="17.7199039">
        <ele>59.2584</ele>
        <time>2014-06-11T20:34:58Z</time>
      </trkpt>
      <trkpt lat="59.9555702" lon="17.7198786">
        <ele>59.7391</ele>
        <time>2014-06-11T20:34:59Z</time>
      </trkpt>
      <trkpt lat="59.9555976" lon="17.7198538">
        <ele>60.2197</ele>
        <time>2014-06-11T20:35:00Z</time>
      </trkpt>
      <trkpt lat="59.9556277" lon="17.7198353">
        <ele>60.7003</ele>
        <time>2014-06-11T20:35:01Z</time>
      </trkpt>
      <trkpt lat="59.9556583" lon="17.7198145">
        <ele>60.7003</ele>
        <time>2014-06-11T20:35:02Z</time>
      </trkpt>
      <trkpt lat="59.9556873" lon="17.7198013">
        <ele>61.181</ele>
        <time>2014-06-11T20:35:03Z</time>
      </trkpt>
      <trkpt lat="59.9557131" lon="17.7197834">
        <ele>60.7003</ele>
        <time>2014-06-11T20:35:04Z</time>
      </trkpt>
      <trkpt lat="59.9557421" lon="17.7197619">
        <ele>61.181</ele>
        <time>2014-06-11T20:35:05Z</time>
      </trkpt>
      <trkpt lat="59.9557646" lon="17.7197419">
        <ele>60.7003</ele>
        <time>2014-06-11T20:35:06Z</time>
      </trkpt>
      <trkpt lat="59.9557929" lon="17.7197195">
        <ele>61.181</ele>
        <time>2014-06-11T20:35:07Z</time>
      </trkpt>
      <trkpt lat="59.9558193" lon="17.7196982">
        <ele>60.7003</ele>
        <time>2014-06-11T20:35:08Z</time>
      </trkpt>
      <trkpt lat="59.9558452" lon="17.7196762">
        <ele>60.7003</ele>
        <time>2014-06-11T20:35:09Z</time>
      </trkpt>
      <trkpt lat="59.9558674" lon="17.7196591">
        <ele>60.7003</ele>
        <time>2014-06-11T20:35:10Z</time>
      </trkpt>
      <trkpt lat="59.9558882" lon="17.7196367">
        <ele>61.181</ele>
        <time>2014-06-11T20:35:11Z</time>
      </trkpt>
      <trkpt lat="59.9559094" lon="17.7196181">
        <ele>61.6617</ele>
        <time>2014-06-11T20:35:12Z</time>
      </trkpt>
      <trkpt lat="59.9559254" lon="17.7195969">
        <ele>61.181</ele>
        <time>2014-06-11T20:35:13Z</time>
      </trkpt>
      <trkpt lat="59.9559432" lon="17.7195732">
        <ele>60.7003</ele>
        <time>2014-06-11T20:35:14Z</time>
      </trkpt>
      <trkpt lat="59.9559626" lon="17.719542">
        <ele>59.7391</ele>
        <time>2014-06-11T20:35:15Z</time>
      </trkpt>
      <trkpt lat="59.9559823" lon="17.7195068">
        <ele>59.2584</ele>
        <time>2014-06-11T20:35:16Z</time>
      </trkpt>
      <trkpt lat="59.9560011" lon="17.7194798">
        <ele>58.7777</ele>
        <time>2014-06-11T20:35:17Z</time>
      </trkpt>
      <trkpt lat="59.9560172" lon="17.7194545">
        <ele>58.7777</ele>
        <time>2014-06-11T20:35:18Z</time>
      </trkpt>
      <trkpt lat="59.9560339" lon="17.7194166">
        <ele>58.2971</ele>
        <time>2014-06-11T20:35:19Z</time>
      </trkpt>
      <trkpt lat="59.9560519" lon="17.7193793">
        <ele>57.8165</ele>
        <time>2014-06-11T20:35:20Z</time>
      </trkpt>
      <trkpt lat="59.9560769" lon="17.7193465">
        <ele>58.2971</ele>
        <time>2014-06-11T20:35:21Z</time>
      </trkpt>
      <trkpt lat="59.9560989" lon="17.719311">
        <ele>57.8165</ele>
        <time>2014-06-11T20:35:22Z</time>
      </trkpt>
      <trkpt lat="59.9561166" lon="17.7192712">
        <ele>57.8165</ele>
        <time>2014-06-11T20:35:23Z</time>
      </trkpt>
      <trkpt lat="59.9561305" lon="17.7192323">
        <ele>57.8165</ele>
        <time>2014-06-11T20:35:24Z</time>
      </trkpt>
      <trkpt lat="59.9561375" lon="17.7191896">
        <ele>57.8165</ele>
        <time>2014-06-11T20:35:25Z</time>
      </trkpt>
      <trkpt lat="59.9561443" lon="17.7191416">
        <ele>57.8165</ele>
        <time>2014-06-11T20:35:26Z</time>
      </trkpt>
      <trkpt lat="59.9561538" lon="17.7190898">
        <ele>57.8165</ele>
        <time>2014-06-11T20:35:27Z</time>
      </trkpt>
      <trkpt lat="59.956167" lon="17.7190437">
        <ele>57.8165</ele>
        <time>2014-06-11T20:35:28Z</time>
      </trkpt>
      <trkpt lat="59.9561763" lon="17.7189995">
        <ele>57.8165</ele>
        <time>2014-06-11T20:35:29Z</time>
      </trkpt>
      <trkpt lat="59.9561841" lon="17.7189447">
        <ele>57.3358</ele>
        <time>2014-06-11T20:35:30Z</time>
      </trkpt>
      <trkpt lat="59.9561901" lon="17.7188914">
        <ele>56.8551</ele>
        <time>2014-06-11T20:35:31Z</time>
      </trkpt>
      <trkpt lat="59.9561932" lon="17.7188448">
        <ele>56.3745</ele>
        <time>2014-06-11T20:35:32Z</time>
      </trkpt>
      <trkpt lat="59.9561954" lon="17.7188043">
        <ele>56.8551</ele>
        <time>2014-06-11T20:35:33Z</time>
      </trkpt>
      <trkpt lat="59.9561939" lon="17.7187624">
        <ele>56.8551</ele>
        <time>2014-06-11T20:35:34Z</time>
      </trkpt>
      <trkpt lat="59.9561909" lon="17.7187124">
        <ele>56.8551</ele>
        <time>2014-06-11T20:35:35Z</time>
      </trkpt>
      <trkpt lat="59.9561857" lon="17.7186597">
        <ele>56.8551</ele>
        <time>2014-06-11T20:35:36Z</time>
      </trkpt>
      <trkpt lat="59.9561695" lon="17.7186131">
        <ele>57.3358</ele>
        <time>2014-06-11T20:35:37Z</time>
      </trkpt>
      <trkpt lat="59.9561476" lon="17.7185702">
        <ele>56.8551</ele>
        <time>2014-06-11T20:35:38Z</time>
      </trkpt>
      <trkpt lat="59.9561269" lon="17.718524">
        <ele>57.3358</ele>
        <time>2014-06-11T20:35:39Z</time>
      </trkpt>
      <trkpt lat="59.9561093" lon="17.7184869">
        <ele>58.2971</ele>
        <time>2014-06-11T20:35:40Z</time>
      </trkpt>
      <trkpt lat="59.9560901" lon="17.71845">
        <ele>58.2971</ele>
        <time>2014-06-11T20:35:41Z</time>
      </trkpt>
      <trkpt lat="59.9560737" lon="17.718405">
        <ele>58.2971</ele>
        <time>2014-06-11T20:35:42Z</time>
      </trkpt>
      <trkpt lat="59.9560602" lon="17.7183548">
        <ele>58.7777</ele>
        <time>2014-06-11T20:35:43Z</time>
      </trkpt>
      <trkpt lat="59.9560437" lon="17.7183024">
        <ele>58.7777</ele>
        <time>2014-06-11T20:35:44Z</time>
      </trkpt>
      <trkpt lat="59.9560224" lon="17.7182542">
        <ele>58.7777</ele>
        <time>2014-06-11T20:35:45Z</time>
      </trkpt>
      <trkpt lat="59.955993" lon="17.7182128">
        <ele>58.7777</ele>
        <time>2014-06-11T20:35:46Z</time>
      </trkpt>
      <trkpt lat="59.9559601" lon="17.7181789">
        <ele>59.2584</ele>
        <time>2014-06-11T20:35:47Z</time>
      </trkpt>
      <trkpt lat="59.9559267" lon="17.7181309">
        <ele>59.7391</ele>
        <time>2014-06-11T20:35:48Z</time>
      </trkpt>
      <trkpt lat="59.9559096" lon="17.7180816">
        <ele>60.7003</ele>
        <time>2014-06-11T20:35:49Z</time>
      </trkpt>
      <trkpt lat="59.9558945" lon="17.718033">
        <ele>60.7003</ele>
        <time>2014-06-11T20:35:50Z</time>
      </trkpt>
      <trkpt lat="59.9558851" lon="17.7179901">
        <ele>60.2197</ele>
        <time>2014-06-11T20:35:51Z</time>
      </trkpt>
      <trkpt lat="59.9558777" lon="17.7179558">
        <ele>60.2197</ele>
        <time>2014-06-11T20:35:52Z</time>
      </trkpt>
      <trkpt lat="59.9558738" lon="17.717928">
        <ele>60.2197</ele>
        <time>2014-06-11T20:35:53Z</time>
      </trkpt>
      <trkpt lat="59.9558653" lon="17.7178921">
        <ele>61.181</ele>
        <time>2014-06-11T20:35:54Z</time>
      </trkpt>
      <trkpt lat="59.9558471" lon="17.7178479">
        <ele>60.2197</ele>
        <time>2014-06-11T20:35:55Z</time>
      </trkpt>
      <trkpt lat="59.9558319" lon="17.7178004">
        <ele>60.2197</ele>
        <time>2014-06-11T20:35:56Z</time>
      </trkpt>
      <trkpt lat="59.9558132" lon="17.7177522">
        <ele>60.2197</ele>
        <time>2014-06-11T20:35:57Z</time>
      </trkpt>
      <trkpt lat="59.9557981" lon="17.7177097">
        <ele>60.2197</ele>
        <time>2014-06-11T20:35:58Z</time>
      </trkpt>
      <trkpt lat="59.955784" lon="17.717664">
        <ele>60.2197</ele>
        <time>2014-06-11T20:35:59Z</time>
      </trkpt>
      <trkpt lat="59.9557718" lon="17.7176184">
        <ele>59.7391</ele>
        <time>2014-06-11T20:36:00Z</time>
      </trkpt>
      <trkpt lat="59.9557608" lon="17.7175764">
        <ele>59.7391</ele>
        <time>2014-06-11T20:36:01Z</time>
      </trkpt>
      <trkpt lat="59.955738" lon="17.7175227">
        <ele>60.2197</ele>
        <time>2014-06-11T20:36:02Z</time>
      </trkpt>
      <trkpt lat="59.9557239" lon="17.7174734">
        <ele>59.7391</ele>
        <time>2014-06-11T20:36:03Z</time>
      </trkpt>
      <trkpt lat="59.9557023" lon="17.7174274">
        <ele>59.7391</ele>
        <time>2014-06-11T20:36:04Z</time>
      </trkpt>
      <trkpt lat="59.9556888" lon="17.7173858">
        <ele>59.2584</ele>
        <time>2014-06-11T20:36:05Z</time>
      </trkpt>
      <trkpt lat="59.9556805" lon="17.717341">
        <ele>59.2584</ele>
        <time>2014-06-11T20:36:06Z</time>
      </trkpt>
      <trkpt lat="59.9556691" lon="17.7172916">
        <ele>59.7391</ele>
        <time>2014-06-11T20:36:07Z</time>
      </trkpt>
      <trkpt lat="59.9556479" lon="17.7172503">
        <ele>58.7777</ele>
        <time>2014-06-11T20:36:08Z</time>
      </trkpt>
      <trkpt lat="59.9556317" lon="17.7172085">
        <ele>58.7777</ele>
        <time>2014-06-11T20:36:09Z</time>
      </trkpt>
      <trkpt lat="59.9556215" lon="17.7171494">
        <ele>58.7777</ele>
        <time>2014-06-11T20:36:10Z</time>
      </trkpt>
      <trkpt lat="59.9556114" lon="17.7170954">
        <ele>58.2971</ele>
        <time>2014-06-11T20:36:11Z</time>
      </trkpt>
      <trkpt lat="59.9556022" lon="17.7170492">
        <ele>58.7777</ele>
        <time>2014-06-11T20:36:12Z</time>
      </trkpt>
      <trkpt lat="59.9555886" lon="17.717007">
        <ele>58.7777</ele>
        <time>2014-06-11T20:36:13Z</time>
      </trkpt>
      <trkpt lat="59.9555759" lon="17.7169623">
        <ele>58.2971</ele>
        <time>2014-06-11T20:36:14Z</time>
      </trkpt>
      <trkpt lat="59.9555705" lon="17.7169218">
        <ele>58.2971</ele>
        <time>2014-06-11T20:36:15Z</time>
      </trkpt>
      <trkpt lat="59.9555617" lon="17.7168779">
        <ele>58.2971</ele>
        <time>2014-06-11T20:36:16Z</time>
      </trkpt>
      <trkpt lat="59.9555416" lon="17.7168286">
        <ele>58.7777</ele>
        <time>2014-06-11T20:36:17Z</time>
      </trkpt>
      <trkpt lat="59.9555198" lon="17.7167823">
        <ele>58.7777</ele>
        <time>2014-06-11T20:36:18Z</time>
      </trkpt>
      <trkpt lat="59.9555013" lon="17.7167279">
        <ele>58.2971</ele>
        <time>2014-06-11T20:36:19Z</time>
      </trkpt>
      <trkpt lat="59.9554826" lon="17.7166704">
        <ele>58.7777</ele>
        <time>2014-06-11T20:36:20Z</time>
      </trkpt>
      <trkpt lat="59.955466" lon="17.7166162">
        <ele>59.2584</ele>
        <time>2014-06-11T20:36:21Z</time>
      </trkpt>
      <trkpt lat="59.9554651" lon="17.7165617">
        <ele>59.2584</ele>
        <time>2014-06-11T20:36:22Z</time>
      </trkpt>
      <trkpt lat="59.9554643" lon="17.7165033">
        <ele>59.2584</ele>
        <time>2014-06-11T20:36:23Z</time>
      </trkpt>
      <trkpt lat="59.9554578" lon="17.7164489">
        <ele>59.2584</ele>
        <time>2014-06-11T20:36:24Z</time>
      </trkpt>
      <trkpt lat="59.955456" lon="17.7163951">
        <ele>58.7777</ele>
        <time>2014-06-11T20:36:25Z</time>
      </trkpt>
      <trkpt lat="59.9554567" lon="17.716339">
        <ele>58.7777</ele>
        <time>2014-06-11T20:36:26Z</time>
      </trkpt>
      <trkpt lat="59.9554521" lon="17.7162828">
        <ele>58.2971</ele>
        <time>2014-06-11T20:36:27Z</time>
      </trkpt>
      <trkpt lat="59.95545" lon="17.7162303">
        <ele>57.8165</ele>
        <time>2014-06-11T20:36:28Z</time>
      </trkpt>
      <trkpt lat="59.955446" lon="17.7161811">
        <ele>56.8551</ele>
        <time>2014-06-11T20:36:29Z</time>
      </trkpt>
      <trkpt lat="59.9554473" lon="17.7161288">
        <ele>56.3745</ele>
        <time>2014-06-11T20:36:30Z</time>
      </trkpt>
      <trkpt lat="59.9554433" lon="17.7160603">
        <ele>55.4131</ele>
        <time>2014-06-11T20:36:31Z</time>
      </trkpt>
      <trkpt lat="59.9554421" lon="17.7159941">
        <ele>54.9324</ele>
        <time>2014-06-11T20:36:32Z</time>
      </trkpt>
      <trkpt lat="59.9554372" lon="17.7159338">
        <ele>54.4518</ele>
        <time>2014-06-11T20:36:33Z</time>
      </trkpt>
      <trkpt lat="59.9554291" lon="17.7158663">
        <ele>54.4518</ele>
        <time>2014-06-11T20:36:34Z</time>
      </trkpt>
      <trkpt lat="59.9554199" lon="17.7157971">
        <ele>53.9712</ele>
        <time>2014-06-11T20:36:35Z</time>
      </trkpt>
      <trkpt lat="59.9554058" lon="17.7157345">
        <ele>54.4518</ele>
        <time>2014-06-11T20:36:36Z</time>
      </trkpt>
      <trkpt lat="59.9553857" lon="17.715688">
        <ele>54.4518</ele>
        <time>2014-06-11T20:36:37Z</time>
      </trkpt>
      <trkpt lat="59.9553651" lon="17.7156287">
        <ele>54.9324</ele>
        <time>2014-06-11T20:36:38Z</time>
      </trkpt>
      <trkpt lat="59.955352" lon="17.7155486">
        <ele>55.4131</ele>
        <time>2014-06-11T20:36:39Z</time>
      </trkpt>
      <trkpt lat="59.9553447" lon="17.715463">
        <ele>55.8938</ele>
        <time>2014-06-11T20:36:40Z</time>
      </trkpt>
      <trkpt lat="59.9553416" lon="17.7153858">
        <ele>56.3745</ele>
        <time>2014-06-11T20:36:41Z</time>
      </trkpt>
      <trkpt lat="59.9553391" lon="17.7153236">
        <ele>56.3745</ele>
        <time>2014-06-11T20:36:42Z</time>
      </trkpt>
      <trkpt lat="59.9553365" lon="17.715262">
        <ele>57.3358</ele>
        <time>2014-06-11T20:36:43Z</time>
      </trkpt>
      <trkpt lat="59.9553392" lon="17.7152021">
        <ele>57.3358</ele>
        <time>2014-06-11T20:36:44Z</time>
      </trkpt>
      <trkpt lat="59.9553479" lon="17.715138">
        <ele>57.8165</ele>
        <time>2014-06-11T20:36:45Z</time>
      </trkpt>
      <trkpt lat="59.9553442" lon="17.7150729">
        <ele>57.8165</ele>
        <time>2014-06-11T20:36:46Z</time>
      </trkpt>
      <trkpt lat="59.9553361" lon="17.7150115">
        <ele>57.8165</ele>
        <time>2014-06-11T20:36:47Z</time>
      </trkpt>
      <trkpt lat="59.9553293" lon="17.7149545">
        <ele>57.8165</ele>
        <time>2014-06-11T20:36:48Z</time>
      </trkpt>
      <trkpt lat="59.9553138" lon="17.7149005">
        <ele>57.3358</ele>
        <time>2014-06-11T20:36:49Z</time>
      </trkpt>
      <trkpt lat="59.955297" lon="17.7148538">
        <ele>57.3358</ele>
        <time>2014-06-11T20:36:50Z</time>
      </trkpt>
      <trkpt lat="59.9552755" lon="17.7148084">
        <ele>57.3358</ele>
        <time>2014-06-11T20:36:51Z</time>
      </trkpt>
      <trkpt lat="59.9552614" lon="17.7147588">
        <ele>56.8551</ele>
        <time>2014-06-11T20:36:52Z</time>
      </trkpt>
      <trkpt lat="59.9552428" lon="17.7146992">
        <ele>56.3745</ele>
        <time>2014-06-11T20:36:53Z</time>
      </trkpt>
      <trkpt lat="59.9552329" lon="17.7146401">
        <ele>57.3358</ele>
        <time>2014-06-11T20:36:54Z</time>
      </trkpt>
      <trkpt lat="59.955219" lon="17.7145768">
        <ele>57.8165</ele>
        <time>2014-06-11T20:36:55Z</time>
      </trkpt>
      <trkpt lat="59.95521" lon="17.7145152">
        <ele>58.7777</ele>
        <time>2014-06-11T20:36:56Z</time>
      </trkpt>
      <trkpt lat="59.9552051" lon="17.7144525">
        <ele>60.2197</ele>
        <time>2014-06-11T20:36:57Z</time>
      </trkpt>
      <trkpt lat="59.9551958" lon="17.7143917">
        <ele>60.2197</ele>
        <time>2014-06-11T20:36:58Z</time>
      </trkpt>
      <trkpt lat="59.9551981" lon="17.7143363">
        <ele>61.6617</ele>
        <time>2014-06-11T20:36:59Z</time>
      </trkpt>
      <trkpt lat="59.9551936" lon="17.7142876">
        <ele>62.1423</ele>
        <time>2014-06-11T20:37:00Z</time>
      </trkpt>
      <trkpt lat="59.9551874" lon="17.7142405">
        <ele>63.5844</ele>
        <time>2014-06-11T20:37:01Z</time>
      </trkpt>
      <trkpt lat="59.9551717" lon="17.7141773">
        <ele>62.6229</ele>
        <time>2014-06-11T20:37:02Z</time>
      </trkpt>
      <trkpt lat="59.9551583" lon="17.7141173">
        <ele>62.1423</ele>
        <time>2014-06-11T20:37:03Z</time>
      </trkpt>
      <trkpt lat="59.9551382" lon="17.7140768">
        <ele>62.1423</ele>
        <time>2014-06-11T20:37:04Z</time>
      </trkpt>
      <trkpt lat="59.9551112" lon="17.7140403">
        <ele>62.1423</ele>
        <time>2014-06-11T20:37:05Z</time>
      </trkpt>
      <trkpt lat="59.9550873" lon="17.7140362">
        <ele>61.6617</ele>
        <time>2014-06-11T20:37:06Z</time>
      </trkpt>
      <trkpt lat="59.955064" lon="17.7140612">
        <ele>60.7003</ele>
        <time>2014-06-11T20:37:07Z</time>
      </trkpt>
      <trkpt lat="59.9550453" lon="17.7141024">
        <ele>59.7391</ele>
        <time>2014-06-11T20:37:08Z</time>
      </trkpt>
      <trkpt lat="59.9550335" lon="17.7141449">
        <ele>58.2971</ele>
        <time>2014-06-11T20:37:09Z</time>
      </trkpt>
    </trkseg>
  </trk>
</gpx>